[[[{"header":{"parameterUnit":"kt","parameterCategory":2,"dx":1,"dy":1,"la1":29.285339999999998,"la2":30.599998999999997,"lo1":-89.70041500000002,"lo2":-87.6738589999976,"nx":112,"ny":82,"refTime":"2022-09-28T06:00:00:Z","depth":0,"parameterNumber":1,"parameterNumberName":"U-component_of_WINDS"},"data":[18.368,18.3834,18.3494,18.0036,18.1584,18.3116,18.0099,18.1437,18.3247,18.3247,18.3609,0.0,0.0,0.0,0.0,0.0,0.0,0.0,0.0,18.904,19.0237,19.0871,19.4581,19.7467,19.8475,20.2747,20.351,19.9016,20.1973,20.3522,20.2558,20.1995,20.2347,20.3885,20.3944,20.3944,20.3944,20.3944,20.3944,20.3944,20.4507,20.4707,20.4859,20.8027,21.1136,21.4246,21.6757,21.9643,22.2587,22.2587,22.2153,22.1602,22.0628,21.9655,21.8881,22.098,22.1391,22.1051,22.0417,22.0206,21.9854,21.7344,21.6334,21.6123,21.5149,21.495,21.5161,21.6123,21.6557,21.671,21.7742,21.9068,22.0206,22.0206,22.1391,22.2587,22.2587,22.2587,22.2587,22.2587,22.2587,22.2587,22.2587,22.2587,22.2587,22.2587,22.2587,22.2587,22.2587,22.2587,22.3163,22.4678,22.6298,22.8621,23.1707,23.4241,23.6987,24.0085,23.8734,23.7915,23.7915,23.634,23.5425,23.4836,23.3863,23.3089,23.25,23.1937,23.1739,23.1726,23.5016,23.6366,18.3063,18.3167,18.254,17.8662,17.9999,18.1336,17.7756,17.8882,18.0914,18.1477,0.0,0.0,0.0,0.0,0.0,0.0,0.0,0.0,0.0,19.0167,19.2621,19.3205,19.6503,19.8886,19.9423,20.2547,20.3158,19.9639,20.1773,20.297,20.2325,20.1762,20.2347,20.3885,20.3944,20.3944,20.3944,20.3944,20.3944,20.3944,20.4518,20.4518,20.4096,20.7593,21.0702,21.3401,21.6557,21.9643,22.2587,22.2587,22.2587,22.2364,22.1391,22.0616,22.0417,22.2024,22.1966,22.1039,22.1039,22.0264,21.8868,21.5783,21.4809,21.4598,21.3624,21.326,21.326,21.326,21.4387,21.5795,21.6123,21.8317,22.0417,22.0827,22.1813,22.2587,22.2587,22.2587,22.2587,22.2587,22.2587,22.2587,22.2587,22.2587,22.2587,22.2587,22.2587,22.2587,22.2587,22.2587,22.2939,22.3949,22.5511,22.6861,22.7834,23.2116,23.634,24.0085,23.9706,23.9508,23.9508,23.7889,23.634,23.4836,23.426,23.3274,23.1739,23.1739,23.1739,23.1726,23.4439,23.5777,18.3527,18.2467,18.1431,17.9904,18.0203,18.0371,17.8812,17.9657,18.1195,0.0,0.0,0.0,0.0,0.0,0.0,0.0,0.0,0.0,0.0,18.9604,19.418,19.8627,20.0598,20.102,19.9634,20.0798,20.2336,20.3733,20.2558,20.2336,20.3885,20.2325,20.2347,20.3885,20.3944,20.3944,20.3944,20.3944,20.3944,20.3944,20.5481,20.5493,20.4096,20.8766,21.1723,21.3413,21.6569,21.9655,22.26,22.2587,22.2587,22.2587,22.2587,22.1602,22.0405,22.2024,22.2587,22.2587,22.2587,22.0405,21.732,21.4234,21.326,21.326,21.326,21.326,21.326,21.326,21.4375,21.5994,21.7531,21.908,22.0616,22.2165,22.2587,22.2587,22.2587,22.2587,22.2587,22.2587,22.2587,22.2587,22.2587,22.2587,22.2587,22.2587,22.2587,22.2587,22.2587,22.2587,22.2587,22.2587,22.3949,22.4889,22.4889,22.9172,23.3652,23.8325,24.0072,24.1057,24.1057,23.9662,23.8127,23.6591,23.499,23.3428,23.1726,23.1726,23.1726,23.1726,23.3274,23.4836,17.9887,17.9358,17.883,17.8065,17.9576,18.0726,17.8881,0.0,0.0,0.0,18.3086,0.0,0.0,0.0,0.0,0.0,0.0,19.0096,19.1987,19.2339,19.3325,19.5718,19.7489,19.8675,19.9423,20.2758,20.4074,20.2325,20.297,20.3533,20.3944,20.2325,20.2347,20.3885,20.3944,20.3944,20.3944,20.3944,20.3944,20.3944,20.5481,20.5493,20.4096,20.7605,21.0151,21.1723,21.4797,21.7871,22.1051,22.2177,22.2587,22.2587,22.2587,22.2388,22.1954,22.2364,22.2587,22.2587,22.2587,22.0405,21.732,21.4234,21.326,21.326,21.326,21.326,21.3471,21.4598,21.6159,21.7696,21.9303,22.084,22.2012,22.2364,22.2587,22.2587,22.2587,22.2587,22.2587,22.2587,22.2587,22.2587,22.2587,22.2587,22.2587,22.2587,22.2587,22.2587,22.2587,22.2587,22.2587,22.2587,22.3949,22.4889,22.4889,22.9172,23.2641,23.5188,23.8862,24.1057,24.1057,24.0635,23.9649,23.8113,23.7761,23.6199,23.3428,23.3428,23.2865,23.1726,23.3274,23.4836,0.0,0.0,0.0,0.0,0.0,0.0,17.9534,0.0,18.0642,0.0,0.0,0.0,0.0,0.0,0.0,0.0,19.1072,19.1705,19.3525,19.3606,19.4018,19.5556,19.7115,19.8475,19.9423,20.2336,20.3722,20.2525,20.3299,20.3944,20.3944,20.311,20.2958,20.3885,20.3944,20.3944,20.3944,20.4496,20.4848,20.4848,20.7205,20.7394,20.6056,20.9165,21.1265,21.3061,21.5595,21.8305,22.1179,22.2165,22.2587,22.2587,22.2587,22.2587,22.2587,22.2587,22.2165,22.159,22.2376,22.0405,21.7519,21.5783,21.4398,21.326,21.326,21.36,21.4387,21.5372,21.7109,21.908,22.0065,22.1391,22.2587,22.2587,22.2587,22.2587,22.2587,22.2587,22.2587,22.2587,22.2587,22.2587,22.2587,22.2587,22.2587,22.2587,22.2587,22.2587,22.2587,22.2587,22.2587,22.2587,22.3374,22.3962,22.3962,22.7623,23.0567,23.2103,23.6565,23.9297,24.0085,24.0622,24.0283,23.8734,23.8677,23.7185,23.4049,23.4049,23.3639,23.2641,23.2839,23.4215,0.0,0.0,0.0,0.0,17.9025,0.0,0.0,0.0,18.0019,18.4766,0.0,18.5218,18.9593,0.0,0.0,19.2198,19.2691,19.2761,19.2973,19.4018,19.5355,19.6893,19.8253,19.926,19.9623,20.0787,20.2184,20.3722,20.3944,20.3944,20.3944,20.3944,20.3944,20.3944,20.3944,20.3944,20.3944,20.5493,20.6256,20.6244,20.9376,21.0162,20.879,21.17,21.3835,21.5161,21.6921,21.9291,22.2012,22.2364,22.2587,22.2587,22.2587,22.2587,22.2587,22.2587,22.159,22.0616,22.2177,22.0616,21.8082,21.8082,21.6135,21.3835,21.3624,21.4375,21.5572,21.5783,21.7883,22.0264,22.0405,22.1614,22.2587,22.2587,22.2587,22.2587,22.2587,22.2587,22.2587,22.2587,22.2587,22.2587,22.2587,22.2587,22.2587,22.2587,22.2587,22.2587,22.2587,22.2587,22.2587,22.2587,22.2587,22.2587,22.2587,22.5511,22.7834,22.937,23.3678,23.6776,23.8312,23.9847,24.0226,23.8875,23.8875,23.7537,23.4625,23.4414,23.4202,23.4062,23.2654,23.3428,0.0,0.0,0.0,0.0,0.0,17.6242,0.0,0.0,0.0,18.6375,18.8055,18.9452,19.1564,19.1705,19.2128,19.4018,19.4299,19.4792,19.5967,19.5345,19.5355,19.6893,19.7305,19.8453,20.1009,20.135,20.2184,20.3722,20.3944,20.3944,20.3944,20.3944,20.3944,20.3944,20.3944,20.3944,20.3944,20.5493,20.6256,20.6244,20.9376,21.0162,20.8567,21.0514,21.1512,21.1852,21.4809,21.7132,21.9092,22.1614,22.2587,22.2587,22.2587,22.2587,22.2587,22.2587,22.2376,22.2165,22.2364,22.1403,21.9866,21.9866,21.8516,21.6757,21.5583,21.5372,21.5771,21.712,21.8881,22.0405,22.1813,22.2376,22.2587,22.2587,22.2587,22.2587,22.2587,22.2587,22.2587,22.2587,22.2587,22.2587,22.2587,22.2587,22.2587,22.2587,22.2587,22.2587,22.2587,22.2587,22.2587,22.2587,22.2587,22.2587,22.2587,22.5511,22.7834,22.937,23.2667,23.5201,23.6789,23.8325,23.9662,24.0648,24.0648,23.9649,23.7735,23.6565,23.5201,23.4049,23.3626,23.4638,0.0,0.0,0.0,17.701,0.0,0.0,0.0,18.2623,18.4957,18.7291,18.9674,19.1494,19.2339,19.2409,19.3184,19.5556,19.5366,19.4993,19.5756,19.5366,19.4993,19.5929,19.6693,19.7668,19.9238,20.0635,20.1995,20.2758,20.3522,20.3944,20.3944,20.3944,20.3944,20.3944,20.3944,20.3944,20.3944,20.6256,20.7382,20.7441,21.0503,21.1711,21.0913,21.17,21.2486,21.3248,21.4962,21.6909,21.9303,22.084,22.1801,22.2587,22.2587,22.2587,22.26,22.159,22.1391,22.1391,22.1391,22.0827,22.0206,22.0206,21.9631,21.8669,21.6358,21.6135,21.7132,21.8669,22.0206,22.1602,22.2376,22.2587,22.2587,22.2587,22.2587,22.2587,22.2587,22.2587,22.2587,22.2587,22.2587,22.2587,22.2587,22.2587,22.2587,22.2587,22.2587,22.2587,22.2587,22.2587,22.2587,22.2587,22.2587,22.2587,22.2587,22.4724,22.6637,22.8174,23.1105,23.3652,23.5214,23.755,23.9099,23.986,24.0635,24.0283,23.8677,23.7141,23.634,23.6398,23.4075,23.4651,0.0,0.0,0.0,0.0,0.0,0.0,18.1144,18.4383,18.721,18.8417,19.0931,19.2891,19.2891,19.2891,19.3747,19.6352,19.5556,19.4792,19.4792,19.4792,19.4944,19.5133,19.633,19.7327,19.7467,19.9813,20.1221,20.1221,20.2536,20.351,20.3944,20.3944,20.3944,20.3944,20.3944,20.3944,20.3944,20.703,20.8567,20.8567,21.1688,21.326,21.326,21.326,21.4046,21.5161,21.536,21.7109,21.9854,22.0053,22.1051,22.2165,22.2364,22.2376,22.1954,22.0616,22.0065,21.9854,22.0053,22.0206,22.0264,22.0628,22.0616,22.0218,21.732,21.7109,21.8317,21.9854,22.1403,22.2587,22.2587,22.2587,22.2587,22.2587,22.2587,22.2587,22.2587,22.2587,22.2587,22.2587,22.2587,22.2587,22.2587,22.2587,22.2587,22.2587,22.2587,22.2587,22.2587,22.2587,22.2587,22.2587,22.2587,22.2587,22.2587,22.3949,22.5511,22.706,22.978,23.1867,23.3486,23.634,23.7889,23.8338,23.9874,24.0072,23.9086,23.7902,23.7537,23.81,23.4638,23.5003,0.0,0.0,0.0,17.8416,17.6728,0.0,18.3287,18.4243,18.5208,19.078,19.3314,19.4592,19.4592,19.4592,19.457,19.4933,19.4944,19.4792,19.4792,19.4792,19.5366,19.6693,19.6882,19.7689,19.906,19.9471,19.9612,19.9612,20.0998,20.2384,20.3885,20.3944,20.3944,20.3944,20.3944,20.3944,20.3944,20.703,20.8567,20.8567,21.1688,21.326,21.326,21.326,21.3248,21.3624,21.502,21.6557,21.8317,21.9643,22.0429,22.0616,22.2024,22.1825,22.0405,22.0264,21.9279,21.8293,21.9866,22.0206,22.0405,22.1801,22.2388,22.1954,22.0206,21.8868,21.8317,21.9854,22.1403,22.2587,22.2587,22.2587,22.2587,22.2587,22.2587,22.2587,22.2587,22.2587,22.2587,22.2587,22.2587,22.2587,22.2587,22.2587,22.2587,22.2587,22.2587,22.2587,22.2587,22.2587,22.2587,22.2587,22.2587,22.2587,22.2587,22.3949,22.5511,22.706,22.8807,23.0567,23.1879,23.3639,23.5201,23.6565,23.8113,23.9508,24.0859,24.0635,23.9086,23.6565,23.755,23.7563,0.0,0.0,17.4099,17.6053,0.0,0.0,18.1779,18.5721,18.902,19.072,19.3807,19.5929,19.4933,19.4792,19.4792,19.4792,19.4792,19.4792,19.4792,19.4792,19.4993,19.5718,19.5767,19.5908,19.6725,19.7478,19.8112,19.8112,19.9461,20.102,20.2558,20.3299,20.3944,20.3944,20.3944,20.3944,20.3944,20.703,20.8567,20.8567,21.1688,21.326,21.326,21.326,21.326,21.326,21.4046,21.5161,21.6545,21.7344,21.8669,22.0264,22.098,22.084,22.0053,21.9303,21.8458,21.7871,21.8669,21.9432,22.0405,22.2012,22.2587,22.2177,21.9643,21.9643,22.0417,21.9303,22.0616,22.2587,22.2587,22.2587,22.2587,22.2587,22.2587,22.2587,22.2587,22.2587,22.2587,22.2587,22.2587,22.2587,22.2587,22.2587,22.2587,22.2587,22.2587,22.2587,22.2587,22.2587,22.2587,22.2587,22.2587,22.2587,22.2587,22.3163,22.45,22.706,22.7834,22.9147,23.1681,23.3287,23.4849,23.6366,23.7902,23.9451,24.1057,24.0072,23.9112,23.7761,23.6551,23.7115,17.1677,0.0,0.0,0.0,0.0,0.0,18.2684,18.7411,19.1223,19.1353,19.4088,19.613,19.4933,19.4792,19.4792,19.4792,19.4792,19.4792,19.4792,19.4792,19.4792,19.4792,19.4792,19.4792,19.4792,19.5767,19.6552,19.6552,19.7901,19.9461,20.102,20.2325,20.3533,20.3944,20.3944,20.3944,20.3944,20.703,20.8567,20.8567,21.1688,21.326,21.326,21.326,21.326,21.326,21.326,21.4187,21.5572,21.5572,21.7109,21.9643,22.0065,21.9631,21.8868,21.8082,21.732,21.6768,21.7519,21.8669,21.9854,22.1391,22.2165,22.2012,21.9444,22.0053,22.1614,21.9631,22.0405,22.2024,22.2364,22.2587,22.2587,22.2587,22.2587,22.2587,22.2587,22.2587,22.2587,22.2587,22.2587,22.2587,22.2587,22.2587,22.2587,22.2587,22.2587,22.2587,22.2587,22.2587,22.2587,22.2587,22.2587,22.2587,22.2587,22.2587,22.3937,22.7072,22.7213,22.8609,23.1515,23.2878,23.4049,23.579,23.675,23.8298,24.0437,23.931,23.8677,23.8677,23.6398,23.6974,0.0,0.0,0.0,18.1709,18.1233,18.2332,18.8467,18.8829,18.9192,19.3666,19.4803,19.4781,19.4792,19.4792,19.4792,19.4792,19.4792,19.4792,19.4792,19.4792,19.4792,19.4792,19.4792,19.4792,19.4792,19.4781,19.4781,19.4781,19.6341,19.7901,19.9412,20.0787,20.2336,20.3885,20.3944,20.3944,20.3944,20.703,20.8567,20.8567,21.1688,21.326,21.326,21.326,21.326,21.326,21.326,21.4187,21.5572,21.5572,21.6557,21.8094,21.9643,21.8293,21.5936,21.732,21.5994,21.3823,21.6921,21.7883,21.8317,21.9854,22.1403,22.2153,22.0616,22.0206,22.0628,22.2024,22.1391,22.0616,22.2165,22.2587,22.2587,22.2587,22.2587,22.2587,22.2587,22.2587,22.2587,22.2587,22.2587,22.2587,22.2587,22.2587,22.2587,22.2587,22.2587,22.2587,22.2587,22.2587,22.2587,22.2587,22.2587,22.2587,22.2587,22.2587,22.3937,22.7072,22.7213,22.8609,23.1515,23.1726,23.25,23.4049,23.4202,23.5764,23.8734,23.8677,23.8677,23.8677,23.869,23.7748,17.4162,17.4406,17.5291,17.9984,18.0206,18.0582,18.5802,18.8206,19.0096,19.2691,19.4029,19.4792,19.4792,19.4792,19.4792,19.4792,19.4792,19.4792,19.4792,19.4792,19.4792,19.4792,19.4792,19.4792,19.4792,19.4792,19.4792,19.4792,19.5366,19.6704,19.9271,19.9813,20.1373,20.3885,20.3944,20.4518,20.5493,20.7593,20.9153,21.0151,21.2274,21.326,21.326,21.326,21.326,21.326,21.326,21.3624,21.4035,21.4035,21.502,21.6334,21.6909,21.6557,21.5572,21.6135,21.5008,21.3624,21.5572,21.7132,21.8082,21.9631,22.1238,22.2153,22.0616,22.1051,22.159,22.1192,22.1391,22.1966,22.2364,22.2587,22.2587,22.2587,22.2587,22.2587,22.2587,22.2587,22.2587,22.2587,22.2587,22.2587,22.2587,22.2587,22.2587,22.2587,22.2587,22.2587,22.2587,22.2587,22.2587,22.2587,22.2587,22.2587,22.2587,22.2587,22.3937,22.7072,22.7213,22.8609,23.1515,23.1739,23.2513,23.4062,23.4049,23.4625,23.561,23.6538,23.7128,23.7128,23.931,23.8888,17.5217,17.4803,17.5112,18.1179,18.1385,18.1346,18.6023,18.8699,19.073,19.2821,19.4088,19.4792,19.4792,19.4792,19.4933,19.5567,19.5144,19.4933,19.5567,19.5144,19.4792,19.4792,19.4792,19.4792,19.4792,19.4792,19.4792,19.4792,19.4792,19.6141,19.9271,19.9412,20.0809,20.3885,20.3944,20.4285,20.5493,20.7605,20.9153,21.0162,21.2286,21.326,21.326,21.326,21.326,21.326,21.326,21.3624,21.4035,21.3471,21.4175,21.5572,21.5572,21.522,21.4797,21.536,21.4598,21.3471,21.5008,21.6545,21.8106,21.908,22.0827,22.2153,22.0616,22.1403,22.2376,22.1403,22.1813,22.2587,22.2587,22.2587,22.2587,22.2587,22.2587,22.2587,22.2587,22.2587,22.2587,22.2587,22.2587,22.2587,22.2587,22.2587,22.2587,22.2587,22.2587,22.2587,22.2587,22.2587,22.2587,22.2587,22.2587,22.2587,22.2587,22.2587,22.3738,22.6227,22.6848,22.8397,23.0919,23.154,23.2078,23.3287,23.3287,23.3287,23.3287,23.5368,23.6155,23.5623,23.9297,23.9649,17.7407,17.8667,18.0641,18.4884,18.4465,18.4222,18.903,19.0096,19.1012,19.4159,19.4792,19.4792,19.4792,19.4792,19.5133,19.6682,19.5767,19.5366,19.6742,19.5778,19.4792,19.4792,19.4792,19.4792,19.4792,19.4792,19.4792,19.4792,19.4792,19.6141,19.9271,19.9412,20.0809,20.3885,20.3944,20.3944,20.3944,20.7042,20.8579,20.879,21.1852,21.326,21.326,21.326,21.326,21.326,21.326,21.4023,21.5372,21.3823,21.4023,21.536,21.536,21.4598,21.3401,21.495,21.461,21.3471,21.495,21.6557,21.7895,21.7895,22.0065,22.2388,22.084,22.1391,22.2587,22.2587,22.2587,22.2587,22.2587,22.2587,22.2587,22.2587,22.2587,22.2587,22.2587,22.2587,22.2587,22.2587,22.2587,22.2587,22.2587,22.2587,22.2587,22.2587,22.2587,22.2587,22.2587,22.2587,22.2587,22.2587,22.2587,22.2587,22.2587,22.2587,22.315,22.4736,22.6451,22.7988,22.9594,23.0907,23.1739,23.1739,23.1739,23.1739,23.1739,23.4804,23.5412,23.4049,23.8734,24.0085,17.5935,17.8533,18.0574,18.4606,18.3479,18.2885,18.8748,19.0096,19.1012,19.4159,19.4792,19.4792,19.4792,19.4792,19.4944,19.5366,19.4993,19.4944,19.5355,19.4993,19.4792,19.4792,19.4792,19.4792,19.4792,19.4792,19.4792,19.4792,19.4792,19.6141,19.9271,19.9412,20.0809,20.3885,20.3944,20.3944,20.3944,20.5833,20.8027,21.0303,21.2274,21.326,21.326,21.326,21.326,21.326,21.326,21.3471,21.3823,21.3401,21.3471,21.3823,21.3823,21.3612,21.326,21.36,21.3624,21.326,21.36,21.5572,21.7895,21.7895,22.0065,22.26,22.2177,22.2153,22.2587,22.2587,22.2587,22.2587,22.2587,22.2587,22.2587,22.2587,22.2587,22.2587,22.2587,22.2587,22.2587,22.2587,22.2587,22.2587,22.2587,22.2587,22.2587,22.2587,22.2587,22.2587,22.2587,22.2587,22.2587,22.2587,22.2587,22.2587,22.2587,22.2587,22.315,22.4736,22.6451,22.7988,22.9594,23.0907,23.1739,23.1739,23.1739,23.1739,23.1739,23.3639,23.385,23.2289,23.6001,23.7339,17.554,17.7664,17.9857,18.518,18.3609,18.2251,18.7843,18.9604,19.0801,19.3254,19.3736,19.3947,19.457,19.4792,19.4993,19.5778,19.5133,19.4993,19.5778,19.5133,19.4792,19.4792,19.4792,19.4792,19.4792,19.4792,19.4792,19.4792,19.4792,19.6141,19.9271,19.9412,20.0809,20.3885,20.3944,20.3944,20.3944,20.4696,20.6408,20.8965,21.1078,21.2638,21.326,21.326,21.326,21.326,21.326,21.326,21.326,21.326,21.326,21.326,21.326,21.326,21.326,21.326,21.326,21.326,21.326,21.5372,21.7895,21.7895,22.0065,22.2587,22.2587,22.2587,22.2587,22.2587,22.2587,22.2587,22.2587,22.2587,22.2587,22.2587,22.2587,22.2587,22.2587,22.2587,22.2587,22.2587,22.2587,22.2587,22.2587,22.2587,22.2587,22.2587,22.2587,22.2587,22.2587,22.2587,22.2587,22.2587,22.2587,22.2587,22.2587,22.2587,22.2952,22.3738,22.6086,22.7635,22.8621,23.0555,23.1739,23.1739,23.1739,23.1739,23.1739,23.3274,23.3287,23.1726,23.5016,23.5988,17.665,17.763,17.9517,18.5956,18.4142,18.198,18.6717,18.884,19.0308,19.2057,19.2409,19.2902,19.4592,19.4792,19.5133,19.6531,19.5718,19.5133,19.6531,19.5556,19.4792,19.4792,19.4933,19.4993,19.4792,19.4933,19.4993,19.4792,19.4792,19.6151,19.906,19.926,20.082,20.3522,20.3722,20.3944,20.3944,20.3944,20.4707,20.6244,20.9165,21.15,21.326,21.3061,21.3049,21.326,21.326,21.326,21.326,21.326,21.326,21.326,21.326,21.326,21.326,21.326,21.326,21.326,21.326,21.5372,21.7895,21.7895,22.0065,22.2587,22.2587,22.2587,22.2587,22.2587,22.2587,22.2587,22.2587,22.2587,22.2587,22.2587,22.2587,22.2587,22.2587,22.2587,22.2587,22.2587,22.2587,22.2587,22.2587,22.2587,22.2587,22.2587,22.2587,22.2587,22.2587,22.2587,22.2587,22.2587,22.2587,22.2587,22.2587,22.2587,22.2587,22.2587,22.5287,22.7072,22.7213,22.9934,23.154,23.154,23.1092,23.1105,23.1105,23.2654,23.2711,23.1527,23.4439,23.5214,18.1787,18.2822,18.2343,18.555,18.3518,18.198,18.6717,18.7995,18.897,19.1846,19.2409,19.2902,19.4592,19.4792,19.4781,19.5144,19.4933,19.4781,19.5144,19.4933,19.4792,19.4792,19.5919,19.6119,19.4944,19.5908,19.6119,19.4944,19.4792,19.5556,19.7478,19.8686,20.0246,20.1995,20.3322,20.3944,20.3944,20.3944,20.4707,20.6256,20.8168,21.0503,21.3272,21.1864,21.2075,21.326,21.326,21.326,21.326,21.326,21.326,21.326,21.326,21.326,21.326,21.326,21.326,21.326,21.326,21.5372,21.7895,21.7895,22.0065,22.2587,22.2587,22.2587,22.2587,22.2587,22.2587,22.2587,22.2587,22.2587,22.2587,22.2587,22.2587,22.2587,22.2587,22.2587,22.2587,22.2587,22.2587,22.2587,22.2587,22.2587,22.2587,22.2587,22.2587,22.2587,22.2587,22.2587,22.2587,22.2587,22.2587,22.2587,22.2587,22.2587,22.2587,22.2587,22.4314,22.5875,22.7213,22.8961,22.9934,22.9934,22.8596,22.7975,22.7975,22.9582,23.0145,22.9934,23.1681,23.3076,17.7016,17.9579,18.1095,18.1415,18.1116,18.1557,18.4655,18.6576,18.8206,18.9674,19.0649,19.1705,19.3254,19.4229,19.4592,19.3666,19.4229,19.4592,19.3677,19.4299,19.4792,19.4792,19.6119,19.6742,19.613,19.6693,19.6742,19.6141,19.5133,19.5577,19.7115,19.8637,20.0024,20.1562,20.3099,20.3944,20.3944,20.3944,20.4296,20.5059,20.7441,20.8931,20.9576,20.9728,21.0503,21.2075,21.2075,21.2486,21.326,21.326,21.326,21.326,21.326,21.326,21.326,21.326,21.326,21.326,21.326,21.4809,21.6757,21.7696,21.9432,22.1614,22.2376,22.2587,22.2587,22.2587,22.2587,22.2587,22.2587,22.2587,22.2587,22.2587,22.2587,22.2587,22.2587,22.2587,22.2587,22.2587,22.2587,22.2587,22.2587,22.2587,22.2587,22.2587,22.2587,22.2587,22.2587,22.2587,22.2587,22.2587,22.2587,22.2952,22.3738,22.3738,22.3738,22.3738,22.5312,22.6439,22.7213,22.7213,22.7834,22.9594,22.7975,22.7623,22.8397,22.9172,22.9934,23.0708,23.1303,23.2078,17.2966,17.6857,18.0564,17.9302,17.9991,18.1424,18.2784,18.5007,18.6928,18.7643,18.8759,19.0167,19.2057,19.3455,19.3877,19.2621,19.3747,19.4229,19.2691,19.3807,19.4792,19.4792,19.6493,19.7467,19.7094,19.7668,19.789,19.7094,19.5908,19.5718,19.6541,19.8052,19.9612,20.0998,20.2536,20.351,20.3944,20.3944,20.3944,20.3933,20.683,20.723,20.5845,20.7816,20.9165,20.9951,21.0514,21.1875,21.326,21.326,21.326,21.326,21.326,21.326,21.326,21.326,21.326,21.326,21.326,21.4234,21.5771,21.732,21.8856,22.0641,22.2177,22.2587,22.2587,22.2587,22.2587,22.2587,22.2587,22.2587,22.2587,22.2587,22.2587,22.2587,22.2587,22.2587,22.2587,22.2587,22.2587,22.2587,22.2587,22.2587,22.2587,22.2587,22.2587,22.2587,22.2587,22.2587,22.2587,22.2587,22.2964,22.3362,22.4314,22.4678,22.4736,22.4537,22.5498,22.6484,22.7213,22.5652,22.6086,22.8621,22.7623,22.7399,22.8033,22.9018,22.9934,23.0753,23.1303,23.1739,17.7978,18.1465,18.4956,18.4496,18.3077,18.2026,18.2915,18.3307,18.4363,18.721,18.7924,18.891,19.1916,19.255,19.2621,19.248,19.3747,19.4229,19.2691,19.3807,19.4792,19.4792,19.75,19.8686,19.7327,19.9661,20.0002,19.7316,19.6882,19.6341,19.4993,19.6552,19.8052,19.9623,20.0998,20.2558,20.3944,20.3944,20.3944,20.3944,20.5634,20.5634,20.4307,20.7241,20.7782,20.683,20.9751,21.1875,21.326,21.326,21.326,21.326,21.326,21.326,21.326,21.326,21.326,21.326,21.326,21.4234,21.5771,21.732,21.8856,22.0641,22.2177,22.2587,22.2587,22.2587,22.2587,22.2587,22.2587,22.2587,22.2587,22.2587,22.2587,22.2587,22.2587,22.2587,22.2587,22.2587,22.2587,22.2587,22.2587,22.2587,22.2587,22.2587,22.2587,22.2587,22.2587,22.2587,22.2587,22.2587,22.3962,22.4103,22.2952,22.4103,22.4314,22.2964,22.2939,22.4302,22.706,22.5652,22.5113,22.5312,22.6662,22.585,22.3138,22.747,22.8973,22.761,23.0331,23.1739,17.1191,17.5431,17.9269,17.8146,17.9948,18.1684,18.0873,18.1381,18.2591,18.4575,18.5731,18.7291,19.0438,19.1776,19.2128,19.1223,19.3113,19.3877,19.1364,19.3184,19.4792,19.4792,19.7489,19.9271,19.8637,20.0376,20.0798,19.8686,19.7689,19.6319,19.4781,19.6341,19.7912,19.9423,20.0787,20.2336,20.3944,20.3944,20.3944,20.3944,20.5481,20.5493,20.3933,20.5282,20.5493,20.5082,20.8168,20.9939,21.055,21.2486,21.326,21.326,21.326,21.326,21.326,21.326,21.326,21.326,21.326,21.3612,21.4387,21.5994,21.7531,21.908,22.0616,22.1813,22.2587,22.2587,22.2587,22.2587,22.2587,22.2587,22.2587,22.2587,22.2587,22.2587,22.2587,22.2587,22.2587,22.2587,22.2587,22.2587,22.2587,22.2587,22.2587,22.2587,22.2587,22.2587,22.2587,22.3374,22.3515,22.274,22.3949,22.5113,22.5287,22.5101,22.5113,22.5275,22.4525,22.4525,22.5888,22.5324,22.53,22.6298,22.6848,22.706,22.6848,22.8596,22.9735,22.9921,23.1105,23.1739,16.7392,17.1183,17.4962,17.4775,17.776,18.0566,18.0006,18.0052,18.0463,18.1516,18.3327,18.5731,18.8829,19.072,19.1223,18.9674,19.2409,19.3666,19.0519,19.2832,19.4792,19.4792,19.7137,19.8827,19.9423,20.0809,20.1221,20.0187,19.8686,19.7115,19.5556,19.613,19.7327,19.9423,20.0387,20.1995,20.3944,20.3944,20.3944,20.3944,20.507,20.4907,20.3944,20.3944,20.4074,20.4707,20.7042,20.8156,20.8778,21.15,21.2849,21.326,21.326,21.326,21.326,21.326,21.326,21.326,21.326,21.326,21.346,21.5008,21.6545,21.8329,21.9866,22.1403,22.2587,22.2587,22.2587,22.2587,22.2587,22.2587,22.2587,22.2587,22.2587,22.2587,22.2587,22.2165,22.2024,22.26,22.2165,22.2024,22.26,22.2587,22.2587,22.2587,22.2587,22.2587,22.2587,22.3962,22.4678,22.3925,22.4865,22.5888,22.6439,22.5511,22.5088,22.5875,22.4889,22.409,22.409,22.5101,22.5875,22.6426,22.7834,22.8596,22.8807,22.9793,23.0567,23.1118,23.1527,23.1739,16.9935,17.1354,17.4564,17.7658,17.8166,17.8631,18.1284,17.9531,17.7506,17.8345,18.0984,18.4082,18.721,18.904,18.9604,18.8065,19.1705,19.3666,19.0519,19.2832,19.4792,19.4792,19.6119,19.7679,19.9271,20.0809,20.1562,20.1562,20.0246,19.8686,19.7094,19.5556,19.613,19.926,19.9412,20.0787,20.3885,20.3944,20.3944,20.3944,20.3944,20.3944,20.3944,20.3944,20.4707,20.6256,20.6256,20.7182,20.879,21.0303,21.1864,21.326,21.326,21.326,21.326,21.326,21.326,21.326,21.326,21.326,21.346,21.5008,21.6545,21.8329,21.9866,22.1403,22.2587,22.2587,22.2587,22.2587,22.2587,22.2587,22.2587,22.2587,22.2587,22.2587,22.2587,22.1403,22.0616,22.2153,22.1403,22.084,22.2388,22.2587,22.2587,22.2587,22.2587,22.2587,22.2587,22.3962,22.5453,22.7072,22.7213,22.6662,22.5113,22.4889,22.4326,22.2728,22.2575,22.2587,22.2587,22.5486,22.6439,22.4889,22.937,23.012,22.7201,23.012,23.0894,22.9582,23.1118,23.1739,16.9088,17.0586,17.288,17.5762,17.659,17.724,17.9422,18.084,18.1029,17.8859,18.0914,18.4082,18.721,18.9051,18.9604,18.7995,19.0801,19.248,19.0378,19.1846,19.3606,19.457,19.6119,19.7679,19.9271,20.0809,20.1562,20.1562,20.1221,19.9813,19.7327,19.6693,19.6915,19.7912,19.8838,20.0398,20.2347,20.3299,20.3944,20.3944,20.3944,20.3944,20.3944,20.3944,20.4707,20.6244,20.7382,20.8801,21.0151,21.0737,21.1864,21.326,21.326,21.326,21.326,21.326,21.326,21.326,21.326,21.326,21.3248,21.3823,21.5783,21.7871,21.8516,22.0405,22.2587,22.2587,22.2587,22.2587,22.2587,22.2587,22.2587,22.2587,22.2587,22.2964,22.3962,22.2964,22.2587,22.5287,22.3573,22.2388,22.3962,22.3316,22.2587,22.2587,22.2587,22.2587,22.2587,22.2939,22.4302,22.7014,22.7213,22.6662,22.5113,22.3962,22.3527,22.4103,22.5076,22.5697,22.5697,22.7847,22.8609,22.8033,23.0567,23.1329,23.0356,23.1329,23.1527,23.1131,23.1527,23.1739,16.9381,17.0309,17.1357,17.4677,17.4516,17.4319,17.761,17.8949,17.9207,17.8007,18.0188,18.2955,18.551,18.8759,19.0096,18.7361,19.0519,19.255,19.0449,19.1987,19.3666,19.457,19.5556,19.6915,19.8486,19.9802,20.1009,20.1562,20.1562,20.0787,19.8864,19.7668,19.7305,19.789,19.8827,20.0187,20.1562,20.3099,20.3944,20.3944,20.3944,20.3944,20.3944,20.3944,20.5059,20.7007,20.6808,20.8391,21.0889,21.0303,21.0925,21.2427,21.3061,21.326,21.326,21.326,21.326,21.326,21.326,21.326,21.326,21.326,21.502,21.712,21.7672,21.9643,22.1813,22.2376,22.2587,22.2587,22.2587,22.2587,22.2587,22.2587,22.2587,22.2939,22.4525,22.3175,22.2728,22.6484,22.4724,22.3175,22.4691,22.4103,22.3316,22.2575,22.2587,22.2587,22.2587,22.3175,22.4148,22.6074,22.7424,22.7789,22.6873,22.4736,22.409,22.5664,22.665,22.7213,22.7213,22.8762,22.9594,22.9594,23.0894,23.1739,23.1739,23.1739,23.1739,23.1739,23.1739,23.1739,17.0103,16.9952,16.9922,17.4179,17.2566,17.1265,17.6267,17.5137,17.3619,17.6069,17.8702,18.1014,18.2392,18.7601,19.0449,18.6305,19.0589,19.3525,19.0801,19.2832,19.4803,19.4944,19.4781,19.5345,19.6882,19.8475,19.9813,20.1361,20.1562,20.1562,20.141,19.8864,19.8052,19.9271,19.9412,20.0187,20.135,20.311,20.3944,20.3944,20.3944,20.3944,20.3944,20.3944,20.547,20.8215,20.5493,20.6842,21.0725,20.9365,20.9728,21.1312,21.2486,21.3037,21.326,21.326,21.326,21.326,21.326,21.326,21.326,21.3413,21.4375,21.5982,21.7531,21.9068,22.0616,22.2165,22.2587,22.2587,22.2587,22.2587,22.2587,22.2587,22.2587,22.2939,22.4525,22.2554,22.1755,22.6273,22.4724,22.3175,22.4736,22.4889,22.4326,22.2952,22.2575,22.2587,22.2364,22.3738,22.4678,22.4678,22.7258,22.9172,22.9159,22.6662,22.5676,22.7412,22.7635,22.7635,22.7635,22.8961,22.9735,22.9735,23.1131,23.1739,23.1739,23.1739,23.1739,23.1739,23.1739,23.1739,16.5529,16.6678,16.8085,17.1191,17.4793,17.786,17.8863,17.7608,17.5928,17.5112,17.7292,17.9113,17.7955,18.1909,18.5711,18.6999,18.9463,19.1776,19.3455,19.3254,19.3877,19.6341,19.5567,19.5345,19.6882,19.7467,19.8253,19.9824,20.102,20.1161,20.0046,20.0387,19.965,19.7679,19.9802,20.0809,20.0046,20.2547,20.3944,20.3944,20.3944,20.3944,20.3944,20.3944,20.4907,20.6819,20.723,20.8801,21.0878,21.0526,21.13,21.2638,21.17,21.2298,21.326,21.326,21.326,21.326,21.326,21.326,21.3401,21.4586,21.6147,21.7684,21.9303,22.084,22.2177,22.2364,22.2587,22.2587,22.2587,22.2587,22.2587,22.2587,22.2587,22.2939,22.4525,22.3386,22.3175,22.665,22.4724,22.3527,22.6227,22.4724,22.3374,22.4326,22.3386,22.2165,22.098,22.2177,22.3175,22.3175,22.3726,22.4724,22.5875,22.5312,22.6484,23.0331,23.0695,23.0695,23.0695,23.0964,23.1105,23.1105,23.1527,23.1739,23.1739,23.1739,23.1739,23.1739,23.1739,23.1739,16.6884,16.9318,17.0909,17.0196,17.3136,17.6145,17.5859,17.5093,17.4352,17.4604,17.6431,17.8222,17.9172,18.1407,18.4363,18.8196,18.9533,19.072,19.2409,19.255,19.3325,19.5767,19.5366,19.5155,19.5908,19.6693,19.7467,19.8253,20.0376,20.121,20.0376,20.1221,20.0776,19.9238,20.0013,20.0598,20.0387,20.2758,20.3522,20.291,20.351,20.4296,20.4848,20.4307,20.5048,20.7394,20.7441,20.8801,21.0878,21.0878,21.1864,21.3201,21.2274,21.2486,21.326,21.326,21.326,21.326,21.326,21.326,21.3413,21.4246,21.5572,21.712,21.8657,22.0206,22.1602,22.2376,22.2587,22.2587,22.2587,22.2587,22.2587,22.2587,22.2587,22.2939,22.4525,22.3751,22.3515,22.665,22.53,22.4161,22.5875,22.4724,22.3751,22.3738,22.3175,22.2153,22.1391,22.1391,22.1378,22.1378,22.1378,22.1813,22.2777,22.4736,22.7072,22.9582,22.9569,22.9921,23.0708,23.0695,23.1131,23.1739,23.1118,23.1118,23.1739,23.1118,23.1118,23.1739,23.1739,23.1739,16.9176,17.352,17.5865,17.1941,17.195,17.2743,17.2315,17.1701,17.1913,17.4164,17.5558,17.7645,18.1627,18.2804,18.4504,18.8688,18.9815,19.0308,19.072,19.1987,19.3395,19.4933,19.4944,19.4792,19.4792,19.5908,19.6682,19.6682,19.9216,20.0776,20.0776,20.135,20.141,20.121,20.0609,20.082,20.1995,20.2947,20.2947,20.1984,20.3322,20.4659,20.5833,20.4707,20.5681,20.8156,20.7019,20.8179,21.0514,21.0725,21.1723,21.2838,21.3201,21.326,21.326,21.326,21.326,21.326,21.326,21.326,21.326,21.346,21.4375,21.5936,21.7672,21.9233,22.0405,22.1813,22.2376,22.2587,22.2587,22.2587,22.2587,22.2587,22.2587,22.2952,22.4326,22.3527,22.3362,22.6086,22.5453,22.4691,22.4902,22.4678,22.4103,22.2728,22.2376,22.2012,22.1614,22.0628,21.9854,21.9854,22.0053,22.0429,22.0628,22.4525,22.6861,22.6861,22.706,22.7834,22.9172,22.9172,22.9946,23.1316,22.9934,22.9934,23.1316,22.9934,22.978,23.0952,23.1329,23.1316,16.4609,17.2735,18.0084,17.937,17.937,17.8799,17.6017,17.4315,17.3287,17.3031,17.4169,17.6016,17.8668,18.1336,18.38,18.5812,18.8417,19.1001,19.3666,19.4299,19.4993,19.6541,19.5556,19.4792,19.4792,19.4993,19.5144,19.5144,19.6682,19.789,19.789,20.0224,20.0998,19.9835,20.1984,20.331,20.3522,20.2558,20.2558,20.3522,20.3722,20.4096,20.4296,20.5493,20.6267,20.6608,20.7804,20.8579,20.899,21.0291,21.1101,21.1453,21.2626,21.326,21.326,21.326,21.326,21.326,21.326,21.326,21.3471,21.4809,21.536,21.6135,21.9092,22.0065,22.0264,22.0405,22.1614,22.2587,22.2587,22.2587,22.2587,22.2587,22.2587,22.2575,22.2964,22.2728,22.2728,22.315,22.3163,22.3386,22.4678,22.3738,22.2786,22.2575,22.1391,21.9643,21.6897,21.7531,21.8317,21.8317,21.9432,22.084,22.2177,22.4103,22.5324,22.5324,22.6439,22.7437,22.7635,22.7635,22.841,22.9946,22.8397,22.841,22.9946,22.841,22.7623,22.7988,22.9396,22.9946,16.7392,17.3163,17.8371,17.8371,17.8371,17.772,17.5357,17.4278,17.3776,17.3882,17.5127,17.7204,18.0359,18.211,18.4152,18.7421,18.7783,18.8417,19.066,19.1716,19.3455,19.6682,19.5778,19.4792,19.4792,19.4792,19.4792,19.4792,19.6108,19.7105,19.7105,19.9249,20.0376,20.0598,20.1161,20.1584,20.1584,20.2325,20.2325,20.1584,20.3099,20.3944,20.3933,20.547,20.6596,20.7593,20.8215,20.8567,20.8567,20.9365,21.0151,21.0937,21.1723,21.2486,21.326,21.326,21.326,21.326,21.326,21.326,21.3413,21.4023,21.4797,21.5771,21.7332,21.8305,21.9092,21.9092,22.0616,22.2587,22.2587,22.2587,22.2587,22.2587,22.2587,22.2587,22.2587,22.2587,22.2587,22.2587,22.2587,22.2798,22.3527,22.2939,22.2587,22.2587,22.1954,22.1051,21.949,21.8516,21.8317,21.908,21.8317,21.8657,22.1026,22.2753,22.3751,22.3751,22.4302,22.4724,22.4724,22.5511,22.6298,22.7072,22.6285,22.6637,22.8174,22.6637,22.6451,22.7213,22.7988,22.841,17.1459,0.0,17.723,17.723,17.7515,17.7301,0.0,17.5206,17.5495,17.5514,17.6474,17.8346,18.1908,18.3166,18.4866,18.8407,18.7643,18.7079,18.8618,18.9604,19.1716,19.6141,19.5567,19.4792,19.4792,19.4792,19.4792,19.4792,19.6108,19.7105,19.7105,19.8637,20.0046,20.0998,20.0398,20.0046,20.0046,20.2547,20.2758,20.0609,20.2325,20.3522,20.3933,20.5048,20.6619,20.8004,20.8356,20.8567,20.8567,20.8567,20.9376,21.0291,21.0725,21.1652,21.2626,21.3049,21.326,21.326,21.326,21.326,21.326,21.326,21.4035,21.5008,21.5008,21.6135,21.7332,21.6909,21.9291,22.2024,22.2024,22.2388,22.2587,22.2587,22.2587,22.2587,22.2587,22.2587,22.2587,22.2587,22.2153,22.2024,22.2024,22.2024,22.1966,22.1614,22.1813,22.1801,22.1614,21.9444,21.8516,22.0065,21.8106,21.7742,22.0628,22.1801,22.2587,22.2587,22.2587,22.2587,22.2587,22.3738,22.4314,22.4314,22.4678,22.53,22.6062,22.4877,22.4865,22.6062,22.6426,22.665,0.0,17.8148,18.0654,18.0654,18.1734,18.1957,17.8808,17.9308,0.0,17.7599,17.722,17.803,18.0509,18.3337,18.54,18.5752,18.7995,19.0308,19.1916,19.0941,19.1283,19.4592,19.4781,19.4792,19.4792,19.4792,19.4792,19.4792,19.6108,19.7105,19.7105,19.8637,19.9412,19.9634,20.0809,20.135,20.135,20.311,20.3722,20.351,20.2336,20.2547,20.3944,20.4096,20.4848,20.6456,20.8016,20.8567,20.8567,20.8567,20.8567,20.8942,21.0303,21.0878,21.1312,21.2626,21.326,21.326,21.326,21.326,21.326,21.326,21.3248,21.3401,21.3401,21.4375,21.536,21.4035,21.6921,22.0417,22.0417,22.1378,22.2587,22.2587,22.2587,22.2587,22.2587,22.2587,22.2587,22.2587,22.1391,22.0417,22.0417,22.0417,21.9842,21.8458,21.9432,21.9854,21.8458,21.8106,21.8516,22.0065,22.0065,22.0628,22.2153,22.2587,22.2587,22.2587,22.2587,22.2587,22.2587,22.274,22.2728,22.2728,22.4103,22.4326,22.2952,22.2798,22.2798,22.2939,22.4302,22.5113,17.4947,17.7729,17.9379,17.9379,18.0663,18.1234,17.896,17.9736,18.0074,17.6836,17.7721,17.9246,17.9631,18.3023,18.6047,18.6779,18.7924,18.884,18.9463,19.073,19.1635,19.1846,19.3595,19.4792,19.4792,19.4792,19.4792,19.4792,19.5355,19.5718,19.5718,19.7115,19.8475,19.9423,20.0787,20.1562,20.1562,20.3099,20.3299,20.2558,20.291,20.2736,20.2547,20.4507,20.5693,20.6244,20.8027,20.8567,0.0,20.7605,20.757,20.8579,20.8168,20.9165,21.0937,21.15,21.2427,21.326,21.326,21.326,21.326,21.326,21.326,21.326,21.326,21.3061,21.3061,21.4398,21.671,21.9303,22.1192,22.1391,22.1403,22.2376,22.2587,22.2587,22.2587,22.2587,22.2587,22.2587,22.2177,22.1391,22.0417,22.0206,21.9631,21.8094,21.8458,21.8868,21.9291,21.8516,21.8868,22.1391,22.084,22.0827,22.2364,22.2587,22.2587,22.2587,22.2587,22.2587,22.2587,22.2587,22.2587,22.2587,22.3163,22.3163,22.2587,22.2587,22.2587,22.2587,22.3163,22.3539,17.6017,17.7595,17.846,17.846,17.9736,18.044,17.8237,17.937,17.9976,17.6305,17.8073,17.9824,17.8529,18.2897,18.6511,18.5732,18.7632,18.904,18.8558,19.0378,19.1705,19.1564,19.3043,19.4229,19.4803,19.4792,19.4792,19.4792,19.5133,19.5567,19.5567,19.6893,19.8112,19.8686,20.0998,20.2136,20.1562,20.3099,20.331,20.2336,20.297,20.297,20.2325,20.4096,20.507,20.5634,20.7241,20.8156,20.8356,20.6808,20.7241,20.8356,20.6819,20.7616,20.9529,21.0526,21.1488,21.2638,21.3049,21.326,21.326,21.326,21.326,21.326,21.326,21.2063,21.15,21.4586,21.7132,21.908,22.1179,22.1039,22.0628,22.2165,22.2165,22.1954,22.2364,22.2939,22.3386,22.3386,22.2952,22.2153,22.1192,22.0218,21.908,21.8106,21.7895,21.8458,22.0065,21.9291,21.9643,22.2388,22.1602,22.1391,22.26,22.2587,22.2587,22.2587,22.2587,22.2587,22.2587,22.2587,22.2587,22.2587,22.2587,22.2587,22.2587,22.2587,22.2587,22.2587,22.2587,22.2587,17.7595,17.846,17.846,17.846,17.9736,18.0084,17.6864,17.8657,17.9976,17.6305,17.8153,17.9639,17.7214,18.3119,18.6723,18.1637,18.734,19.1857,19.0308,19.0096,19.1223,19.437,19.3395,19.3043,19.457,19.4792,19.4792,19.4792,19.6108,19.7115,19.7115,19.8637,19.8686,19.7094,20.155,20.3099,20.155,20.3099,20.3944,20.3944,20.2336,20.2325,20.3885,20.2336,20.2384,20.3933,20.5645,20.7182,20.8356,20.6808,20.7241,20.8356,20.6819,20.6256,20.6608,20.974,21.0878,21.1089,21.2626,21.326,21.326,21.326,21.326,21.326,21.326,21.2063,21.1664,21.4821,21.7907,22.0206,22.0206,22.0206,22.0628,22.2165,22.1391,22.0616,22.2153,22.3738,22.4889,22.4889,22.3751,22.2587,22.2587,22.0065,21.7895,21.7895,21.7895,21.8458,22.0065,22.0206,22.084,22.2376,22.2587,22.2587,22.2587,22.2587,22.2587,22.2587,22.2587,22.2587,22.2587,22.2587,22.2587,22.2587,22.2587,22.2587,22.2587,22.2587,22.2587,22.2587,22.2587,22.2587,17.7881,17.846,17.846,17.846,17.9736,18.044,17.8237,17.945,18.0333,17.8024,17.9281,18.0472,17.9469,18.4771,18.7961,18.3937,18.7721,19.0282,18.7589,18.7969,18.9181,19.1223,19.2057,19.3043,19.457,19.4792,19.4792,19.4792,19.5133,19.5577,19.5577,19.6904,19.8112,19.8686,20.0998,20.2536,20.3158,20.3744,20.3944,20.3944,20.3533,20.3533,20.3944,20.3533,20.3522,20.3933,20.5645,20.6456,20.703,20.7582,20.8156,20.8356,20.6819,20.6808,20.8016,20.8942,20.9939,21.1089,21.2626,21.326,21.326,21.326,21.326,21.326,21.326,21.36,21.4387,21.5372,21.7907,22.0065,21.8868,21.9444,22.0628,22.2165,22.2165,22.2024,22.2364,22.2952,22.3527,22.4678,22.4525,22.3962,22.2728,22.0827,21.8881,21.6545,21.5372,21.5572,21.8317,21.8669,21.9643,22.2388,22.2587,22.2587,22.2587,22.2587,22.2587,22.2587,22.2587,22.2587,22.2587,22.2587,22.2587,22.2587,22.2587,22.2587,22.2587,22.2587,22.2587,22.2587,22.2587,22.2587,17.8023,17.846,17.846,17.846,17.9165,17.9522,17.7881,17.83,17.8728,17.7738,17.9379,18.0823,18.0441,18.5479,18.8495,18.4659,18.7811,18.9568,18.6289,18.6952,18.8135,18.904,19.0579,19.2128,19.3666,19.437,19.4792,19.4792,19.4792,19.4792,19.4792,19.6341,19.7467,19.8475,20.0035,20.135,20.2958,20.2958,20.331,20.3944,20.3944,20.3944,20.3944,20.3944,20.3944,20.3933,20.4848,20.5693,20.6244,20.6619,20.7441,20.8356,20.6819,20.6819,20.7804,20.8368,20.9142,21.0151,21.17,21.2626,21.326,21.326,21.326,21.3413,21.4035,21.4797,21.5771,21.7132,21.8881,22.0218,21.9854,22.0405,22.1391,22.2376,22.2177,22.1813,22.2364,22.3175,22.3949,22.5511,22.5888,22.5511,22.45,22.2189,21.9444,21.6921,21.4586,21.4387,21.7543,21.7895,21.908,22.2153,22.2587,22.2587,22.2587,22.2024,22.1403,22.084,22.0053,21.9432,21.8868,21.8881,21.8881,21.8881,21.8881,21.8881,21.8881,21.8881,21.9233,21.9854,22.0417,22.1039,17.8023,17.846,17.846,17.846,17.846,17.8095,17.6659,17.6293,17.6365,17.6507,17.8942,18.0974,18.0904,18.5616,18.8273,18.4445,18.758,18.9365,18.5934,18.6688,18.7643,18.7924,18.9111,19.0519,19.2057,19.3666,19.4592,19.4592,19.4803,19.4792,19.4792,19.613,19.6882,19.7105,19.8475,19.9813,20.135,20.135,20.2195,20.3744,20.3744,20.3722,20.3944,20.3944,20.3944,20.3944,20.3944,20.4707,20.5822,20.4718,20.5681,20.8004,20.6619,20.5822,20.6056,20.7804,20.8368,20.8567,21.0526,21.2075,21.326,21.326,21.3049,21.3037,21.4586,21.522,21.5994,21.8856,22.0065,22.0628,22.2024,22.2364,22.2587,22.2587,22.1378,22.084,22.2012,22.3527,22.5101,22.6484,22.6848,22.7072,22.7072,22.3163,21.9631,21.8094,21.522,21.4387,21.7543,21.7895,21.9092,22.1813,22.2165,22.2012,22.1966,22.0405,21.9092,21.7531,21.6135,21.4809,21.326,21.326,21.326,21.326,21.326,21.326,21.326,21.326,21.4035,21.536,21.6757,21.8305,17.8023,17.846,17.846,17.846,17.846,17.8318,17.8023,17.7961,17.8309,17.9656,18.0512,18.1698,18.4103,18.6589,18.7589,18.5142,18.7313,18.8497,18.6218,18.5955,18.6878,18.9322,18.884,18.89,19.0449,19.1987,19.2973,19.2973,19.4088,19.4792,19.4792,19.5155,19.5756,19.7115,19.7467,19.8242,19.9824,19.9813,20.0587,20.2136,20.2136,20.2747,20.3944,20.3944,20.3944,20.3944,20.3944,20.4085,20.4507,20.5434,20.5493,20.4848,20.4496,20.3744,20.2958,20.5681,20.683,20.7394,21.1277,21.3061,21.326,21.326,21.1477,20.9928,21.1512,21.2849,21.4187,21.5982,21.8305,22.0264,22.0616,22.1602,22.2587,22.2587,22.2376,22.1813,22.098,22.1966,22.315,22.3515,22.4513,22.5465,22.5465,22.2554,21.9631,21.8094,21.522,21.4387,21.7543,21.7895,21.8082,21.8881,21.8868,21.8458,21.7109,21.5572,21.4598,21.4234,21.4046,21.3624,21.326,21.326,21.326,21.326,21.326,21.326,21.326,21.326,21.3401,21.3835,21.4023,21.5008,17.7809,17.846,17.846,17.846,17.846,17.846,17.846,17.7881,17.7809,17.945,17.9736,18.0512,18.2928,18.5283,18.617,18.4159,18.5439,18.6279,18.5066,18.4576,18.5228,18.7572,18.7783,18.8065,18.891,19.0378,19.1635,19.2409,19.3184,19.3666,19.3666,19.437,19.5144,19.5908,19.5908,19.6693,19.8253,19.8253,19.9038,20.0598,20.0598,20.1361,20.2747,20.2747,20.3158,20.3944,20.3944,20.3944,20.3933,20.487,20.4718,20.3944,20.3944,20.2958,20.1773,20.3299,20.4507,20.5493,20.798,20.9728,21.0902,21.0902,20.9928,20.8942,21.0526,21.2087,21.3624,21.5161,21.7332,21.908,21.908,21.9631,22.0405,22.1179,22.1391,22.1391,22.1403,22.2024,22.2798,22.3527,22.4314,22.4889,22.4889,22.2342,21.9631,21.8094,21.522,21.4023,21.6569,21.6135,21.556,21.556,21.556,21.5372,21.4598,21.3061,21.1864,21.1136,21.0291,20.9517,20.8743,20.8743,20.8743,20.8743,20.8743,20.8743,20.8743,20.8743,20.9165,20.9939,21.0714,21.1852,17.6873,17.8023,17.846,17.846,17.8237,17.8104,17.8389,17.7238,17.6588,17.8104,17.846,17.896,18.0654,18.3071,18.4441,18.3144,18.3792,18.4302,18.4138,18.3568,18.376,18.5259,18.6305,18.7079,18.7361,18.8759,19.0237,19.1494,19.1635,19.1846,19.2409,19.3677,19.4592,19.4792,19.4792,19.5345,19.6693,19.6693,19.7478,19.906,19.906,19.9824,20.121,20.121,20.1995,20.3099,20.3099,20.3322,20.3522,20.3522,20.3522,20.3522,20.3333,20.2184,20.0776,20.1221,20.2184,20.351,20.4074,20.6267,20.8356,20.7582,20.7593,20.8168,20.9939,21.1512,21.2838,21.4586,21.6147,21.7109,21.7555,21.7672,21.8317,21.949,21.9854,22.0264,22.1813,22.1954,22.2165,22.3751,22.4326,22.4537,22.4537,22.2202,21.9854,21.8516,21.556,21.4023,21.536,21.4375,21.3401,21.2838,21.2638,21.2263,21.2063,21.0503,20.9177,20.7793,20.6619,20.5282,20.3933,20.3944,20.3944,20.3944,20.3944,20.3944,20.3944,20.3944,20.4496,20.5833,20.7241,20.8579,17.393,17.6365,17.846,17.846,17.7453,17.6802,17.8166,17.7238,17.6588,17.8104,17.846,17.896,18.0654,18.1288,18.2249,18.4391,18.482,18.5136,18.563,18.4482,18.4041,18.53,18.4454,18.4232,18.5611,18.715,18.8135,18.8417,18.8417,18.9604,19.2339,19.2621,19.3395,19.4803,19.4792,19.4944,19.5155,19.5155,19.5929,19.7478,19.7478,19.8264,19.9601,19.9601,19.9835,20.0046,20.0046,20.0809,20.1995,20.1995,20.1995,20.1773,20.0609,19.9038,19.789,19.926,20.0587,20.2347,20.5082,20.7019,20.8016,20.3885,20.3299,20.5059,20.8016,20.899,20.9764,21.2673,21.36,21.4175,21.5583,21.6921,21.7883,21.8082,21.8317,21.8669,22.0206,21.9432,21.9092,22.0641,22.1966,22.2964,22.2964,22.1391,22.0218,22.0077,21.7344,21.5372,21.5583,21.536,21.4246,21.1512,20.9928,20.8567,20.7241,20.5693,20.4707,20.4496,20.4285,20.4074,20.3944,20.3944,20.3944,20.3944,20.3944,20.3944,20.3944,20.3944,20.4096,20.4307,20.4518,20.5259,17.2638,17.5437,17.7381,17.8246,17.731,17.6293,17.7016,17.5937,17.5,17.5723,17.6516,17.7372,17.8086,17.8942,17.9976,18.1169,18.1164,18.1372,18.2264,18.163,18.1549,18.2674,18.2955,18.3378,18.4031,18.553,18.6798,18.7713,18.7783,18.8417,18.9744,19.1494,19.2761,19.3465,19.4299,19.4792,19.4792,19.4792,19.5155,19.5767,19.5767,19.6541,19.8101,19.8101,19.8627,19.9412,19.9412,19.9835,20.0387,20.0387,19.9802,19.9027,19.8475,19.7115,19.5929,19.6493,19.7679,19.9216,20.0624,20.2184,20.3122,20.1009,20.1995,20.4074,20.547,20.7816,20.9928,21.0503,21.1289,21.1852,21.1688,21.2826,21.4246,21.5008,21.5924,21.6968,21.8669,21.8293,21.8293,21.9842,22.1378,22.2587,22.2587,22.1179,22.0206,22.0206,21.8305,21.6123,21.4375,21.2673,21.0691,20.8602,20.6819,20.5693,20.5082,20.4296,20.3522,20.277,20.2536,20.2184,20.135,20.1361,20.1361,20.1361,20.1361,20.1361,20.1361,20.1361,20.1773,20.2536,20.2536,20.3533,16.9364,17.2504,17.4866,17.7238,17.6944,17.6222,17.6588,17.5509,17.4358,17.4358,17.5286,17.6008,17.558,17.6445,17.7524,17.8389,17.822,17.8456,17.9614,17.9413,17.9426,18.0206,18.1255,18.211,18.2462,18.3961,18.536,18.6649,18.699,18.7361,18.7783,18.9956,19.1434,19.1846,19.3384,19.4159,19.4159,19.4581,19.4792,19.4792,19.4792,19.5345,19.6552,19.6552,19.7115,19.8285,19.8285,19.8486,19.8838,19.8838,19.8486,19.7679,19.7327,19.6319,19.5355,19.4944,19.5767,19.7115,19.6693,19.7278,19.8275,19.8686,20.0787,20.3299,20.3722,20.6631,20.9517,20.879,20.9165,20.9529,20.879,20.9353,21.0503,21.1688,21.2885,21.4387,21.6346,21.6768,21.7332,21.9291,22.0628,22.1614,22.1966,22.1403,22.0616,22.0264,21.8868,21.6909,21.4175,21.1488,20.8931,20.703,20.5493,20.4074,20.3299,20.331,20.277,20.1161,20.0998,20.0598,19.9412,19.9412,19.9412,19.9412,19.9412,19.9412,19.9412,19.9412,20.0046,20.0998,20.0998,20.155,16.1802,16.6011,17.0577,17.5081,17.6151,17.6507,17.7952,17.7096,17.6008,17.6008,17.6079,17.5651,17.4136,17.3993,17.5,17.8112,17.8523,17.8862,18.0172,17.9916,17.9503,17.9163,17.8846,17.9234,18.0783,18.2322,18.3398,18.3858,18.4969,18.6174,18.7713,18.7924,18.8688,19.0167,19.1705,19.255,19.255,19.4018,19.4792,19.4792,19.4792,19.4781,19.4944,19.4944,19.4944,19.4993,19.4993,19.5929,19.7327,19.7327,19.8052,19.9212,19.7679,19.7115,19.6742,19.5355,19.5767,19.6904,19.5345,19.4944,19.5133,19.6682,19.9227,20.1984,20.3533,20.5059,20.683,20.8156,20.7593,20.6819,20.8215,20.8567,20.879,20.8778,20.8931,20.9776,21.2838,21.3471,21.4387,21.7555,21.8106,21.8669,22.0053,22.1614,22.1954,22.0405,21.8868,21.7332,21.556,21.4035,21.1852,20.8778,20.703,20.4848,20.1984,20.1773,20.0998,19.9623,19.9634,19.9471,19.9412,19.9412,19.9412,19.9412,19.9412,19.9412,19.9412,19.9412,19.9412,19.9634,19.9634,19.9634,16.0161,16.3364,16.6217,17.2932,17.3868,17.3234,17.3814,17.3528,17.31,17.31,17.3939,17.443,17.3842,17.294,17.302,17.5152,17.4661,17.4753,17.6927,17.7093,17.7219,17.7831,17.8643,17.9387,17.9953,18.0509,18.1238,18.2101,18.3516,18.4878,18.6184,18.8206,18.904,18.8628,19.1082,19.1987,19.0931,19.248,19.3254,19.3325,19.4299,19.4792,19.4792,19.4792,19.4792,19.4792,19.4792,19.5155,19.5556,19.5556,19.5919,19.6352,19.5767,19.5556,19.5567,19.4933,19.5144,19.5567,19.4933,19.4792,19.4781,19.5345,19.7689,20.0376,20.1984,20.4307,20.6408,20.6808,20.6608,20.6033,20.5693,20.6244,20.7019,20.7019,20.7793,20.8931,20.9905,21.0291,21.0925,21.3049,21.4246,21.536,21.6897,21.8504,21.9444,21.8881,21.732,21.5771,21.4234,21.1911,20.9764,20.879,20.5434,20.2747,20.155,20.0809,19.9623,19.8052,19.789,19.7478,19.6503,19.6514,19.6514,19.6514,19.6514,19.6514,19.6514,19.6514,19.6915,19.789,19.789,19.8475,15.3891,15.6959,15.9805,16.6574,16.8659,16.9247,16.9746,16.9898,17.0032,17.0531,17.1941,17.3003,17.3003,17.2164,17.1816,17.286,17.2164,17.2087,17.3893,17.4944,17.5841,17.659,17.7932,17.8841,17.8841,17.945,18.0121,18.0909,18.2303,18.3604,18.4767,18.6841,18.7636,18.7019,18.9533,19.0378,18.9322,19.0871,19.1635,19.1705,19.3254,19.4018,19.4018,19.4592,19.4792,19.4792,19.4792,19.4792,19.4792,19.4792,19.4792,19.4792,19.4792,19.4792,19.4792,19.4792,19.4792,19.4792,19.4792,19.4792,19.4792,19.4792,19.6493,19.8827,20.0376,20.2536,20.4696,20.527,20.5493,20.5282,20.4074,20.4707,20.5493,20.5493,20.6256,20.7182,20.757,20.7804,20.8215,20.9717,21.0913,21.211,21.3835,21.5372,21.6557,21.7132,21.6123,21.4586,21.2063,20.9928,20.8356,20.7793,20.5082,20.2547,20.1009,20.0046,19.8475,19.6552,19.6341,19.5929,19.4781,19.4792,19.4792,19.4792,19.4792,19.4792,19.4792,19.4792,19.5366,19.6341,19.6341,19.6915,14.2861,14.67,15.1394,15.6111,16.0748,16.4538,16.6053,16.6481,16.6972,16.8588,17.0166,17.1316,17.1316,17.1388,17.1459,17.1388,17.1388,17.1459,17.1459,17.3777,17.546,17.5451,17.6484,17.7186,17.7186,17.8938,18.0064,18.0126,18.1246,18.2396,18.3604,18.3725,18.4182,18.536,18.6889,18.7723,18.7713,18.9252,19.0026,19.0026,19.1635,19.2409,19.248,19.4018,19.4803,19.457,19.457,19.457,19.457,19.457,19.457,19.4803,19.4803,19.4803,19.4792,19.457,19.457,19.457,19.457,19.457,19.457,19.457,19.5718,19.7267,19.8838,20.0398,20.1762,20.3533,20.3944,20.3944,20.3944,20.3944,20.3944,20.3944,20.3944,20.4285,20.5845,20.6267,20.6608,20.8156,20.8415,20.8931,21.0526,21.2075,21.3612,21.5161,21.536,21.3647,20.913,20.8567,20.8016,20.6467,20.6267,20.4307,19.9835,19.9423,19.8063,19.4933,19.4792,19.4792,19.4792,19.4792,19.4792,19.4792,19.4792,19.4792,19.4792,19.4792,19.4792,19.4792,19.4792,19.4792,14.3332,14.5059,14.6636,15.2622,15.5048,15.6411,15.7989,15.9202,16.082,16.3514,16.6171,16.8042,16.8042,16.9889,17.1094,16.9952,17.0745,17.1459,17.1459,17.2078,17.3008,17.4131,17.5539,17.5976,17.4828,17.6278,17.7579,17.842,17.9874,18.1194,18.2345,18.351,18.4174,18.4202,18.5684,18.6399,18.6104,18.7643,18.8407,18.8488,19.1153,19.2409,19.248,19.2891,19.248,19.1424,19.1424,19.1424,19.1424,19.1424,19.2057,19.3103,19.3103,19.3807,19.4592,19.2198,19.1424,19.1424,19.1424,19.1424,19.1424,19.1424,19.1705,19.2761,19.6552,19.8112,19.9076,20.297,20.3944,20.3944,20.3944,20.3944,20.3944,20.3944,20.3944,20.4096,20.4507,20.4496,20.4707,20.5059,20.6033,20.703,20.7382,20.879,20.9905,21.0491,21.055,21.0139,20.879,20.8567,20.8016,20.6467,20.4307,20.1995,19.9623,19.8486,19.6904,19.4944,19.4792,19.4792,19.4792,19.4792,19.4792,19.4792,19.4792,19.4792,19.4792,19.4792,19.4792,19.4792,19.4792,19.4792,13.6911,13.7132,13.7638,14.264,14.4424,14.5986,15.0203,15.183,15.3606,15.7458,16.0677,16.3476,16.5474,16.7249,16.9096,17.0791,17.0166,16.9969,17.1253,17.1459,17.1816,17.2718,17.3582,17.3805,17.286,17.4216,17.5404,17.6092,17.7587,17.8981,18.02,18.1743,18.2611,18.2746,18.4407,18.4724,18.3478,18.5834,18.6609,18.5862,18.897,19.0519,19.0519,19.1142,19.0941,19.0096,19.0096,19.0096,19.0096,19.0096,19.066,19.1494,19.1494,19.1987,19.2621,19.0801,19.0096,19.0096,19.0096,19.0096,19.0096,19.0096,19.0096,19.0871,19.4944,19.6531,19.7879,20.1751,20.3299,20.3944,20.3944,20.3944,20.3944,20.3944,20.3944,20.3944,20.3944,20.3944,20.3944,20.3944,20.4718,20.5282,20.5282,20.6619,20.7382,20.6596,20.6608,20.6608,20.6608,20.6608,20.6244,20.5259,20.3744,20.1784,19.9623,19.8052,19.6552,19.4944,19.4792,19.4792,19.4792,19.3525,19.3103,19.3807,19.255,19.2198,19.2832,19.2832,19.2832,19.2832,19.2832,19.2832,12.6637,12.6125,12.7065,12.9802,13.1716,13.4628,0.0,14.3254,14.4894,14.9697,15.3471,15.7323,16.2032,16.3459,16.5885,17.179,16.939,16.7908,17.1031,17.1316,17.1102,17.0968,17.0888,17.0968,17.1174,17.2583,17.3494,17.3494,17.4929,17.642,17.763,17.8972,18.0204,18.1206,18.2898,18.2837,18.0853,18.3959,18.4736,18.3237,18.6145,18.7644,18.7926,18.9202,18.9885,18.9815,18.9674,18.9604,18.9604,18.9604,18.9674,18.9885,18.9885,18.9533,18.903,18.903,18.903,18.903,18.903,18.9181,18.9312,18.91,18.9322,19.0167,19.3325,19.5355,19.7327,20.0435,20.2336,20.3299,20.3299,20.3299,20.3533,20.351,20.3744,20.3744,20.3885,20.3944,20.3944,20.3944,20.3944,20.3944,20.3944,20.5059,20.5481,20.4085,20.3944,20.3944,20.3944,20.3944,20.3944,20.3944,20.3944,20.2747,20.0187,19.8242,19.6693,19.5144,19.4803,19.4592,19.4592,19.1705,19.0801,19.2128,18.9252,18.8477,18.9885,18.9674,18.9674,18.9885,18.9885,18.9674,0.0,0.0,0.0,0.0,0.0,0.0,0.0,12.87,13.191,13.6626,14.2069,14.7485,15.2171,15.7244,16.1906,16.5671,16.6536,16.7908,17.1031,17.038,16.9096,16.7828,16.7694,16.8185,16.9444,17.0951,17.1879,17.1879,17.336,17.4894,17.6393,17.675,17.7961,18.034,18.0822,18.1043,18.1216,18.2242,18.303,18.3566,18.5472,18.7015,18.8265,18.822,18.8196,18.8135,18.6868,18.6385,18.6385,18.6385,18.7079,18.8196,18.8196,18.5943,18.2613,18.2613,18.2613,18.2613,18.2613,18.3448,18.4293,18.2955,18.4313,18.6938,19.0096,19.2128,19.424,19.8637,20.0035,20.0246,20.0246,20.0246,20.0598,20.1773,20.1973,20.2325,20.3744,20.3944,20.3944,20.3944,20.3944,20.3944,20.3944,20.4074,20.4296,20.3933,20.3944,20.3944,20.3944,20.3944,20.3944,20.3944,20.3944,20.3744,20.311,20.0598,19.8264,19.6682,19.4299,19.2891,19.2891,19.1082,19.0237,19.0579,18.8699,18.7924,18.8196,18.6938,18.7009,18.8196,18.8196,18.6848,0.0,0.0,0.0,0.0,0.0,0.0,0.0,0.0,0.0,0.0,0.0,13.7709,14.2412,0.0,15.3351,15.8917,16.1121,16.3468,16.7392,16.7233,16.6456,16.5688,16.6338,16.7115,16.7891,16.9381,17.0309,17.0309,17.1727,17.294,17.3734,17.451,17.5476,17.6669,17.8415,17.8986,17.8167,18.084,18.2055,18.1663,18.3271,18.4393,18.5152,18.4955,18.5169,18.5674,18.4062,18.373,18.4243,18.3478,18.3539,18.4243,18.4243,18.2835,18.0773,18.0773,18.0773,18.0773,18.0773,18.1266,18.1829,18.1055,18.1849,18.3549,18.5922,18.8256,19.0941,19.4743,19.7078,19.8475,19.9271,19.9412,19.9623,20.0398,20.0609,20.0809,20.1584,20.0987,20.0787,20.1584,20.1795,20.1936,20.2536,20.2136,20.2136,20.3744,20.3944,20.3944,20.3944,20.3944,20.3944,20.3944,20.3944,20.351,20.2747,20.1361,19.9249,19.613,19.2973,19.1283,19.1283,18.904,18.7783,18.7783,18.545,18.4243,18.4243,18.3478,18.3539,18.4243,18.1859,18.038,0.0,0.0,0.0,0.0,0.0,0.0,0.0,0.0,0.0,0.0,0.0,0.0,0.0,0.0,0.0,15.1995,15.5341,15.8544,16.2968,16.2754,16.2486,16.3297,16.4629,16.5553,16.583,16.7312,16.8374,16.8659,16.9818,17.0817,17.1388,17.2655,17.3293,17.3298,17.6082,17.6617,17.4617,17.8782,18.0346,17.9308,0.0,0.0,18.2045,18.196,18.2448,18.3268,18.2006,18.2022,18.2763,18.1425,18.0892,18.0761,17.9643,17.9179,17.9179,17.9179,17.9179,17.9169,17.909,17.9272,17.9464,17.9103,17.9365,18.0149,18.1759,18.4373,0.0,19.0649,19.3606,19.6141,19.7289,19.7663,19.7874,19.8497,19.8475,19.8627,19.9271,19.8264,19.7467,19.8686,19.8686,19.9038,20.0787,19.9601,19.9461,20.2184,20.3099,20.3533,20.3533,20.3933,20.4307,20.3933,20.3744,20.2958,20.1784,20.0987,19.9076,19.5577,19.2268,19.0167,18.9262,18.6224,18.4404,18.4122,18.1004,17.9445,17.9445,17.9154,17.9154,17.9305,17.3692,17.2284,0.0,0.0,0.0,0.0,0.0,0.0,0.0,0.0,0.0,0.0,0.0,0.0,0.0,0.0,0.0,0.0,15.1559,15.6562,15.9844,15.6768,15.5467,15.9194,16.0164,16.1121,16.2524,16.4022,16.5537,16.6901,16.7194,16.8542,17.1316,17.1602,0.0,0.0,0.0,17.4024,17.3415,17.4328,17.5896,17.8028,17.8195,17.9768,18.2417,18.2102,18.2044,18.2138,18.1996,18.1968,18.2042,18.1543,18.1326,18.079,17.5577,17.353,17.353,17.353,17.353,17.3484,17.3115,0.0,0.0,17.3054,17.4367,17.6921,17.853,18.1125,18.4293,18.7421,18.9533,19.0931,19.1153,19.1153,19.1857,19.4581,19.5366,19.6151,19.8849,19.8264,19.7094,19.7316,19.6352,19.6303,19.9271,19.7289,19.5929,19.7679,20.0224,20.1762,20.1762,20.4296,20.5493,20.4096,20.277,0.0,20.1562,19.9076,19.7305,19.6904,19.3877,19.0308,18.6174,18.2975,18.0642,17.9244,17.6146,17.4607,17.4537,17.317,17.3231,17.4326,16.5613,16.3844,0.0,0.0,0.0,0.0,0.0,0.0,0.0,0.0,0.0,0.0,0.0,0.0,0.0,0.0,0.0,0.0,14.0835,14.5874,14.6768,14.9101,15.1418,15.3255,15.5588,15.7347,15.7981,16.1105,16.338,16.403,16.4895,16.6393,16.8613,16.8756,16.9461,17.0997,17.1941,17.2372,17.2163,17.3211,17.4343,17.5486,17.5459,17.6172,17.7463,17.7284,17.7583,17.8163,17.7249,17.7263,17.7811,17.6722,17.6312,0.0,0.0,0.0,0.0,0.0,17.2603,17.2585,17.2413,17.2773,17.3232,17.2368,17.302,17.4193,17.4585,17.6263,17.8462,18.044,18.2131,18.375,18.557,18.6707,18.7924,19.0167,19.1424,19.2409,19.3768,19.2068,19.0871,19.2691,19.1776,0.0,19.1244,19.0248,19.0801,19.5155,19.6915,19.8253,20.0024,20.135,20.1995,20.1373,20.082,20.0398,20.0398,19.8242,0.0,0.0,0.0,18.896,18.4303,18.2825,0.0,0.0,0.0,0.0,0.0,0.0,0.0,0.0,15.8766,15.7701,0.0,0.0,0.0,0.0,0.0,0.0,0.0,0.0,0.0,0.0,0.0,0.0,0.0,0.0,0.0,0.0,13.1999,13.7452,13.5902,14.1491,14.6068,14.6865,15.0447,15.2721,15.2277,15.6879,16.0115,16.0609,16.2359,16.4126,16.5802,16.5921,16.6547,16.7812,16.9318,17.0183,17.0183,17.1719,17.2709,17.3146,17.3146,17.336,17.3779,17.3779,17.4273,17.5015,17.3832,17.3806,17.4515,17.3298,17.2765,17.2641,17.1027,17.0352,17.0352,17.0352,17.0645,17.1062,17.1382,17.1772,17.21,17.2001,17.2258,17.27,17.2832,17.365,17.4778,17.6057,17.7523,17.9267,18.1395,18.3146,18.4686,18.6174,18.7703,18.897,18.9392,18.7361,18.6104,18.8417,18.6164,18.384,18.3549,18.3488,18.5671,19.1916,19.3606,0.0,19.8497,19.9461,19.9824,19.9412,19.906,19.8849,19.8849,19.6904,19.457,19.1987,18.9956,18.7129,18.3227,18.1899,17.9375,17.5522,16.8763,16.446,0.0,0.0,0.0,0.0,0.0,0.0,0.0,0.0,0.0,0.0,0.0,0.0,0.0,0.0,0.0,0.0,0.0,0.0,0.0,0.0,0.0,0.0,0.0,0.0,13.1381,13.4319,13.7802,14.0326,14.4553,14.6629,14.5076,15.0696,15.51,15.6732,15.9235,16.1586,16.3645,16.3738,16.3992,16.457,16.6116,16.6909,16.6909,16.8454,17.0015,17.153,17.153,17.2298,17.3779,17.3779,17.377,17.3824,17.3753,17.3753,17.3781,17.3387,17.3175,17.2641,16.6923,16.4711,16.4711,16.4711,16.5647,16.7111,16.8254,16.9673,17.0883,17.0468,17.1487,17.3056,17.4464,17.4862,17.5251,17.6782,17.835,17.9489,17.923,18.0325,18.1761,18.2975,18.4464,18.6033,18.7502,18.6597,18.547,18.5611,17.9405,17.517,17.8188,17.8681,18.0793,18.7079,19.0589,0.0,19.6742,19.9639,20.1009,19.9634,19.8112,19.7094,19.7094,19.437,19.1916,19.0308,18.7291,18.4816,18.3166,17.8741,17.5522,17.3903,16.9256,16.3887,15.7895,0.0,0.0,0.0,0.0,0.0,0.0,0.0,0.0,0.0,0.0,0.0,0.0,0.0,0.0,0.0,0.0,0.0,0.0,0.0,0.0,0.0,0.0,0.0,0.0,12.991,13.345,13.8256,13.8977,13.9117,13.9179,14.3992,14.7799,14.9482,15.3393,15.6938,15.977,15.9283,15.9994,16.2331,16.3249,16.3665,16.3665,16.5243,16.6313,16.6813,16.6813,16.7098,16.7661,16.8668,16.9104,16.9176,17.0229,17.0086,16.9167,16.8978,16.7707,16.5561,16.2563,16.1335,16.1335,16.1335,16.2326,16.372,16.4168,16.5988,16.8332,16.9193,16.9863,17.0389,17.0661,17.1426,17.2278,17.2595,17.3037,17.387,17.5787,17.6526,17.732,17.9807,18.1404,18.2201,18.1718,18.038,17.9254,17.9254,17.5433,17.1979,17.1236,17.3492,17.6515,17.994,18.376,18.8516,19.4792,19.5577,19.6141,19.7679,19.6552,19.5144,19.4088,19.1153,18.8699,18.7079,18.4112,18.1215,17.8601,17.6921,17.4386,17.0777,16.9238,16.2911,15.1444,0.0,0.0,0.0,0.0,0.0,0.0,0.0,0.0,0.0,0.0,0.0,0.0,0.0,0.0,0.0,0.0,0.0,0.0,0.0,0.0,0.0,0.0,0.0,0.0,0.0,0.0,13.4049,13.3164,0.0,13.2161,13.5715,13.8452,13.9564,14.4444,14.9111,15.3165,15.3358,15.4762,15.7829,15.9357,15.9966,15.9615,16.1747,16.2754,16.2825,16.3388,16.3594,16.3665,16.5251,16.5973,16.5973,16.7027,16.6884,16.5759,16.3555,16.0756,15.7799,15.6816,15.6396,15.6396,15.6396,15.7752,15.9678,16.0241,16.2104,16.4697,16.7392,16.7518,16.6541,16.6316,16.5759,16.5415,16.6325,16.6967,16.8078,17.108,17.2036,17.2887,17.5164,17.6663,17.7499,17.688,17.6015,17.4636,17.2586,17.0448,16.8495,16.6824,16.9308,17.2478,17.5446,17.9155,18.4445,19.2149,19.2691,19.3243,19.5133,19.4592,19.3314,19.1705,18.9252,18.6647,18.3981,18.1356,17.8309,17.4588,17.3884,17.142,16.6774,16.5647,15.9602,0.0,0.0,0.0,0.0,0.0,0.0,0.0,0.0,0.0,0.0,0.0,0.0,0.0,0.0,0.0,0.0,0.0,0.0,0.0,0.0,0.0,0.0,0.0,0.0,0.0,0.0,0.0,12.7559,12.682,0.0,0.0,0.0,0.0,12.7571,13.2977,13.8524,14.3815,14.5827,14.8095,15.1016,15.4289,15.5537,15.4735,15.7852,15.9384,15.9337,16.0947,16.1716,16.1731,16.3381,16.4207,16.4207,16.427,16.4199,16.3548,15.7156,15.2622,14.9795,14.9517,14.9517,14.9517,14.9445,15.1544,15.4643,15.619,15.7902,16.0122,16.4411,16.3824,16.1366,16.116,15.7966,0.0,0.0,16.0463,16.2292,16.5239,16.7042,16.8399,16.9426,17.0737,17.2119,17.3121,17.3368,17.1552,0.0,16.4245,16.4067,16.4071,0.0,16.8247,17.2899,17.6482,18.143,18.9043,19.1374,19.2409,19.2621,19.255,19.1776,19.0237,18.8477,18.545,18.0924,17.9023,17.6057,17.1532,16.9641,16.6553,16.2013,15.8678,0.0,0.0,0.0,0.0,0.0,0.0,0.0,0.0,0.0,0.0,0.0,0.0,0.0,0.0,0.0,0.0,0.0,0.0,0.0,0.0,0.0,0.0,0.0,0.0,0.0,0.0,11.3851,11.515,12.0566,11.7268,11.4608,0.0,0.0,0.0,0.0,0.0,0.0,13.1593,13.4843,13.8121,14.1272,14.6108,14.8802,14.9035,15.2891,15.4145,15.275,15.506,15.5813,15.5293,15.8794,16.0424,16.0496,16.1618,16.0826,15.7983,14.9736,14.5137,14.2968,13.9472,13.8837,13.97,13.8545,14.0842,14.4773,14.635,15.0275,15.4413,15.3129,15.2194,15.0902,14.7399,0.0,0.0,0.0,0.0,15.6373,16.1769,16.3258,16.4281,16.7912,16.8713,16.8424,16.7836,16.7316,16.485,0.0,15.6569,15.5307,15.0881,0.0,0.0,0.0,0.0,17.7484,18.7488,18.9922,19.2057,19.5567,19.3807,19.1776,19.0237,18.551,18.1557,17.9164,17.5423,17.2246,16.9932,16.5023,16.0667,15.7208,0.0,0.0,0.0,0.0,0.0,0.0,0.0,0.0,0.0,0.0,0.0,0.0,0.0,0.0,0.0,0.0,0.0,0.0,0.0,0.0,0.0,0.0,0.0,0.0,0.0,0.0,0.0,10.9626,11.1333,11.5558,11.1593,10.858,0.0,0.0,0.0,0.0,0.0,0.0,0.0,0.0,0.0,13.3428,13.6575,13.9509,14.2348,14.5394,14.6636,14.6326,14.9202,15.0108,14.9314,15.3552,15.499,15.4272,15.6305,15.3859,14.7976,14.1024,13.6609,13.3864,0.0,0.0,0.0,0.0,13.0853,13.4006,13.5569,13.8494,14.1484,14.1698,0.0,0.0,0.0,0.0,0.0,0.0,0.0,0.0,0.0,0.0,15.8702,16.2515,16.3087,16.2676,16.2352,15.8364,15.3813,0.0,14.9235,14.7596,14.3685,0.0,0.0,0.0,0.0,17.31,18.3888,18.7506,19.0589,19.457,19.2268,18.9744,18.8206,18.2352,17.8047,17.6498,17.2054,16.7882,16.438,16.0174,15.4541,0.0,0.0,0.0,0.0,0.0,0.0,0.0,0.0,0.0,0.0,0.0,0.0,0.0,0.0,0.0,0.0,0.0,0.0,0.0,0.0,0.0,0.0,0.0,0.0,0.0,0.0,0.0,0.0,0.0,10.9785,11.0674,0.0,0.0,0.0,0.0,0.0,0.0,0.0,0.0,0.0,0.0,0.0,0.0,0.0,12.9588,13.4968,13.6534,13.7929,13.9297,14.2639,14.3898,14.3357,14.7339,14.8453,14.7271,14.8256,0.0,13.6509,13.1838,0.0,0.0,0.0,0.0,0.0,0.0,0.0,0.0,0.0,0.0,0.0,0.0,0.0,0.0,0.0,0.0,0.0,0.0,0.0,0.0,0.0,0.0,15.1841,15.4454,15.5561,15.5638,0.0,14.7159,14.1219,14.2342,14.1322,0.0,0.0,0.0,0.0,0.0,0.0,0.0,17.889,18.4435,18.8699,19.1776,18.9322,18.6938,18.5541,17.9536,17.5241,17.3833,16.8693,16.3192,15.7543,15.5009,0.0,0.0,0.0,0.0,0.0,0.0,0.0,0.0,0.0,0.0,0.0,0.0,0.0,0.0,0.0,0.0,0.0,0.0,0.0,0.0,0.0,0.0,0.0,0.0,0.0,0.0,0.0,0.0,0.0,0.0,0.0,0.0,0.0,0.0,0.0,0.0,0.0,0.0,0.0,0.0,0.0,0.0,0.0,0.0,0.0,0.0,0.0,0.0,0.0,0.0,13.3319,13.5405,13.5866,13.8734,14.1358,14.3166,13.5533,13.1712,13.0297,12.356,0.0,0.0,0.0,0.0,0.0,0.0,0.0,0.0,0.0,0.0,0.0,0.0,0.0,0.0,0.0,0.0,0.0,0.0,0.0,0.0,0.0,0.0,0.0,0.0,14.8464,14.7923,13.6317,0.0,0.0,0.0,0.0,0.0,0.0,0.0,0.0,0.0,0.0,0.0,17.2881,18.0997,18.709,19.0167,18.7713,18.5752,18.547,17.856,17.4044,17.3772,16.4662,15.8176,0.0,0.0,0.0,0.0,0.0,0.0,0.0,0.0,0.0,0.0,0.0,0.0,0.0,0.0,0.0,0.0,0.0,0.0,0.0,0.0,0.0,0.0,0.0,0.0,0.0,0.0,0.0,0.0,0.0,0.0,0.0,0.0,0.0,0.0,0.0,0.0,0.0,0.0,0.0,0.0,0.0,0.0,0.0,0.0,0.0,0.0,0.0,0.0,0.0,0.0,0.0,0.0,0.0,0.0,0.0,0.0,0.0,0.0,0.0,11.9788,0.0,0.0,0.0,0.0,0.0,0.0,0.0,0.0,0.0,0.0,0.0,0.0,0.0,0.0,0.0,0.0,0.0,0.0,0.0,0.0,0.0,0.0,0.0,0.0,0.0,0.0,0.0,0.0,0.0,0.0,0.0,0.0,0.0,0.0,0.0,0.0,0.0,0.0,0.0,0.0,17.0104,17.9092,18.5966,18.9695,18.6566,18.4243,18.4243,17.7052,17.1218,16.7998,16.0015,0.0,0.0,0.0,0.0,0.0,0.0,0.0,0.0,0.0,0.0,0.0,0.0,0.0,0.0,0.0,0.0,0.0,0.0,0.0,0.0,0.0,0.0,0.0,0.0,0.0,0.0,0.0,0.0,0.0,0.0,0.0,0.0,0.0,0.0,0.0,0.0,0.0,0.0,0.0,0.0,0.0,0.0,0.0,0.0,0.0,0.0,0.0,0.0,0.0,0.0,0.0,0.0,0.0,0.0,0.0,0.0,0.0,0.0,0.0,11.5758,0.0,0.0,0.0,0.0,0.0,0.0,0.0,0.0,0.0,0.0,0.0,0.0,0.0,0.0,0.0,0.0,0.0,0.0,0.0,0.0,0.0,0.0,0.0,0.0,0.0,0.0,0.0,0.0,0.0,0.0,0.0,0.0,0.0,0.0,0.0,0.0,0.0,0.0,0.0,0.0,0.0,16.7632,17.7346,18.4865,18.8918,18.5492,18.2703,18.2251,17.5398,16.8504,16.2314,15.468,0.0,0.0,0.0,0.0,0.0,0.0,0.0,0.0,0.0,0.0,0.0,0.0,0.0,0.0,0.0,0.0,0.0,0.0,0.0,0.0,0.0,0.0,0.0,0.0,0.0,0.0,0.0,0.0,0.0,0.0,0.0,0.0,0.0,0.0,0.0,0.0,0.0,0.0,0.0,0.0,0.0,0.0,0.0,0.0,0.0,0.0,0.0,0.0,0.0,0.0,0.0,0.0,0.0,0.0,0.0,0.0,0.0,0.0,0.0,0.0,0.0,0.0,0.0,0.0,0.0,0.0,0.0,0.0,0.0,0.0,0.0,0.0,0.0,0.0,0.0,0.0,0.0,0.0,0.0,0.0,0.0,0.0,0.0,0.0,0.0,0.0,0.0,0.0,0.0,0.0,0.0,0.0,0.0,0.0,0.0,0.0,0.0,0.0,0.0,0.0,0.0,16.3402,17.4823,18.331,18.6582,18.398,18.1357,17.9548,17.3667,16.7354,16.0983,0.0,0.0,0.0,0.0,0.0,0.0,0.0,0.0,0.0,0.0,0.0,0.0,0.0,0.0,0.0,0.0,0.0,0.0,0.0,0.0,0.0,0.0,0.0,0.0,0.0,0.0,0.0,0.0,0.0,0.0,0.0,0.0,0.0,0.0,0.0,0.0,0.0,0.0,0.0,0.0,0.0,0.0,0.0,0.0,0.0,0.0,0.0,0.0,0.0,0.0,0.0,0.0,0.0,0.0,0.0,0.0,0.0,0.0,0.0,0.0,0.0,0.0,0.0,0.0,0.0,0.0,0.0,0.0,0.0,0.0,0.0,0.0,0.0,0.0,0.0,0.0,0.0,0.0,0.0,0.0,0.0,0.0,0.0,0.0,0.0,0.0,0.0,0.0,0.0,0.0,0.0,0.0,0.0,0.0,0.0,0.0,0.0,0.0,0.0,0.0,0.0,0.0,16.1336,17.3229,18.2367,18.6213,18.4653,18.2257,17.9597,17.4571,16.6837,15.5807,0.0,0.0,0.0,0.0,0.0,0.0,0.0,0.0,0.0,0.0,0.0,0.0,0.0,0.0,0.0,0.0,0.0,0.0,0.0,0.0,0.0,0.0,0.0,0.0,0.0,0.0,0.0,0.0,0.0,0.0,0.0,0.0,0.0,0.0,0.0,0.0,0.0,0.0,0.0,0.0,0.0,0.0,0.0,0.0,0.0,0.0,0.0,0.0,0.0,0.0,0.0,0.0,0.0,0.0,0.0,0.0,0.0,0.0,0.0,0.0,0.0,0.0,0.0,0.0,0.0,0.0,0.0,0.0,0.0,0.0,0.0,0.0,0.0,0.0,0.0,0.0,0.0,0.0,0.0,0.0,0.0,0.0,0.0,0.0,0.0,0.0,0.0,0.0,0.0,0.0,0.0,0.0,0.0,0.0,0.0,0.0,0.0,0.0,0.0,0.0,0.0,0.0,15.98,17.1963,18.1196,18.5179,18.4228,18.1766,17.8025,17.3839,16.5173,15.0589,0.0,0.0,0.0,0.0,0.0,0.0,0.0,0.0,0.0,0.0,0.0,0.0,0.0,0.0,0.0,0.0,0.0,0.0,0.0,0.0,0.0,0.0,0.0,0.0,0.0,0.0,0.0,0.0,0.0,0.0,0.0,0.0,0.0,0.0,0.0,0.0,0.0,0.0,0.0,0.0,0.0,0.0,0.0,0.0,0.0,0.0,0.0,0.0,0.0,0.0,0.0,0.0,0.0,0.0,0.0,0.0,0.0,0.0,0.0,0.0,0.0,0.0,0.0,0.0,0.0,0.0,0.0,0.0,0.0,0.0,0.0,0.0,0.0,0.0,0.0,0.0,0.0,0.0,0.0,0.0,0.0,0.0,0.0,0.0,0.0,0.0,0.0,0.0,0.0,0.0,0.0,0.0,0.0,0.0,0.0,0.0,0.0,0.0,0.0,0.0,0.0,0.0,15.8544,17.0754,17.9736,18.3018,18.193,17.8933,17.3717,17.041,16.1859,0.0,0.0,0.0,0.0,0.0,0.0,0.0,0.0,0.0,0.0,0.0,0.0,0.0,0.0,0.0,0.0,0.0,0.0,0.0,0.0,0.0,0.0,0.0,0.0,0.0,0.0,0.0,0.0,0.0,0.0,0.0,0.0,0.0,0.0,0.0,0.0,0.0,0.0,0.0,0.0,0.0,0.0,0.0,0.0,0.0,0.0,0.0,0.0,0.0,0.0,0.0,0.0,0.0,0.0,0.0,0.0,0.0,0.0,0.0,0.0,0.0,0.0,0.0,0.0,0.0,0.0,0.0,0.0,0.0,0.0,0.0,0.0,0.0,0.0,0.0,0.0,0.0,0.0,0.0,0.0,0.0,0.0,0.0,0.0,0.0,0.0,0.0,0.0,0.0,0.0,0.0,0.0,0.0,0.0,0.0,0.0,0.0,0.0,0.0,0.0,0.0,0.0,0.0,15.6681,16.7249,17.6177,0.0,18.1876,17.896,17.3988,16.9791,16.1523,14.7886,0.0,0.0,0.0,0.0,0.0,0.0,0.0,0.0,0.0,0.0,0.0,0.0,0.0,0.0,0.0,0.0,0.0,0.0,0.0,0.0,0.0,0.0,0.0,0.0,0.0,0.0,0.0,0.0,0.0,0.0,0.0,0.0,0.0,0.0,0.0,0.0,0.0,0.0,0.0,0.0,0.0,0.0,0.0,0.0,0.0,0.0,0.0,0.0,0.0,0.0,0.0,0.0,0.0,0.0,0.0,0.0,0.0,0.0,0.0,0.0,0.0,0.0,0.0,0.0,0.0,0.0,0.0,0.0,0.0,0.0,0.0,0.0,0.0,0.0,0.0,0.0,0.0,0.0,0.0,0.0,0.0,0.0,0.0,0.0,0.0,0.0,0.0,0.0,0.0,0.0,0.0,0.0,0.0,0.0,0.0,0.0,0.0,0.0,0.0,0.0,0.0,0.0,0.0,16.3602,17.2672,0.0,17.7952,17.5446,17.0649,16.5957,15.7902,14.5187,0.0,0.0,0.0,0.0,0.0,0.0,0.0,0.0,0.0,0.0,0.0,0.0,0.0,0.0,0.0,0.0,0.0,0.0,0.0,0.0,0.0,0.0,0.0,0.0,0.0,0.0,0.0,0.0,0.0,0.0,0.0,0.0,0.0,0.0,0.0,0.0,0.0,0.0,0.0,0.0,0.0,0.0,0.0,0.0,0.0,0.0,0.0,0.0,0.0,0.0,0.0,0.0,0.0,0.0,0.0,0.0,0.0,0.0,0.0,0.0,0.0,0.0,0.0,0.0,0.0,0.0,0.0,0.0,0.0,0.0,0.0,0.0,0.0,0.0,0.0,0.0,0.0,0.0,0.0,0.0,0.0,0.0,0.0,0.0,0.0,0.0,0.0,0.0,0.0,0.0,0.0,0.0,0.0,0.0,0.0,0.0,0.0,0.0,0.0,0.0,0.0,0.0,0.0,16.0035,16.9159,17.0888,17.1102,16.9247,16.4681,15.9963,15.1965,13.9537,13.2708,0.0,0.0,0.0,0.0,0.0,0.0,0.0,0.0,0.0,0.0,0.0,0.0,0.0,0.0,0.0,0.0,0.0,0.0,0.0,0.0,0.0,0.0,0.0,0.0,0.0,0.0,0.0,0.0,0.0,0.0,0.0,0.0,0.0,0.0,0.0,0.0,0.0,0.0,0.0,0.0,0.0,0.0,0.0,0.0,0.0,0.0,0.0,0.0,0.0,0.0,0.0,0.0,0.0,0.0,0.0,0.0,0.0,0.0,0.0,0.0,0.0,0.0,0.0,0.0,0.0,0.0,0.0,0.0,0.0,0.0,0.0,0.0,0.0,0.0,0.0,0.0,0.0,0.0,0.0,0.0,0.0,0.0,0.0,0.0,0.0,0.0,0.0,0.0,0.0,0.0,0.0,0.0,0.0,0.0,0.0,0.0,0.0,0.0,0.0,0.0,0.0,0.0,15.6895,16.3476,16.748,16.7908,16.6473,16.2944,15.833,15.1274,14.1056,13.2274,0.0,0.0,0.0,0.0,0.0,0.0,0.0,0.0,0.0,0.0,0.0,0.0,0.0,0.0,0.0,0.0,0.0,0.0,0.0,0.0,0.0,0.0,0.0,0.0,0.0,0.0,0.0,0.0,0.0,0.0,0.0,0.0,0.0,0.0,0.0,0.0,0.0,0.0,0.0,0.0,0.0,0.0,0.0,0.0,0.0,0.0,0.0,0.0,0.0,0.0,0.0,0.0,0.0,0.0,0.0,0.0,0.0,0.0,0.0,0.0,0.0,0.0,0.0,0.0,0.0,0.0,0.0,0.0,0.0,0.0,0.0,0.0,0.0,0.0,0.0,0.0,0.0,0.0,0.0,0.0,0.0,0.0,0.0,0.0,0.0,0.0,0.0,0.0,0.0,0.0,0.0,0.0,0.0,0.0,0.0,0.0,0.0,0.0,0.0,0.0,0.0,0.0,14.4631,15.278,16.2556,16.3555,16.2049,15.818,15.2844,14.5937,13.7217,12.9867,0.0,0.0,0.0,0.0,0.0,0.0,0.0,0.0,0.0,0.0,0.0,0.0,0.0,0.0,0.0,0.0,0.0,0.0,0.0,0.0,0.0,0.0,0.0,0.0,0.0,0.0,0.0,0.0,0.0,0.0,0.0,0.0,0.0,0.0,0.0,0.0,0.0,0.0,0.0,0.0,0.0,0.0,0.0,0.0,0.0,0.0,0.0,0.0,0.0,0.0,0.0,0.0,0.0,0.0,0.0,0.0,0.0,0.0,0.0,0.0,0.0,0.0,0.0,0.0,0.0,0.0,0.0,0.0,0.0,0.0,0.0,0.0,0.0,0.0,0.0,0.0,0.0,0.0,0.0,0.0,0.0,0.0,0.0,0.0,0.0,0.0,0.0,0.0,0.0,0.0,0.0,0.0,0.0,0.0,0.0,0.0,0.0,0.0,0.0,0.0,0.0,0.0,0.0,14.1498,15.6055,15.8481,15.7268,15.2765,14.6985,14.0149,13.2092,0.0,0.0,0.0,0.0,0.0,0.0,0.0,0.0,0.0,0.0,0.0,0.0,0.0,0.0,0.0,0.0,0.0,0.0,0.0,0.0,0.0,0.0,0.0,0.0,0.0,0.0,0.0,0.0,0.0,0.0,0.0,0.0,0.0,0.0,0.0,0.0,0.0,0.0,0.0,0.0,0.0,0.0,0.0,0.0,0.0,0.0,0.0,0.0,0.0,0.0,0.0,0.0,0.0,0.0,0.0,0.0,0.0,0.0,0.0,0.0,0.0,0.0,0.0,0.0,0.0,0.0,0.0,0.0,0.0,0.0,0.0,0.0,0.0,0.0,0.0,0.0,0.0,0.0,0.0,0.0,0.0,0.0,0.0,0.0,0.0,0.0,0.0,0.0,0.0,0.0,0.0,0.0,0.0,0.0,0.0,0.0,0.0,0.0,0.0,0.0,0.0,0.0,0.0,0.0,0.0,14.6821,15.263,15.4413,15.0951,14.732,14.1341,13.217,0.0,0.0,0.0,0.0,0.0,0.0,0.0,0.0,0.0,0.0,0.0,0.0,0.0,0.0]}],[{"header":{"parameterUnit":"kt","parameterCategory":2,"dx":1,"dy":1,"la1":29.285339999999998,"la2":30.599998999999997,"lo1":-89.70041500000002,"lo2":-87.6738589999976,"nx":112,"ny":82,"refTime":"2022-09-28T06:00:00:Z","depth":0,"parameterNumber":2,"parameterNumberName":"V-component_of_WINDS"},"data":[6.8333,6.9649,7.0753,7.0635,7.2502,7.3984,7.2736,7.3276,7.4066,7.4066,7.4183,0.0,0.0,0.0,0.0,0.0,0.0,0.0,0.0,7.6347,7.6831,7.7087,7.8647,7.9813,8.0158,8.1947,8.2288,8.0439,8.1634,8.226,8.1807,8.1579,8.1721,8.2375,8.2431,8.2431,8.2431,8.2431,8.2431,8.2431,8.2659,8.2772,8.2801,8.4081,8.5305,8.6527,8.761,8.8776,9.0002,9.0002,8.9861,8.9603,8.9175,8.8746,8.8433,8.9317,8.9518,8.9345,8.9089,8.9004,8.8862,8.7778,8.7439,8.7354,8.6926,8.6811,8.6897,8.7354,8.7495,8.7522,8.8008,8.8579,8.9004,8.9004,8.9518,9.0002,9.0002,9.0002,9.0002,9.0002,9.0002,9.0002,9.0002,9.0002,9.0002,9.0002,9.0002,9.0002,9.0002,9.0002,9.0199,9.0705,9.1358,9.2296,9.3579,9.4602,9.5711,9.6962,9.6455,9.6049,9.6049,9.5488,9.5118,9.4954,9.4524,9.4211,9.4047,9.3819,9.3702,9.3734,9.4915,9.5423,6.7592,6.9053,7.0271,6.9562,7.1556,7.3322,7.1846,7.2301,7.3151,7.3379,0.0,0.0,0.0,0.0,0.0,0.0,0.0,0.0,0.0,7.6802,7.7824,7.7999,7.9361,8.0355,8.0446,8.1834,8.2146,8.0723,8.1521,8.2005,8.1777,8.1549,8.1721,8.2375,8.2431,8.2431,8.2431,8.2431,8.2431,8.2431,8.2631,8.2631,8.246,8.3939,8.5163,8.6186,8.7495,8.8776,9.0002,9.0002,9.0002,8.9947,8.9518,8.9205,8.9089,8.9774,8.9715,8.9376,8.9376,8.9062,8.8463,8.7182,8.6754,8.6669,8.6242,8.6129,8.6129,8.6129,8.6584,8.7153,8.7354,8.8206,8.9089,8.929,8.9689,9.0002,9.0002,9.0002,9.0002,9.0002,9.0002,9.0002,9.0002,9.0002,9.0002,9.0002,9.0002,9.0002,9.0002,9.0002,9.0144,9.0481,9.1076,9.1586,9.2015,9.3781,9.5488,9.6962,9.6886,9.6768,9.6768,9.6113,9.5488,9.4954,9.4759,9.436,9.3702,9.3702,9.3702,9.3734,9.472,9.526,6.677,6.8108,6.956,6.9087,7.1041,7.2874,7.2273,7.2614,7.3265,0.0,0.0,0.0,0.0,0.0,0.0,0.0,0.0,0.0,0.0,7.6575,7.8423,8.0187,8.0983,8.1154,8.0531,8.1096,8.1749,8.2346,8.1807,8.1749,8.2375,8.1777,8.1721,8.2375,8.2431,8.2431,8.2431,8.2431,8.2431,8.2431,8.3085,8.3057,8.246,8.4281,8.5474,8.6157,8.7465,8.8746,8.9971,9.0002,9.0002,9.0002,9.0002,8.9603,8.9119,8.9774,9.0002,9.0002,9.0002,8.9119,8.7837,8.6556,8.6129,8.6129,8.6129,8.6129,8.6129,8.6129,8.6613,8.7267,8.7923,8.8549,8.9205,8.9831,9.0002,9.0002,9.0002,9.0002,9.0002,9.0002,9.0002,9.0002,9.0002,9.0002,9.0002,9.0002,9.0002,9.0002,9.0002,9.0002,9.0002,9.0002,9.0481,9.079,9.079,9.2555,9.4439,9.6252,9.6995,9.7393,9.7393,9.6792,9.6134,9.5476,9.4979,9.4385,9.3734,9.3734,9.3734,9.3734,9.436,9.4954,6.5446,6.6447,6.7641,6.8158,7.0144,7.1988,7.2102,0.0,0.0,0.0,7.4059,0.0,0.0,0.0,0.0,0.0,0.0,7.6774,7.7568,7.771,7.8108,7.9075,7.9759,8.027,8.0446,8.192,8.2516,8.1777,8.2005,8.2233,8.2431,8.1777,8.1721,8.2375,8.2431,8.2431,8.2431,8.2431,8.2431,8.2431,8.3085,8.3057,8.246,8.3911,8.4906,8.5474,8.6784,8.8095,8.9345,8.9801,9.0002,9.0002,9.0002,8.9886,8.9746,8.9947,9.0002,9.0002,9.0002,8.9119,8.7837,8.6556,8.6129,8.6129,8.6129,8.6129,8.6214,8.6669,8.7265,8.792,8.8604,8.926,8.9804,8.9947,9.0002,9.0002,9.0002,9.0002,9.0002,9.0002,9.0002,9.0002,9.0002,9.0002,9.0002,9.0002,9.0002,9.0002,9.0002,9.0002,9.0002,9.0002,9.0481,9.079,9.079,9.2555,9.4104,9.5097,9.6544,9.7393,9.7393,9.7223,9.6825,9.6166,9.6024,9.5431,9.4385,9.4385,9.4157,9.3734,9.436,9.4954,0.0,0.0,0.0,0.0,0.0,0.0,7.2309,0.0,7.3013,0.0,0.0,0.0,0.0,0.0,0.0,0.0,7.7198,7.7454,7.822,7.8222,7.8419,7.9072,7.9671,8.0158,8.0446,8.1749,8.2374,8.189,8.2203,8.2431,8.2431,8.2062,8.2033,8.2375,8.2431,8.2431,8.2431,8.2687,8.2829,8.2829,8.3683,8.3825,8.3285,8.4508,8.539,8.6014,8.7038,8.8236,8.9432,8.9831,9.0002,9.0002,9.0002,9.0002,9.0002,9.0002,8.9831,8.9633,8.9916,8.9119,8.7952,8.7182,8.6555,8.6129,8.6129,8.63,8.6584,8.6982,8.7752,8.8549,8.8947,8.9518,9.0002,9.0002,9.0002,9.0002,9.0002,9.0002,9.0002,9.0002,9.0002,9.0002,9.0002,9.0002,9.0002,9.0002,9.0002,9.0002,9.0002,9.0002,9.0002,9.0002,9.0284,9.0451,9.0451,9.193,9.3155,9.3813,9.5541,9.6682,9.6962,9.7256,9.7081,9.6455,9.6394,9.5829,9.4673,9.4673,9.4471,9.4104,9.4221,9.4666,0.0,0.0,0.0,0.0,6.9675,0.0,0.0,0.0,7.2732,7.4562,0.0,7.4862,7.6601,0.0,0.0,7.7653,7.7852,7.7881,7.7966,7.8419,7.896,7.9613,8.0099,8.0443,8.0558,8.1123,8.172,8.2374,8.2431,8.2431,8.2431,8.2431,8.2431,8.2431,8.2431,8.2431,8.2431,8.3057,8.3398,8.3426,8.4593,8.4878,8.4423,8.5532,8.6327,8.6897,8.7607,8.8634,8.9804,8.9947,9.0002,9.0002,9.0002,9.0002,9.0002,9.0002,8.9633,8.9205,8.9801,8.9205,8.818,8.818,8.7324,8.6327,8.6242,8.6613,8.7097,8.7182,8.8065,8.9062,8.9119,8.9573,9.0002,9.0002,9.0002,9.0002,9.0002,9.0002,9.0002,9.0002,9.0002,9.0002,9.0002,9.0002,9.0002,9.0002,9.0002,9.0002,9.0002,9.0002,9.0002,9.0002,9.0002,9.0002,9.0002,9.1076,9.2015,9.2672,9.4375,9.5626,9.6284,9.6943,9.7019,9.6512,9.6512,9.5971,9.4869,9.4784,9.4698,9.4641,9.4072,9.4385,0.0,0.0,0.0,0.0,0.0,6.9701,0.0,0.0,0.0,7.5241,7.5949,7.6544,7.7397,7.7454,7.7625,7.8419,7.8533,7.8732,7.9269,7.8986,7.896,7.9613,7.981,8.0212,8.1181,8.1351,8.172,8.2374,8.2431,8.2431,8.2431,8.2431,8.2431,8.2431,8.2431,8.2431,8.2431,8.3057,8.3398,8.3426,8.4593,8.4878,8.4366,8.502,8.5389,8.556,8.6754,8.7693,8.8519,8.9573,9.0002,9.0002,9.0002,9.0002,9.0002,9.0002,8.9916,8.9831,8.9947,8.9488,8.8832,8.8832,8.8321,8.761,8.7067,8.6982,8.7211,8.7722,8.8433,8.9119,8.9689,8.9916,9.0002,9.0002,9.0002,9.0002,9.0002,9.0002,9.0002,9.0002,9.0002,9.0002,9.0002,9.0002,9.0002,9.0002,9.0002,9.0002,9.0002,9.0002,9.0002,9.0002,9.0002,9.0002,9.0002,9.1076,9.2015,9.2672,9.404,9.5065,9.5594,9.6252,9.6792,9.719,9.719,9.6825,9.6089,9.5541,9.5065,9.4673,9.4502,9.4837,0.0,0.0,0.0,6.7726,0.0,0.0,0.0,7.3785,7.4698,7.5611,7.6603,7.7369,7.771,7.7738,7.8051,7.9072,7.8933,7.8844,7.9184,7.8933,7.8844,7.9161,7.95,7.9926,8.0498,8.1094,8.1579,8.192,8.226,8.2431,8.2431,8.2431,8.2431,8.2431,8.2431,8.2431,8.2431,8.3398,8.3854,8.391,8.5049,8.5503,8.5248,8.5532,8.5816,8.6158,8.6782,8.7637,8.8604,8.926,8.9719,9.0002,9.0002,9.0002,8.9971,8.9633,8.9518,8.9518,8.9518,8.929,8.9004,8.9004,8.8806,8.8348,8.738,8.7324,8.7693,8.8348,8.9004,8.9603,8.9916,9.0002,9.0002,9.0002,9.0002,9.0002,9.0002,9.0002,9.0002,9.0002,9.0002,9.0002,9.0002,9.0002,9.0002,9.0002,9.0002,9.0002,9.0002,9.0002,9.0002,9.0002,9.0002,9.0002,9.0002,9.0794,9.1531,9.2188,9.3446,9.4439,9.5033,9.5939,9.6564,9.691,9.7223,9.7081,9.6394,9.5736,9.5488,9.5548,9.4609,9.4805,0.0,0.0,0.0,0.0,0.0,0.0,7.2986,7.4496,7.5608,7.6066,7.7141,7.7964,7.7964,7.7964,7.8279,7.9331,7.9072,7.8732,7.8732,7.8732,7.8762,7.8901,7.9385,7.9756,7.9813,8.0698,8.1267,8.1267,8.1862,8.2288,8.2431,8.2431,8.2431,8.2431,8.2431,8.2431,8.2431,8.3711,8.4366,8.4366,8.5561,8.6129,8.6129,8.6129,8.6412,8.6897,8.7011,8.7752,8.8862,8.8977,8.9345,8.9831,8.9947,8.9916,8.9746,8.9205,8.8947,8.8862,8.8977,8.9004,8.9062,8.9175,8.9205,8.8974,8.7837,8.7752,8.8206,8.8862,8.9488,9.0002,9.0002,9.0002,9.0002,9.0002,9.0002,9.0002,9.0002,9.0002,9.0002,9.0002,9.0002,9.0002,9.0002,9.0002,9.0002,9.0002,9.0002,9.0002,9.0002,9.0002,9.0002,9.0002,9.0002,9.0002,9.0002,9.0481,9.1076,9.1702,9.2874,9.3791,9.4445,9.5488,9.6113,9.6219,9.6877,9.6995,9.6597,9.6081,9.5971,9.6199,9.4837,9.4947,0.0,0.0,0.0,6.8515,6.9504,0.0,7.3966,7.4439,7.4888,7.711,7.8135,7.862,7.862,7.862,7.8673,7.8789,7.8762,7.8732,7.8732,7.8732,7.8933,7.95,7.9639,7.9872,8.0331,8.0528,8.0585,8.0585,8.1209,8.1833,8.2375,8.2431,8.2431,8.2431,8.2431,8.2431,8.2431,8.3711,8.4366,8.4366,8.5561,8.6129,8.6129,8.6129,8.6158,8.6242,8.684,8.7495,8.8206,8.8776,8.9059,8.9205,8.9774,8.9658,8.9119,8.9062,8.8664,8.8265,8.8832,8.9004,8.9119,8.9719,8.9886,8.9746,8.9004,8.8463,8.8206,8.8862,8.9488,9.0002,9.0002,9.0002,9.0002,9.0002,9.0002,9.0002,9.0002,9.0002,9.0002,9.0002,9.0002,9.0002,9.0002,9.0002,9.0002,9.0002,9.0002,9.0002,9.0002,9.0002,9.0002,9.0002,9.0002,9.0002,9.0002,9.0481,9.1076,9.1702,9.2444,9.3155,9.3759,9.4471,9.5065,9.5541,9.6166,9.6768,9.7275,9.7223,9.6597,9.5541,9.5939,9.5906,0.0,0.0,6.7048,6.8519,0.0,0.0,7.3443,7.5036,7.6399,7.7056,7.8334,7.9161,7.8789,7.8732,7.8732,7.8732,7.8732,7.8732,7.8732,7.8732,7.8844,7.9075,7.9157,7.9214,7.942,7.9786,8.0042,8.0042,8.0556,8.1154,8.1807,8.2203,8.2431,8.2431,8.2431,8.2431,8.2431,8.3711,8.4366,8.4366,8.5561,8.6129,8.6129,8.6129,8.6129,8.6129,8.6412,8.6897,8.7524,8.7778,8.8348,8.9062,8.9317,8.926,8.8977,8.8604,8.8263,8.8095,8.8348,8.8691,8.9119,8.9804,9.0002,8.9801,8.8776,8.8776,8.9089,8.8604,8.9205,9.0002,9.0002,9.0002,9.0002,9.0002,9.0002,9.0002,9.0002,9.0002,9.0002,9.0002,9.0002,9.0002,9.0002,9.0002,9.0002,9.0002,9.0002,9.0002,9.0002,9.0002,9.0002,9.0002,9.0002,9.0002,9.0002,9.0199,9.074,9.1702,9.2015,9.2618,9.3642,9.4328,9.4922,9.5423,9.6081,9.6707,9.7393,9.6995,9.6532,9.6024,9.5573,9.5801,6.3574,0.0,0.0,0.0,0.0,0.0,7.3838,7.5719,7.7229,7.7312,7.8448,7.9273,7.8789,7.8732,7.8732,7.8732,7.8732,7.8732,7.8732,7.8732,7.8732,7.8732,7.8732,7.8732,7.8732,7.9157,7.9443,7.9443,7.9957,8.0556,8.1154,8.1777,8.2233,8.2431,8.2431,8.2431,8.2431,8.3711,8.4366,8.4366,8.5561,8.6129,8.6129,8.6129,8.6129,8.6129,8.6129,8.6469,8.7097,8.7097,8.7752,8.8776,8.8947,8.8806,8.8463,8.818,8.7837,8.758,8.7952,8.8348,8.8862,8.9518,8.9831,8.9804,8.8661,8.8977,8.9573,8.8806,8.9119,8.9774,8.9947,9.0002,9.0002,9.0002,9.0002,9.0002,9.0002,9.0002,9.0002,9.0002,9.0002,9.0002,9.0002,9.0002,9.0002,9.0002,9.0002,9.0002,9.0002,9.0002,9.0002,9.0002,9.0002,9.0002,9.0002,9.0002,9.0512,9.1671,9.1728,9.2328,9.3648,9.4126,9.4673,9.5228,9.5691,9.6317,9.7105,9.665,9.6394,9.6394,9.5548,9.5744,0.0,0.0,0.0,6.9894,7.1533,7.3696,7.6146,7.6262,7.6378,7.8277,7.8706,7.8759,7.8732,7.8732,7.8732,7.8732,7.8732,7.8732,7.8732,7.8732,7.8732,7.8732,7.8732,7.8732,7.8732,7.8759,7.8759,7.8759,7.9358,7.9957,8.0473,8.1123,8.1749,8.2375,8.2431,8.2431,8.2431,8.3711,8.4366,8.4366,8.5561,8.6129,8.6129,8.6129,8.6129,8.6129,8.6129,8.6469,8.7097,8.7097,8.7495,8.815,8.8776,8.8265,8.7209,8.7837,8.7267,8.6356,8.7607,8.8065,8.8206,8.8862,8.9488,8.9861,8.9205,8.9004,8.9175,8.9774,8.9518,8.9205,8.9831,9.0002,9.0002,9.0002,9.0002,9.0002,9.0002,9.0002,9.0002,9.0002,9.0002,9.0002,9.0002,9.0002,9.0002,9.0002,9.0002,9.0002,9.0002,9.0002,9.0002,9.0002,9.0002,9.0002,9.0002,9.0002,9.0512,9.1671,9.1728,9.2328,9.3648,9.3734,9.4047,9.4673,9.4698,9.5292,9.6455,9.6394,9.6394,9.6394,9.6361,9.6057,6.5387,6.6458,6.7755,7.1181,7.2266,7.296,7.5039,7.598,7.6774,7.7852,7.8393,7.8732,7.8732,7.8732,7.8732,7.8732,7.8732,7.8732,7.8732,7.8732,7.8732,7.8732,7.8732,7.8732,7.8732,7.8732,7.8732,7.8732,7.8933,7.9474,8.0416,8.0698,8.1296,8.2375,8.2431,8.2631,8.3057,8.3939,8.4537,8.4906,8.5731,8.6129,8.6129,8.6129,8.6129,8.6129,8.6129,8.6242,8.6442,8.6442,8.684,8.7439,8.7637,8.7495,8.7097,8.7324,8.6869,8.6242,8.7097,8.7693,8.818,8.8806,8.9491,8.9861,8.9205,8.9345,8.9633,8.9402,8.9518,8.9715,8.9947,9.0002,9.0002,9.0002,9.0002,9.0002,9.0002,9.0002,9.0002,9.0002,9.0002,9.0002,9.0002,9.0002,9.0002,9.0002,9.0002,9.0002,9.0002,9.0002,9.0002,9.0002,9.0002,9.0002,9.0002,9.0002,9.0512,9.1671,9.1728,9.2328,9.3648,9.3702,9.4015,9.4641,9.4673,9.4869,9.5267,9.5605,9.5768,9.5768,9.665,9.6479,6.6247,6.6909,6.7795,7.2083,7.2997,7.3297,7.5099,7.6179,7.703,7.7935,7.8448,7.8732,7.8732,7.8732,7.8789,7.9045,7.8874,7.8789,7.9045,7.8874,7.8732,7.8732,7.8732,7.8732,7.8732,7.8732,7.8732,7.8732,7.8732,7.9246,8.0416,8.0473,8.1069,8.2375,8.2431,8.2601,8.3057,8.3911,8.4537,8.4878,8.5702,8.6129,8.6129,8.6129,8.6129,8.6129,8.6129,8.6242,8.6442,8.6214,8.6498,8.7097,8.7097,8.6954,8.6784,8.7011,8.6669,8.6214,8.6869,8.7524,8.8121,8.8549,8.929,8.9861,8.9205,8.9488,8.9916,8.9488,8.9689,9.0002,9.0002,9.0002,9.0002,9.0002,9.0002,9.0002,9.0002,9.0002,9.0002,9.0002,9.0002,9.0002,9.0002,9.0002,9.0002,9.0002,9.0002,9.0002,9.0002,9.0002,9.0002,9.0002,9.0002,9.0002,9.0002,9.0002,9.0396,9.133,9.1617,9.2242,9.3297,9.3585,9.3876,9.4328,9.4328,9.4328,9.4328,9.5057,9.5338,9.5235,9.6682,9.6825,6.6247,6.7858,6.9709,7.2624,7.3682,7.4489,7.6373,7.6774,7.7143,7.8476,7.8732,7.8732,7.8732,7.8732,7.8901,7.9527,7.9157,7.8933,7.9582,7.913,7.8732,7.8732,7.8732,7.8732,7.8732,7.8732,7.8732,7.8732,7.8732,7.9246,8.0416,8.0473,8.1069,8.2375,8.2431,8.2431,8.2431,8.3683,8.4337,8.4423,8.556,8.6129,8.6129,8.6129,8.6129,8.6129,8.6129,8.6471,8.6982,8.6356,8.6471,8.7011,8.7011,8.6669,8.6186,8.6811,8.664,8.6214,8.6811,8.7495,8.8035,8.8035,8.8947,8.9886,8.926,8.9518,9.0002,9.0002,9.0002,9.0002,9.0002,9.0002,9.0002,9.0002,9.0002,9.0002,9.0002,9.0002,9.0002,9.0002,9.0002,9.0002,9.0002,9.0002,9.0002,9.0002,9.0002,9.0002,9.0002,9.0002,9.0002,9.0002,9.0002,9.0002,9.0002,9.0002,9.0229,9.0764,9.1384,9.2041,9.2726,9.3329,9.3702,9.3702,9.3702,9.3702,9.3702,9.483,9.515,9.4673,9.6455,9.6962,6.6711,6.8421,6.9882,7.3534,7.3897,7.3948,7.6259,7.6774,7.7143,7.8476,7.8732,7.8732,7.8732,7.8732,7.8762,7.8933,7.8844,7.8762,7.896,7.8844,7.8732,7.8732,7.8732,7.8732,7.8732,7.8732,7.8732,7.8732,7.8732,7.9246,8.0416,8.0473,8.1069,8.2375,8.2431,8.2431,8.2431,8.3227,8.4081,8.4935,8.5731,8.6129,8.6129,8.6129,8.6129,8.6129,8.6129,8.6214,8.6356,8.6186,8.6214,8.6356,8.6356,8.6271,8.6129,8.63,8.6242,8.6129,8.63,8.7097,8.8035,8.8035,8.8947,8.9971,8.9801,8.9861,9.0002,9.0002,9.0002,9.0002,9.0002,9.0002,9.0002,9.0002,9.0002,9.0002,9.0002,9.0002,9.0002,9.0002,9.0002,9.0002,9.0002,9.0002,9.0002,9.0002,9.0002,9.0002,9.0002,9.0002,9.0002,9.0002,9.0002,9.0002,9.0002,9.0002,9.0229,9.0764,9.1384,9.2041,9.2726,9.3329,9.3702,9.3702,9.3702,9.3702,9.3702,9.4471,9.4556,9.3961,9.5313,9.5854,6.5604,6.7505,6.9632,7.4143,7.4183,7.3692,7.5864,7.6575,7.7058,7.808,7.8305,7.8391,7.8673,7.8732,7.8844,7.913,7.8901,7.8844,7.913,7.8901,7.8732,7.8732,7.8732,7.8732,7.8732,7.8732,7.8732,7.8732,7.8732,7.9246,8.0416,8.0473,8.1069,8.2375,8.2431,8.2431,8.2431,8.28,8.3427,8.4394,8.5247,8.5844,8.6129,8.6129,8.6129,8.6129,8.6129,8.6129,8.6129,8.6129,8.6129,8.6129,8.6129,8.6129,8.6129,8.6129,8.6129,8.6129,8.6129,8.6982,8.8035,8.8035,8.8947,9.0002,9.0002,9.0002,9.0002,9.0002,9.0002,9.0002,9.0002,9.0002,9.0002,9.0002,9.0002,9.0002,9.0002,9.0002,9.0002,9.0002,9.0002,9.0002,9.0002,9.0002,9.0002,9.0002,9.0002,9.0002,9.0002,9.0002,9.0002,9.0002,9.0002,9.0002,9.0002,9.0002,9.0114,9.0396,9.1273,9.1898,9.2296,9.3187,9.3702,9.3702,9.3702,9.3702,9.3702,9.436,9.4328,9.3734,9.4915,9.5345,6.435,6.6303,6.9247,7.4248,7.4282,7.3553,7.5409,7.6236,7.6859,7.7596,7.7738,7.7938,7.862,7.8732,7.8901,7.9497,7.9075,7.8901,7.9497,7.9072,7.8732,7.8732,7.8789,7.8844,7.8732,7.8789,7.8844,7.8732,7.8732,7.9219,8.0331,8.0443,8.1041,8.226,8.2374,8.2431,8.2431,8.2431,8.2772,8.3426,8.4508,8.5418,8.6129,8.6014,8.6044,8.6129,8.6129,8.6129,8.6129,8.6129,8.6129,8.6129,8.6129,8.6129,8.6129,8.6129,8.6129,8.6129,8.6129,8.6982,8.8035,8.8035,8.8947,9.0002,9.0002,9.0002,9.0002,9.0002,9.0002,9.0002,9.0002,9.0002,9.0002,9.0002,9.0002,9.0002,9.0002,9.0002,9.0002,9.0002,9.0002,9.0002,9.0002,9.0002,9.0002,9.0002,9.0002,9.0002,9.0002,9.0002,9.0002,9.0002,9.0002,9.0002,9.0002,9.0002,9.0002,9.0002,9.1022,9.1671,9.1728,9.2899,9.3585,9.3585,9.3477,9.3446,9.3446,9.4072,9.4132,9.3617,9.472,9.5033,6.6221,6.7588,6.9084,7.2798,7.339,7.3553,7.5409,7.5895,7.6319,7.7511,7.7738,7.7938,7.862,7.8732,7.8759,7.8874,7.8789,7.8759,7.8874,7.8789,7.8732,7.8732,7.9187,7.9299,7.8762,7.9214,7.9299,7.8762,7.8732,7.9072,7.9786,8.0243,8.0841,8.1579,8.2147,8.2431,8.2431,8.2431,8.2772,8.3398,8.4138,8.5049,8.61,8.5531,8.5617,8.6129,8.6129,8.6129,8.6129,8.6129,8.6129,8.6129,8.6129,8.6129,8.6129,8.6129,8.6129,8.6129,8.6129,8.6982,8.8035,8.8035,8.8947,9.0002,9.0002,9.0002,9.0002,9.0002,9.0002,9.0002,9.0002,9.0002,9.0002,9.0002,9.0002,9.0002,9.0002,9.0002,9.0002,9.0002,9.0002,9.0002,9.0002,9.0002,9.0002,9.0002,9.0002,9.0002,9.0002,9.0002,9.0002,9.0002,9.0002,9.0002,9.0002,9.0002,9.0002,9.0002,9.0593,9.1188,9.1728,9.247,9.2899,9.2899,9.2359,9.2072,9.2072,9.2757,9.2985,9.2899,9.3642,9.4243,6.4456,6.6724,6.895,7.0235,7.1829,7.3383,7.4635,7.5352,7.598,7.6603,7.7027,7.7454,7.808,7.8504,7.862,7.8277,7.8504,7.862,7.825,7.8533,7.8732,7.8732,7.9299,7.9582,7.9273,7.95,7.9582,7.9246,7.8901,7.9018,7.9671,8.016,8.0783,8.1436,8.209,8.2431,8.2431,8.2431,8.2573,8.2914,8.391,8.448,8.4707,8.4736,8.5049,8.5617,8.5617,8.5816,8.6129,8.6129,8.6129,8.6129,8.6129,8.6129,8.6129,8.6129,8.6129,8.6129,8.6129,8.6754,8.761,8.792,8.8691,8.9573,8.9916,9.0002,9.0002,9.0002,9.0002,9.0002,9.0002,9.0002,9.0002,9.0002,9.0002,9.0002,9.0002,9.0002,9.0002,9.0002,9.0002,9.0002,9.0002,9.0002,9.0002,9.0002,9.0002,9.0002,9.0002,9.0002,9.0002,9.0002,9.0002,9.0114,9.0396,9.0396,9.0396,9.0396,9.096,9.1415,9.1728,9.1728,9.2015,9.2726,9.2072,9.193,9.2242,9.2555,9.2899,9.3212,9.3563,9.3876,6.2928,6.5767,6.8635,6.8323,7.0334,7.2697,7.3792,7.4777,7.5494,7.5753,7.6234,7.6802,7.7596,7.8191,7.8362,7.7824,7.8279,7.8504,7.7852,7.8334,7.8732,7.8732,7.9388,7.9813,7.9725,7.9926,7.9984,7.9725,7.9214,7.9075,7.947,7.9987,8.0585,8.1209,8.1862,8.2288,8.2431,8.2431,8.2431,8.2459,8.3598,8.3825,8.3199,8.3996,8.4508,8.4792,8.502,8.5502,8.6129,8.6129,8.6129,8.6129,8.6129,8.6129,8.6129,8.6129,8.6129,8.6129,8.6129,8.6556,8.7211,8.7837,8.8493,8.9145,8.9801,9.0002,9.0002,9.0002,9.0002,9.0002,9.0002,9.0002,9.0002,9.0002,9.0002,9.0002,9.0002,9.0002,9.0002,9.0002,9.0002,9.0002,9.0002,9.0002,9.0002,9.0002,9.0002,9.0002,9.0002,9.0002,9.0002,9.0002,9.0083,9.0315,9.0593,9.0705,9.0764,9.0648,9.1107,9.1505,9.1728,9.1133,9.1273,9.2296,9.193,9.1875,9.2131,9.2529,9.2899,9.3303,9.3563,9.3702,6.4696,6.6216,6.7947,6.8751,6.9504,7.0758,7.3468,7.4119,7.4546,7.5608,7.5867,7.6265,7.7539,7.7795,7.7824,7.7767,7.8279,7.8504,7.7852,7.8334,7.8732,7.8732,7.9733,8.0243,7.9756,8.0668,8.0838,7.9783,7.9639,7.9358,7.8844,7.9443,7.9987,8.0558,8.1209,8.1807,8.2431,8.2431,8.2431,8.2431,8.3114,8.3114,8.2545,8.3797,8.4081,8.3598,8.4679,8.5502,8.6129,8.6129,8.6129,8.6129,8.6129,8.6129,8.6129,8.6129,8.6129,8.6129,8.6129,8.6556,8.7211,8.7837,8.8493,8.9145,8.9801,9.0002,9.0002,9.0002,9.0002,9.0002,9.0002,9.0002,9.0002,9.0002,9.0002,9.0002,9.0002,9.0002,9.0002,9.0002,9.0002,9.0002,9.0002,9.0002,9.0002,9.0002,9.0002,9.0002,9.0002,9.0002,9.0002,9.0002,9.0451,9.0508,9.0114,9.0508,9.0593,9.0083,9.0144,9.0624,9.1702,9.1133,9.0844,9.096,9.147,9.1249,9.026,9.1904,9.2439,9.1961,9.3133,9.3702,6.2255,6.4367,6.6469,6.644,6.812,7.0169,7.1618,7.2192,7.2846,7.4427,7.5011,7.5611,7.6942,7.7482,7.7625,7.7229,7.8023,7.8362,7.7286,7.8051,7.8732,7.8732,7.9759,8.0416,8.016,8.0925,8.1096,8.0243,7.9872,7.9412,7.8759,7.9358,7.993,8.0446,8.1123,8.1749,8.2431,8.2431,8.2431,8.2431,8.3085,8.3057,8.2459,8.2972,8.3057,8.2858,8.4138,8.4821,8.5134,8.5816,8.6129,8.6129,8.6129,8.6129,8.6129,8.6129,8.6129,8.6129,8.6129,8.6271,8.6584,8.7267,8.7923,8.8549,8.9205,8.9689,9.0002,9.0002,9.0002,9.0002,9.0002,9.0002,9.0002,9.0002,9.0002,9.0002,9.0002,9.0002,9.0002,9.0002,9.0002,9.0002,9.0002,9.0002,9.0002,9.0002,9.0002,9.0002,9.0002,9.0284,9.0341,9.0028,9.0481,9.0844,9.1022,9.0875,9.0844,9.1053,9.0678,9.0678,9.1157,9.093,9.0991,9.1358,9.1617,9.1702,9.1617,9.2359,9.2783,9.2931,9.3446,9.3702,6.0926,6.2941,6.4981,6.483,6.6821,6.9058,7.0085,7.0386,7.1001,7.3078,7.4069,7.5011,7.6262,7.7056,7.7229,7.6603,7.7738,7.8277,7.6944,7.7909,7.8732,7.8732,7.9617,8.03,8.0446,8.1069,8.1267,8.0785,8.0243,7.9671,7.9072,7.9273,7.9756,8.0446,8.0898,8.1579,8.2431,8.2431,8.2431,8.2431,8.2886,8.2885,8.2431,8.2431,8.2516,8.2772,8.3683,8.4167,8.4451,8.5418,8.5929,8.6129,8.6129,8.6129,8.6129,8.6129,8.6129,8.6129,8.6129,8.6129,8.6243,8.6869,8.7524,8.8176,8.8832,8.9488,9.0002,9.0002,9.0002,9.0002,9.0002,9.0002,9.0002,9.0002,9.0002,9.0002,9.0002,8.9831,8.9774,8.9971,8.9831,8.9774,8.9971,9.0002,9.0002,9.0002,9.0002,9.0002,9.0002,9.0451,9.0705,9.0543,9.0851,9.1157,9.1415,9.1076,9.0906,9.1188,9.079,9.0538,9.0538,9.0875,9.1188,9.1446,9.2015,9.2359,9.2444,9.2842,9.3155,9.3414,9.3617,9.3702,6.193,6.2473,6.3644,6.469,6.5729,6.7093,6.9305,6.9,6.8973,7.1604,7.318,7.4432,7.5608,7.6347,7.6575,7.5924,7.7454,7.8277,7.6944,7.7909,7.8732,7.8732,7.9299,7.9899,8.0416,8.1069,8.1436,8.1436,8.0841,8.0243,7.9725,7.9072,7.9273,8.0443,8.0473,8.1123,8.2375,8.2431,8.2431,8.2431,8.2431,8.2431,8.2431,8.2431,8.2772,8.3398,8.3398,8.374,8.4423,8.4935,8.5531,8.6129,8.6129,8.6129,8.6129,8.6129,8.6129,8.6129,8.6129,8.6129,8.6243,8.6869,8.7524,8.8176,8.8832,8.9488,9.0002,9.0002,9.0002,9.0002,9.0002,9.0002,9.0002,9.0002,9.0002,9.0002,9.0002,8.9488,8.9205,8.9861,8.9488,8.926,8.9886,9.0002,9.0002,9.0002,9.0002,9.0002,9.0002,9.0451,9.1017,9.1671,9.1728,9.147,9.0844,9.079,9.0563,9.0059,9.0032,9.0002,9.0002,9.1138,9.1415,9.079,9.2672,9.3047,9.1759,9.3047,9.336,9.2757,9.3414,9.3702,6.1595,6.2141,6.3164,6.5006,6.5175,6.5827,6.9492,7.0666,7.1224,7.1952,7.3151,7.4432,7.5608,7.6322,7.6575,7.5895,7.7058,7.7767,7.6888,7.7511,7.8222,7.8673,7.9299,7.9899,8.0416,8.1069,8.1436,8.1436,8.1267,8.0698,7.9756,7.95,7.9559,7.993,8.0273,8.0871,8.1721,8.2203,8.2431,8.2431,8.2431,8.2431,8.2431,8.2431,8.2772,8.3426,8.3854,8.4394,8.4906,8.5076,8.5531,8.6129,8.6129,8.6129,8.6129,8.6129,8.6129,8.6129,8.6129,8.6129,8.6158,8.6356,8.7182,8.8095,8.8321,8.9119,9.0002,9.0002,9.0002,9.0002,9.0002,9.0002,9.0002,9.0002,9.0002,9.0083,9.0451,9.0083,9.0002,9.1022,9.04,8.9886,9.0451,9.0225,9.0002,9.0002,9.0002,9.0002,9.0002,9.0144,9.0624,9.1612,9.1728,9.147,9.0844,9.0451,9.0311,9.0508,9.0937,9.1223,9.1223,9.1984,9.2328,9.2131,9.3155,9.35,9.307,9.35,9.3617,9.3383,9.3617,9.3702,6.1676,6.2014,6.2686,6.5092,6.4436,6.431,6.8706,6.9871,7.0253,7.1018,7.2515,7.3977,7.4951,7.6234,7.6774,7.5639,7.6944,7.7795,7.6916,7.7568,7.8277,7.8673,7.9072,7.9559,8.013,8.0725,8.1181,8.1436,8.1436,8.1123,8.041,7.9926,7.981,7.9984,8.03,8.0785,8.1436,8.209,8.2431,8.2431,8.2431,8.2431,8.2431,8.2431,8.2914,8.3768,8.3654,8.4195,8.5105,8.4935,8.5219,8.5759,8.6014,8.6129,8.6129,8.6129,8.6129,8.6129,8.6129,8.6129,8.6129,8.6129,8.684,8.7722,8.798,8.8776,8.9689,8.9916,9.0002,9.0002,9.0002,9.0002,9.0002,9.0002,9.0002,9.0144,9.0678,9.0169,9.0059,9.1505,9.0794,9.0169,9.0674,9.0508,9.0225,9.0032,9.0002,9.0002,9.0002,9.0169,9.0597,9.1304,9.1813,9.1924,9.1555,9.0764,9.0538,9.1103,9.1501,9.1728,9.1728,9.2353,9.2726,9.2726,9.336,9.3702,9.3702,9.3702,9.3702,9.3702,9.3702,9.3702,6.1913,6.1884,6.2188,6.4906,6.3797,6.3156,6.7332,6.7311,6.7027,6.9106,7.1323,7.3106,7.3749,7.5855,7.6916,7.5213,7.6973,7.822,7.7058,7.7909,7.8706,7.8762,7.8759,7.8986,7.9639,8.0158,8.0698,8.1323,8.1436,8.1436,8.1407,8.041,7.9987,8.0416,8.0473,8.0785,8.1351,8.2062,8.2431,8.2431,8.2431,8.2431,8.2431,8.2431,8.3113,8.4224,8.3057,8.3569,8.5105,8.4622,8.4736,8.5275,8.5816,8.6073,8.6129,8.6129,8.6129,8.6129,8.6129,8.6129,8.6129,8.6157,8.6613,8.7297,8.7923,8.8579,8.9205,8.9831,9.0002,9.0002,9.0002,9.0002,9.0002,9.0002,9.0002,9.0144,9.0678,8.9882,8.963,9.142,9.0794,9.0169,9.0764,9.079,9.0563,9.0114,9.0032,9.0002,8.9947,9.0396,9.0705,9.0705,9.1818,9.2555,9.2586,9.147,9.1072,9.1844,9.1898,9.1898,9.1898,9.247,9.2783,9.2783,9.3383,9.3702,9.3702,9.3702,9.3702,9.3702,9.3702,9.3702,6.0273,6.0666,6.1464,6.3793,6.5217,6.6554,6.8408,6.8288,6.8001,6.8841,7.0144,7.1317,7.1758,7.3525,7.5062,7.5523,7.6518,7.7482,7.8191,7.808,7.8362,7.9358,7.9045,7.8986,7.9639,7.9813,8.0099,8.0671,8.1154,8.1211,8.0729,8.0898,8.0695,7.9899,8.0725,8.1069,8.0729,8.1834,8.2431,8.2431,8.2431,8.2431,8.2431,8.2431,8.2885,8.3626,8.3825,8.4394,8.5133,8.4991,8.5304,8.5844,8.5532,8.5673,8.6129,8.6129,8.6129,8.6129,8.6129,8.6129,8.6186,8.6698,8.7295,8.795,8.8604,8.926,8.9801,8.9947,9.0002,9.0002,9.0002,9.0002,9.0002,9.0002,9.0002,9.0144,9.0678,9.0254,9.0169,9.1501,9.0794,9.0311,9.133,9.0794,9.0284,9.0563,9.0254,8.9831,8.9317,8.9801,9.0169,9.0169,9.0427,9.0794,9.1188,9.096,9.1505,9.3133,9.3244,9.3244,9.3244,9.3389,9.3446,9.3446,9.3617,9.3702,9.3702,9.3702,9.3702,9.3702,9.3702,9.3702,6.0767,6.1627,6.2364,6.2762,6.4007,6.5284,6.5833,6.6146,6.66,6.7845,6.922,7.0681,7.2191,7.3351,7.4546,7.6006,7.6546,7.7056,7.7738,7.7795,7.8108,7.9157,7.8933,7.8848,7.9214,7.95,7.9813,8.0099,8.0925,8.1294,8.0925,8.1267,8.1151,8.0498,8.081,8.0983,8.0898,8.192,8.226,8.1949,8.2288,8.2573,8.2829,8.2545,8.2942,8.3825,8.391,8.4394,8.5133,8.5133,8.5531,8.6071,8.5731,8.5816,8.6129,8.6129,8.6129,8.6129,8.6129,8.6129,8.6157,8.6527,8.7097,8.7722,8.8378,8.9004,8.9603,8.9916,9.0002,9.0002,9.0002,9.0002,9.0002,9.0002,9.0002,9.0144,9.0678,9.0366,9.0341,9.1501,9.0991,9.0567,9.1188,9.0794,9.0366,9.0396,9.0169,8.9861,8.9518,8.9518,8.9548,8.9548,8.9548,8.9689,8.9937,9.0764,9.1671,9.2757,9.2788,9.2931,9.3212,9.3244,9.3383,9.3702,9.3414,9.3414,9.3702,9.3414,9.3414,9.3702,9.3702,9.3702,6.1575,6.3183,6.4064,6.2635,6.2611,6.2873,6.2718,6.3291,6.4463,6.6665,6.8326,7.0284,7.3209,7.3945,7.4603,7.6205,7.666,7.6859,7.7056,7.7568,7.8137,7.8789,7.8762,7.8732,7.8732,7.9214,7.9527,7.9527,8.0552,8.1151,8.1151,8.1351,8.1407,8.1294,8.0956,8.1041,8.1579,8.206,8.206,8.1607,8.2147,8.2688,8.3227,8.2772,8.3199,8.4167,8.374,8.411,8.502,8.5105,8.5474,8.5958,8.6071,8.6129,8.6129,8.6129,8.6129,8.6129,8.6129,8.6129,8.6129,8.6243,8.6613,8.7209,8.798,8.8576,8.9119,8.9689,8.9916,9.0002,9.0002,9.0002,9.0002,9.0002,9.0002,9.0114,9.0563,9.0311,9.0315,9.1273,9.1017,9.0674,9.0759,9.0705,9.0508,9.0059,8.9916,8.9804,8.9573,8.9175,8.8862,8.8862,8.8977,8.9059,8.9175,9.0678,9.1586,9.1586,9.1702,9.2015,9.2555,9.2555,9.2868,9.3531,9.2899,9.2899,9.3531,9.2899,9.2874,9.342,9.35,9.3531,5.9913,6.2897,6.5573,6.5313,6.5313,6.5105,6.4092,6.3661,6.4036,6.6015,6.7075,6.8615,7.1818,7.3322,7.4318,7.5014,7.6066,7.717,7.8277,7.8533,7.8844,7.947,7.9072,7.8732,7.8732,7.8844,7.8874,7.8874,7.9527,7.9984,7.9984,8.0896,8.1209,8.0643,8.1607,8.2175,8.226,8.1807,8.1807,8.226,8.2374,8.246,8.2573,8.3057,8.337,8.3541,8.4024,8.4337,8.4537,8.4963,8.519,8.5332,8.5873,8.6129,8.6129,8.6129,8.6129,8.6129,8.6129,8.6129,8.6214,8.6754,8.7011,8.7324,8.8519,8.8947,8.9062,8.9119,8.9573,9.0002,9.0002,9.0002,9.0002,9.0002,9.0002,9.0032,9.0083,9.0059,9.0059,9.0229,9.0199,9.0254,9.0705,9.0396,9.0118,9.0032,8.9518,8.8776,8.7667,8.7923,8.8206,8.8206,8.8691,8.926,8.9801,9.0508,9.093,9.093,9.1415,9.1782,9.1898,9.1898,9.2211,9.2868,9.2242,9.2211,9.2868,9.2211,9.193,9.2041,9.2609,9.2868,6.0926,6.3053,6.4949,6.4949,6.4949,6.474,6.3906,6.354,6.4029,6.6339,6.7335,6.8911,7.2498,7.3635,7.4461,7.5693,7.581,7.6066,7.7001,7.7428,7.8191,7.9527,7.913,7.8732,7.8732,7.8732,7.8732,7.8732,7.9326,7.9698,7.9698,8.047,8.0925,8.0983,8.1211,8.1381,8.1381,8.1777,8.1777,8.1381,8.209,8.2431,8.2459,8.3113,8.3569,8.3939,8.4224,8.4366,8.4366,8.4622,8.4906,8.519,8.5474,8.5816,8.6129,8.6129,8.6129,8.6129,8.6129,8.6129,8.6157,8.6471,8.6784,8.7211,8.7808,8.8236,8.8519,8.8519,8.9205,9.0002,9.0002,9.0002,9.0002,9.0002,9.0002,9.0002,9.0002,9.0002,9.0002,9.0002,9.0002,9.0087,9.0311,9.0144,9.0002,9.0002,8.9746,8.9345,8.8749,8.8321,8.8206,8.8549,8.8206,8.8378,8.9406,8.9998,9.0366,9.0366,9.0624,9.0794,9.0794,9.1076,9.1358,9.1671,9.1389,9.1531,9.2188,9.1531,9.1384,9.1728,9.2041,9.2211,6.2406,0.0,6.4534,6.4534,6.4638,6.456,0.0,6.3878,6.4635,6.6962,6.7852,6.9327,7.3121,7.4062,7.472,7.6091,7.5753,7.5526,7.6177,7.6575,7.7428,7.9246,7.9045,7.8732,7.8732,7.8732,7.8732,7.8732,7.9326,7.9698,7.9698,8.016,8.0729,8.1209,8.0871,8.0729,8.0729,8.1834,8.192,8.0956,8.1777,8.226,8.2459,8.2942,8.3512,8.4138,8.4281,8.4366,8.4366,8.4366,8.4593,8.4963,8.5105,8.5446,8.5873,8.6044,8.6129,8.6129,8.6129,8.6129,8.6129,8.6129,8.6442,8.6869,8.6869,8.7324,8.7808,8.7637,8.8634,8.9774,8.9774,8.9886,9.0002,9.0002,9.0002,9.0002,9.0002,9.0002,9.0002,9.0002,8.9861,8.9774,8.9774,8.9774,8.9715,8.9573,8.9689,8.9719,8.9573,8.8661,8.8321,8.8947,8.8121,8.8008,8.9175,8.9719,9.0002,9.0002,9.0002,9.0002,9.0002,9.0396,9.0593,9.0593,9.0705,9.0991,9.1335,9.0821,9.0851,9.1335,9.1446,9.1501,0.0,6.4896,6.5781,6.5781,6.6146,6.6199,6.5081,6.5263,0.0,6.7674,6.8028,6.9092,7.253,7.4044,7.4818,7.496,7.5895,7.6859,7.7539,7.7115,7.7283,7.862,7.8759,7.8732,7.8732,7.8732,7.8732,7.8732,7.9326,7.9698,7.9698,8.016,8.0473,8.0531,8.1069,8.1351,8.1351,8.2062,8.2374,8.2288,8.1749,8.1834,8.2431,8.246,8.2829,8.3512,8.411,8.4366,8.4366,8.4366,8.4366,8.4451,8.4935,8.5133,8.5275,8.5873,8.6129,8.6129,8.6129,8.6129,8.6129,8.6129,8.6158,8.6186,8.6186,8.6613,8.7011,8.6442,8.7607,8.9089,8.9089,8.9548,9.0002,9.0002,9.0002,9.0002,9.0002,9.0002,9.0002,9.0002,8.9518,8.9089,8.9089,8.9089,8.8892,8.8263,8.8691,8.8862,8.8263,8.8121,8.8321,8.8947,8.8947,8.9175,8.9861,9.0002,9.0002,9.0002,9.0002,9.0002,9.0002,9.0028,9.0059,9.0059,9.0508,9.0563,9.0114,9.0087,9.0087,9.0144,9.0624,9.0844,6.3702,6.4716,6.5289,6.5289,6.5756,6.5964,6.5108,6.5418,6.6042,6.6474,6.7139,6.847,7.1042,7.2787,7.4225,7.5256,7.5867,7.6236,7.6518,7.703,7.7426,7.7511,7.8248,7.8732,7.8732,7.8732,7.8732,7.8732,7.896,7.9075,7.9075,7.9671,8.0158,8.0446,8.1123,8.1436,8.1436,8.209,8.2203,8.1807,8.1949,8.1975,8.1834,8.2659,8.317,8.3426,8.4081,8.4366,0.0,8.3911,8.3996,8.4337,8.4138,8.4508,8.519,8.5418,8.5759,8.6129,8.6129,8.6129,8.6129,8.6129,8.6129,8.6129,8.6129,8.6014,8.6014,8.6555,8.7522,8.8604,8.9402,8.9518,8.9488,8.9916,9.0002,9.0002,9.0002,9.0002,9.0002,9.0002,8.9801,8.9518,8.9089,8.9004,8.8806,8.815,8.8263,8.8463,8.8634,8.8321,8.8463,8.9518,8.926,8.929,8.9947,9.0002,9.0002,9.0002,9.0002,9.0002,9.0002,9.0002,9.0002,9.0002,9.0199,9.0199,9.0002,9.0002,9.0002,9.0002,9.0199,9.028,6.4092,6.4639,6.4927,6.4927,6.5418,6.5703,6.4873,6.5313,6.5867,6.5726,6.6634,6.8017,6.9903,7.2074,7.388,7.4805,7.5779,7.6347,7.6123,7.6888,7.7454,7.7397,7.7994,7.8504,7.8706,7.8732,7.8732,7.8732,7.8901,7.9045,7.9045,7.9613,8.0042,8.0243,8.1209,8.1636,8.1436,8.209,8.2175,8.1749,8.2005,8.2005,8.1777,8.246,8.2886,8.3114,8.3797,8.4167,8.4281,8.3654,8.3797,8.4281,8.3626,8.3882,8.4622,8.4991,8.5447,8.5844,8.6044,8.6129,8.6129,8.6129,8.6129,8.6129,8.6129,8.5645,8.5418,8.6698,8.7693,8.8549,8.9432,8.9376,8.9175,8.9831,8.9831,8.9746,8.9947,9.0144,9.0254,9.0254,9.0114,8.9861,8.9402,8.8974,8.8549,8.8121,8.8035,8.8263,8.8947,8.8634,8.8776,8.9886,8.9603,8.9518,8.9971,9.0002,9.0002,9.0002,9.0002,9.0002,9.0002,9.0002,9.0002,9.0002,9.0002,9.0002,9.0002,9.0002,9.0002,9.0002,9.0002,9.0002,6.4639,6.4927,6.4927,6.4927,6.5418,6.5573,6.4428,6.5053,6.5867,6.5726,6.6636,6.7863,6.9304,7.2132,7.3964,7.3185,7.569,7.7485,7.6859,7.6774,7.7229,7.8561,7.8137,7.7994,7.8673,7.8732,7.8732,7.8732,7.9326,7.9671,7.9671,8.016,8.0243,7.9725,8.1464,8.209,8.1464,8.209,8.2431,8.2431,8.1749,8.1777,8.2375,8.1749,8.1833,8.2459,8.3086,8.374,8.4281,8.3654,8.3797,8.4281,8.3626,8.3398,8.3541,8.4707,8.5133,8.5219,8.5873,8.6129,8.6129,8.6129,8.6129,8.6129,8.6129,8.5645,8.5417,8.6725,8.8006,8.9004,8.9004,8.9004,8.9175,8.9831,8.9518,8.9205,8.9861,9.0396,9.079,9.079,9.0366,9.0002,9.0002,8.8947,8.8035,8.8035,8.8035,8.8263,8.8947,8.9004,8.926,8.9916,9.0002,9.0002,9.0002,9.0002,9.0002,9.0002,9.0002,9.0002,9.0002,9.0002,9.0002,9.0002,9.0002,9.0002,9.0002,9.0002,9.0002,9.0002,9.0002,9.0002,6.4743,6.4927,6.4927,6.4927,6.5418,6.5703,6.4873,6.5315,6.5775,6.5236,6.5779,6.6719,6.7883,7.0176,7.1828,7.15,7.3916,7.5494,7.4455,7.5349,7.6404,7.7229,7.7596,7.7994,7.8673,7.8732,7.8732,7.8732,7.8901,7.9018,7.9018,7.9586,8.0042,8.0243,8.1209,8.1862,8.2146,8.2318,8.2431,8.2431,8.2233,8.2233,8.2431,8.2233,8.226,8.2459,8.3086,8.3512,8.3711,8.3967,8.4167,8.4281,8.3626,8.3654,8.411,8.4451,8.4821,8.5219,8.5873,8.6129,8.6129,8.6129,8.6129,8.6129,8.6129,8.63,8.6584,8.6982,8.8006,8.8947,8.8463,8.8661,8.9175,8.9831,8.9831,8.9774,8.9947,9.0114,9.0311,9.0705,9.0678,9.0451,9.0059,8.929,8.8433,8.7524,8.6982,8.7097,8.8206,8.8348,8.8776,8.9886,9.0002,9.0002,9.0002,9.0002,9.0002,9.0002,9.0002,9.0002,9.0002,9.0002,9.0002,9.0002,9.0002,9.0002,9.0002,9.0002,9.0002,9.0002,9.0002,9.0002,6.4795,6.4927,6.4927,6.4927,6.5211,6.5341,6.4743,6.4923,6.5079,6.4691,6.5289,6.6205,6.724,6.9376,7.1062,7.1318,7.3478,7.4822,7.4027,7.503,7.5952,7.6347,7.6999,7.7625,7.8277,7.8561,7.8732,7.8732,7.8732,7.8732,7.8732,7.9358,7.9813,8.0158,8.0756,8.1351,8.2033,8.2033,8.2175,8.2431,8.2431,8.2431,8.2431,8.2431,8.2431,8.2459,8.2829,8.317,8.3426,8.3512,8.391,8.4281,8.3626,8.3626,8.4024,8.4252,8.4565,8.4906,8.5532,8.5873,8.6129,8.6129,8.6129,8.6157,8.6442,8.6784,8.7211,8.7693,8.8433,8.8974,8.8862,8.9119,8.9518,8.9916,8.9801,8.9689,8.9947,9.0169,9.0481,9.1076,9.1157,9.1076,9.074,8.977,8.8661,8.7607,8.6698,8.6584,8.7893,8.8035,8.8549,8.9861,9.0002,9.0002,9.0002,8.9774,8.9488,8.926,8.8977,8.8691,8.8463,8.8433,8.8433,8.8433,8.8433,8.8433,8.8433,8.8433,8.8576,8.8862,8.9089,8.9376,6.4795,6.4927,6.4927,6.4927,6.4927,6.4821,6.4326,6.422,6.4246,6.4298,6.5157,6.6233,6.73,6.9226,7.1007,7.1871,7.3653,7.4921,7.471,7.5279,7.5753,7.5867,7.6376,7.6944,7.7596,7.8277,7.862,7.862,7.8706,7.8732,7.8732,7.9273,7.9639,7.9698,8.0158,8.0698,8.1351,8.1351,8.1692,8.2318,8.2318,8.2374,8.2431,8.2431,8.2431,8.2431,8.2431,8.2772,8.3255,8.2744,8.3199,8.4138,8.3512,8.3255,8.3285,8.4024,8.4252,8.4366,8.4991,8.5617,8.6129,8.6129,8.6044,8.6073,8.6698,8.6954,8.7267,8.8493,8.8947,8.9175,8.9774,8.9947,9.0002,9.0002,8.9548,8.926,8.9804,9.0311,9.0875,9.1505,9.1617,9.1671,9.1671,9.0199,8.8806,8.815,8.6954,8.6584,8.7893,8.8035,8.8519,8.9689,8.9831,8.9804,8.9715,8.9119,8.8519,8.7923,8.7324,8.6754,8.6129,8.6129,8.6129,8.6129,8.6129,8.6129,8.6129,8.6129,8.6442,8.7011,8.761,8.8236,6.4795,6.4927,6.4927,6.4927,6.4927,6.4875,6.4795,6.4745,6.4899,6.5417,6.5729,6.6245,6.7406,6.8345,6.9147,6.9625,7.161,7.3184,7.3588,7.4453,7.5415,7.6461,7.6236,7.629,7.6916,7.7568,7.7966,7.7966,7.8448,7.8732,7.8732,7.8848,7.9184,7.9671,7.9813,8.0126,8.0671,8.0698,8.1011,8.1636,8.1636,8.1947,8.2431,8.2431,8.2431,8.2431,8.2431,8.2488,8.2659,8.3001,8.3057,8.2829,8.2687,8.2318,8.2033,8.3199,8.3598,8.3825,8.5361,8.6014,8.6129,8.6129,8.5476,8.485,8.5389,8.5929,8.6469,8.7297,8.8236,8.9062,8.9205,8.9603,9.0002,9.0002,8.9916,8.9689,8.9317,8.9715,9.0229,9.0341,9.0709,9.0987,9.0987,8.9882,8.8806,8.815,8.6954,8.6584,8.7893,8.8035,8.818,8.8433,8.8463,8.8263,8.7752,8.7097,8.6669,8.6556,8.6412,8.6242,8.6129,8.6129,8.6129,8.6129,8.6129,8.6129,8.6129,8.6129,8.6186,8.6327,8.6471,8.6869,6.4717,6.4927,6.4927,6.4927,6.4927,6.4927,6.4927,6.4743,6.4717,6.5315,6.5418,6.5729,6.6637,6.7495,6.8163,6.8568,7.0343,7.1972,7.2783,7.3813,7.4837,7.5725,7.581,7.5924,7.6265,7.6888,7.7426,7.7738,7.8051,7.8277,7.8277,7.8561,7.8874,7.9214,7.9214,7.95,8.0099,8.0099,8.0385,8.0983,8.0983,8.1323,8.1947,8.1947,8.2146,8.2431,8.2431,8.2431,8.2459,8.2773,8.2744,8.2431,8.2431,8.2033,8.1521,8.2203,8.2659,8.3057,8.3996,8.4736,8.5277,8.5277,8.485,8.4451,8.4991,8.5588,8.6242,8.6897,8.7808,8.8549,8.8549,8.8806,8.9119,8.9432,8.9518,8.9518,8.9488,8.9774,9.0087,9.0311,9.0593,9.079,9.079,8.9797,8.8806,8.815,8.6954,8.6471,8.7465,8.7324,8.7126,8.7126,8.7126,8.6982,8.6669,8.6014,8.5531,8.5305,8.4963,8.465,8.4337,8.4337,8.4337,8.4337,8.4337,8.4337,8.4337,8.4337,8.4508,8.4821,8.5134,8.556,6.4404,6.4795,6.4927,6.4927,6.4873,6.4797,6.4901,6.451,6.43,6.4797,6.4927,6.5108,6.5781,6.6689,6.7587,6.8247,6.9547,7.0978,7.2447,7.3265,7.4011,7.4761,7.5213,7.5526,7.5639,7.6234,7.6831,7.7369,7.7426,7.7511,7.7738,7.825,7.862,7.8732,7.8732,7.8986,7.95,7.95,7.9786,8.0331,8.0331,8.0671,8.1294,8.1294,8.1579,8.209,8.209,8.2147,8.226,8.226,8.226,8.226,8.212,8.172,8.1151,8.1267,8.172,8.2288,8.2516,8.337,8.4281,8.3967,8.3939,8.4138,8.4821,8.5389,8.5958,8.6698,8.7295,8.7752,8.7863,8.798,8.8206,8.8749,8.8862,8.9062,8.9689,8.9746,8.9831,9.0366,9.0563,9.0648,9.0648,8.974,8.8862,8.8321,8.7126,8.6471,8.7011,8.6613,8.6186,8.5958,8.5844,8.576,8.5645,8.5049,8.448,8.4053,8.3512,8.2972,8.2459,8.2431,8.2431,8.2431,8.2431,8.2431,8.2431,8.2431,8.2687,8.3227,8.3797,8.4337,6.3386,6.4246,6.4927,6.4927,6.4587,6.4378,6.4847,6.451,6.43,6.4797,6.4927,6.5108,6.5781,6.6039,6.6727,6.8597,6.9187,7.0286,7.28,7.2815,7.3105,7.466,7.4524,7.4464,7.4903,7.5554,7.5952,7.6066,7.6066,7.6575,7.771,7.7824,7.8137,7.8706,7.8732,7.8762,7.8848,7.8848,7.9161,7.9786,7.9786,8.0072,8.0613,8.0613,8.0643,8.0729,8.0729,8.1069,8.1579,8.1579,8.1579,8.1521,8.0956,8.0385,7.9984,8.0443,8.1011,8.1721,8.2858,8.374,8.411,8.2375,8.2203,8.2914,8.411,8.4537,8.485,8.5959,8.63,8.6498,8.7067,8.7607,8.8065,8.818,8.8206,8.8348,8.9004,8.8691,8.8519,8.9145,8.9715,9.0083,9.0083,8.9518,8.8974,8.8917,8.7778,8.6982,8.7067,8.7011,8.6527,8.5389,8.485,8.4366,8.3797,8.317,8.2772,8.2687,8.2601,8.2516,8.2431,8.2431,8.2431,8.2431,8.2431,8.2431,8.2431,8.2431,8.246,8.2545,8.2631,8.3028,6.2942,6.3908,6.4561,6.4849,6.4535,6.422,6.4456,6.409,6.3776,6.4012,6.4274,6.4586,6.4845,6.5157,6.5645,6.6584,6.7256,6.8433,7.0564,7.1146,7.1972,7.366,7.3977,7.4148,7.4354,7.49,7.5412,7.5781,7.581,7.6066,7.6632,7.7369,7.7881,7.8165,7.8533,7.8732,7.8732,7.8732,7.8848,7.9157,7.9157,7.947,8.0069,8.0069,8.0187,8.0473,8.0473,8.0643,8.0898,8.0898,8.0725,8.0412,8.0158,7.9671,7.9161,7.9388,7.9899,8.0552,8.1121,8.172,8.2034,8.1181,8.1579,8.2516,8.3113,8.3996,8.485,8.5049,8.5333,8.556,8.5561,8.5987,8.6527,8.6869,8.7239,8.7695,8.8348,8.8265,8.8265,8.8892,8.9548,9.0002,9.0002,8.9432,8.9004,8.9004,8.8236,8.7354,8.6613,8.5959,8.5191,8.4281,8.3626,8.317,8.2858,8.2573,8.226,8.1892,8.1862,8.172,8.1351,8.1323,8.1323,8.1323,8.1323,8.1323,8.1323,8.1323,8.1521,8.1862,8.1862,8.2233,6.1722,6.2866,6.37,6.451,6.443,6.4194,6.43,6.3934,6.3542,6.3542,6.388,6.4116,6.396,6.4248,6.4613,6.4901,6.5583,6.6694,6.8358,6.9517,7.0734,7.2266,7.3117,7.3635,7.3778,7.4325,7.4714,7.4967,7.5341,7.5639,7.581,7.6717,7.7314,7.7511,7.8163,7.8476,7.8476,7.8647,7.8732,7.8732,7.8732,7.8986,7.9443,7.9443,7.9671,8.0018,8.0018,8.013,8.0273,8.0273,8.013,7.9899,7.9756,7.9412,7.896,7.8762,7.9157,7.9671,7.95,7.9674,8.0045,8.0243,8.1123,8.2203,8.2374,8.3484,8.465,8.4423,8.4508,8.4622,8.4423,8.4651,8.5049,8.5561,8.6045,8.6584,8.7409,8.758,8.7808,8.8634,8.9175,8.9573,8.9715,8.9488,8.9205,8.9062,8.8463,8.7637,8.6498,8.5447,8.448,8.3711,8.3057,8.2516,8.2203,8.2175,8.1892,8.1211,8.1209,8.0983,8.0473,8.0473,8.0473,8.0473,8.0473,8.0473,8.0473,8.0473,8.0729,8.1209,8.1209,8.1464,5.8966,6.05,6.2164,6.3778,6.4168,6.4298,6.4769,6.4458,6.4116,6.4116,6.4142,6.3986,6.3488,6.3436,6.3776,6.4773,6.4977,6.5598,6.7308,6.8417,6.9495,7.0574,7.1578,7.2444,7.307,7.3721,7.3691,7.2742,7.4058,7.5131,7.5781,7.5867,7.6205,7.6802,7.7454,7.7795,7.7795,7.8419,7.8732,7.8732,7.8732,7.8759,7.8762,7.8762,7.8762,7.8844,7.8844,7.9161,7.9756,7.9756,7.9987,8.036,7.9899,7.9671,7.9582,7.896,7.9157,7.9586,7.8986,7.8762,7.8901,7.9527,8.0525,8.1607,8.2233,8.2914,8.3598,8.4167,8.3939,8.3626,8.4224,8.4366,8.4423,8.4451,8.448,8.4821,8.5958,8.6214,8.6584,8.7863,8.8121,8.8348,8.8977,8.9573,8.9746,8.9119,8.8463,8.7808,8.7126,8.6442,8.556,8.4451,8.3711,8.2829,8.1607,8.1521,8.1209,8.0558,8.0531,8.0528,8.0473,8.0473,8.0473,8.0473,8.0473,8.0473,8.0473,8.0473,8.0473,8.0531,8.0531,8.0531,5.8368,5.956,6.0601,6.3022,6.3336,6.3079,6.3263,6.3159,6.3003,6.3003,6.3362,6.3568,6.3407,6.2998,6.3001,6.3804,6.3598,6.401,6.6013,6.6653,6.7391,6.8764,6.9611,7.0211,7.0432,7.0678,7.1106,7.1817,7.2781,7.3876,7.5105,7.598,7.6347,7.6151,7.7172,7.7568,7.7141,7.7767,7.808,7.8108,7.8533,7.8732,7.8732,7.8732,7.8732,7.8732,7.8732,7.8848,7.9072,7.9072,7.9187,7.9331,7.9157,7.9072,7.9045,7.8789,7.8874,7.9045,7.8789,7.8732,7.8759,7.8986,7.9872,8.0925,8.1607,8.2545,8.3427,8.3654,8.3541,8.3341,8.317,8.3426,8.374,8.374,8.4053,8.448,8.4907,8.4963,8.5219,8.6044,8.6527,8.7011,8.7667,8.8351,8.8661,8.8433,8.7837,8.7211,8.6556,8.5617,8.485,8.4423,8.3001,8.1947,8.1464,8.1069,8.0558,7.9987,7.9984,7.9786,7.9361,7.9335,7.9335,7.9335,7.9335,7.9335,7.9335,7.9335,7.9559,7.9984,7.9984,8.0158,5.6059,5.7177,5.8238,6.0731,6.1439,6.1601,6.1783,6.1811,6.1887,6.2068,6.2635,6.3048,6.3048,6.2689,6.2536,6.2996,6.2689,6.29,6.4368,6.5246,6.61,6.7124,6.8079,6.8679,6.8679,6.8576,6.8945,7.0068,7.1094,7.2352,7.3948,7.4897,7.5364,7.5472,7.6546,7.6888,7.6461,7.7087,7.7426,7.7454,7.808,7.8419,7.8419,7.862,7.8732,7.8732,7.8732,7.8732,7.8732,7.8732,7.8732,7.8732,7.8732,7.8732,7.8732,7.8732,7.8732,7.8732,7.8732,7.8732,7.8732,7.8732,7.9388,8.03,8.0925,8.1862,8.28,8.3,8.3057,8.2972,8.2516,8.2772,8.3057,8.3057,8.3398,8.374,8.3996,8.4024,8.4224,8.4764,8.5248,8.5732,8.6327,8.6982,8.7495,8.7693,8.7354,8.6698,8.5645,8.485,8.4281,8.4053,8.2858,8.1834,8.1181,8.0729,8.0158,7.9443,7.9358,7.9161,7.8759,7.8732,7.8732,7.8732,7.8732,7.8732,7.8732,7.8732,7.8933,7.9358,7.9358,7.9559,5.1953,5.3394,5.515,5.6844,5.8532,5.9887,6.0387,6.0543,6.0747,6.1413,6.1962,6.2354,6.2354,6.238,6.2406,6.238,6.238,6.2406,6.2406,6.4244,6.5602,6.5626,6.6974,6.7904,6.7904,6.757,6.7379,6.743,6.8979,7.0644,7.2352,7.2458,7.3161,7.4714,7.5389,7.5756,7.5781,7.6433,7.6745,7.6745,7.7426,7.7738,7.7767,7.8419,7.8706,7.8673,7.8673,7.8673,7.8673,7.8673,7.8673,7.8706,7.8706,7.8706,7.8732,7.8673,7.8673,7.8673,7.8673,7.8673,7.8673,7.8673,7.9075,7.9701,8.0273,8.0871,8.1549,8.2233,8.2431,8.2431,8.2431,8.2431,8.2431,8.2431,8.2431,8.2601,8.3199,8.337,8.3541,8.4167,8.4337,8.448,8.4991,8.5617,8.6271,8.6897,8.7011,8.6387,8.4594,8.4366,8.411,8.3484,8.337,8.2545,8.0643,8.0446,7.996,7.8789,7.8732,7.8732,7.8732,7.8732,7.8732,7.8732,7.8732,7.8732,7.8732,7.8732,7.8732,7.8732,7.8732,7.8732,5.2213,5.2797,5.3348,5.555,5.6433,5.6905,5.7455,5.7896,5.8558,5.959,6.0507,6.1136,6.1136,6.1835,6.2299,6.1884,6.2146,6.2406,6.2406,6.2924,6.3478,6.3944,6.4733,6.5085,6.4687,6.4923,6.5567,6.6792,6.7672,6.8903,7.0567,7.1133,7.1939,7.3111,7.3699,7.4366,7.5102,7.5753,7.6091,7.6094,7.72,7.7738,7.7767,7.7964,7.7767,7.734,7.734,7.734,7.734,7.734,7.7596,7.8049,7.8049,7.8334,7.862,7.7653,7.734,7.734,7.734,7.734,7.734,7.734,7.7454,7.7881,7.9443,8.0042,8.0495,8.2005,8.2431,8.2431,8.2431,8.2431,8.2431,8.2431,8.2431,8.246,8.2659,8.2687,8.2772,8.2914,8.3341,8.3711,8.3854,8.4423,8.4907,8.5077,8.5134,8.4935,8.4423,8.4366,8.411,8.3484,8.2545,8.1579,8.0558,8.013,7.9586,7.8762,7.8732,7.8732,7.8732,7.8732,7.8732,7.8732,7.8732,7.8732,7.8732,7.8732,7.8732,7.8732,7.8732,7.8732,4.9874,4.9933,5.0096,5.1895,5.2544,5.3135,5.4646,5.5285,5.5955,5.7359,5.8506,5.9475,6.0202,6.0874,6.1572,6.2242,6.1962,6.1837,6.2305,6.2406,6.2536,6.2944,6.3232,6.3287,6.2996,6.349,6.4221,6.5209,6.5763,6.6807,6.8525,6.9168,7.0298,7.2043,7.2176,7.2823,7.4101,7.4552,7.4863,7.5093,7.6319,7.6944,7.6944,7.7226,7.7115,7.6774,7.6774,7.6774,7.6774,7.6774,7.7001,7.7369,7.7369,7.7568,7.7824,7.7058,7.6774,7.6774,7.6774,7.6774,7.6774,7.6774,7.6774,7.7087,7.8762,7.9497,8.0011,8.1577,8.2203,8.2431,8.2431,8.2431,8.2431,8.2431,8.2431,8.2431,8.2431,8.2431,8.2431,8.2431,8.2744,8.2972,8.2972,8.3512,8.3854,8.3569,8.3541,8.3541,8.3541,8.3541,8.3426,8.3028,8.2318,8.1494,8.0558,7.9987,7.9443,7.8762,7.8732,7.8732,7.8732,7.822,7.8049,7.8334,7.7795,7.7653,7.7909,7.7909,7.7909,7.7909,7.7909,7.7909,4.6131,4.5984,4.6287,4.7204,4.7941,4.9042,0.0,5.2206,5.2804,5.4485,5.5882,5.7285,5.9,5.952,6.0403,6.2606,6.1653,6.1062,6.225,6.2354,6.2276,6.2201,6.2198,6.2201,6.2302,6.2869,6.3254,6.3254,6.375,6.4757,6.6303,6.6831,6.8301,7.098,7.0609,7.1187,7.2897,7.2899,7.3206,7.3887,7.5001,7.5546,7.5659,7.6353,7.6689,7.666,7.6603,7.6575,7.6575,7.6575,7.6603,7.6689,7.6689,7.6546,7.6373,7.6373,7.6373,7.6373,7.6373,7.6404,7.6487,7.6402,7.6461,7.6802,7.8108,7.896,7.9756,8.0981,8.1749,8.2203,8.2203,8.2203,8.2233,8.2288,8.2318,8.2318,8.2375,8.2431,8.2431,8.2431,8.2431,8.2431,8.2431,8.2914,8.3085,8.2488,8.2431,8.2431,8.2431,8.2431,8.2431,8.2431,8.2431,8.1947,8.0785,8.0126,7.95,7.8874,7.8706,7.862,7.862,7.7454,7.7058,7.7625,7.6433,7.612,7.6689,7.6603,7.6603,7.6689,7.6689,7.6603,0.0,0.0,0.0,0.0,0.0,0.0,0.0,4.6903,4.8073,4.977,5.1687,5.368,5.5456,5.7281,5.8904,6.0325,6.0614,6.1062,6.225,6.204,6.1572,6.1059,6.0984,6.1188,6.1725,6.2247,6.2585,6.2585,6.3178,6.3845,6.4611,6.4741,6.5846,6.8156,6.8169,6.9298,7.1783,7.1042,7.132,7.2656,7.341,7.405,7.4605,7.5539,7.6006,7.5952,7.544,7.5216,7.5216,7.5216,7.5526,7.6006,7.6006,7.5096,7.381,7.381,7.381,7.381,7.381,7.4176,7.4518,7.3977,7.4467,7.5469,7.6774,7.7625,7.8478,8.016,8.0756,8.0841,8.0841,8.0841,8.0983,8.1521,8.1634,8.1777,8.2318,8.2431,8.2431,8.2431,8.2431,8.2431,8.2431,8.2516,8.2573,8.2459,8.2431,8.2431,8.2431,8.2431,8.2431,8.2431,8.2431,8.2318,8.2062,8.0983,8.0072,7.9527,7.8533,7.7964,7.7964,7.7172,7.6831,7.6999,7.6179,7.5867,7.6006,7.5469,7.5497,7.6006,7.6006,7.5491,0.0,0.0,0.0,0.0,0.0,0.0,0.0,0.0,0.0,0.0,0.0,5.0122,5.1856,0.0,5.5768,5.7792,5.8618,5.9497,6.0926,6.0919,6.0611,6.028,6.0491,6.0799,6.1107,6.1676,6.2014,6.2014,6.2557,6.2998,6.3261,6.357,6.4465,6.6054,6.6152,6.7226,6.9369,6.9192,6.9628,7.0645,7.1328,7.1794,7.2147,7.2652,7.3349,7.4135,7.3462,7.3679,7.4439,7.4101,7.4154,7.4439,7.4439,7.387,7.3094,7.3094,7.3094,7.3094,7.3094,7.3294,7.3521,7.3208,7.3472,7.4129,7.5147,7.606,7.7115,7.8651,7.9562,8.0158,8.0416,8.0473,8.0558,8.0871,8.0956,8.1069,8.1381,8.1236,8.1123,8.1381,8.1466,8.1523,8.1862,8.1636,8.1636,8.2318,8.2431,8.2431,8.2431,8.2431,8.2431,8.2431,8.2431,8.2288,8.1947,8.1323,8.047,7.9273,7.7966,7.7283,7.7283,7.6347,7.581,7.581,7.4897,7.4439,7.4439,7.4101,7.4154,7.4439,7.3447,7.285,0.0,0.0,0.0,0.0,0.0,0.0,0.0,0.0,0.0,0.0,0.0,0.0,0.0,0.0,0.0,5.5275,5.6516,5.7705,5.9316,5.9238,5.8864,5.8404,5.9412,6.0205,6.0332,6.0923,6.1335,6.1439,6.1809,6.2172,6.238,6.2895,6.3582,6.4444,6.4578,6.5322,6.6756,6.7122,6.7709,6.8521,0.0,0.0,6.9653,6.9876,7.0721,7.196,7.1436,7.2016,7.3233,7.2898,7.2799,7.2717,7.2039,7.1768,7.1768,7.1768,7.1768,7.1793,7.1988,7.2146,7.228,7.2362,7.2525,7.2814,7.3493,7.4521,0.0,7.7027,7.8222,7.9246,7.9647,7.9735,7.9821,8.0103,8.0158,8.0187,8.0416,8.0072,7.9813,8.0243,8.0243,8.0385,8.1123,8.0613,8.0556,8.172,8.209,8.2233,8.2233,8.2459,8.2545,8.2459,8.2318,8.2033,8.1494,8.1236,8.0495,7.9018,7.7682,7.6802,7.6407,7.521,7.4445,7.4332,7.313,7.2529,7.2529,7.244,7.244,7.2472,7.0149,6.958,0.0,0.0,0.0,0.0,0.0,0.0,0.0,0.0,0.0,0.0,0.0,0.0,0.0,0.0,0.0,0.0,5.514,5.6936,5.8129,5.7035,5.5268,5.3073,5.6103,5.8618,5.9204,5.975,6.025,6.0721,6.0802,6.1318,6.2354,6.2458,0.0,0.0,0.0,6.4012,6.4999,6.4286,6.4864,6.6756,6.6957,6.752,6.8458,6.9504,7.008,7.0258,7.0204,7.0278,7.0507,7.1369,7.1712,7.1415,6.8278,6.7046,6.7046,6.7046,6.7046,6.7165,6.811,0.0,0.0,6.9699,7.0504,7.1481,7.2159,7.3237,7.4518,7.5693,7.6546,7.7141,7.72,7.72,7.7485,7.8647,7.8933,7.9219,8.0246,8.0072,7.9725,7.9783,7.9331,7.9249,8.0416,7.9647,7.9161,7.9899,8.0896,8.1549,8.1549,8.2573,8.3057,8.246,8.1892,0.0,8.1436,8.0495,7.981,7.9586,7.8362,7.6859,7.5131,7.3927,7.3013,7.2419,7.1168,7.0518,7.049,7.002,7.0072,7.0404,6.6833,6.6145,0.0,0.0,0.0,0.0,0.0,0.0,0.0,0.0,0.0,0.0,0.0,0.0,0.0,0.0,0.0,0.0,5.1303,5.2329,5.0469,5.1158,5.1422,5.0235,5.4239,5.7221,5.7476,5.8662,5.9516,5.9727,6.0017,6.0562,6.1344,6.1396,6.1679,6.2343,6.2635,6.3005,6.3354,6.3365,6.3806,6.4659,6.473,6.4993,6.5442,6.5926,6.6644,6.7472,6.7098,6.7491,6.8394,6.8474,6.8481,0.0,0.0,0.0,0.0,0.0,6.6283,6.633,6.6777,6.7107,6.7393,6.7518,6.7936,6.8479,6.9349,7.0266,7.1312,7.2702,7.3586,7.424,7.5005,7.5434,7.5867,7.6802,7.734,7.7738,7.8226,7.757,7.7087,7.7852,7.7482,0.0,7.7177,7.6805,7.7058,7.8848,7.9559,8.0099,8.0783,8.1351,8.1579,8.1296,8.1041,8.0871,8.0871,8.0126,0.0,0.0,0.0,7.6345,7.4492,7.3895,0.0,0.0,0.0,0.0,0.0,0.0,0.0,0.0,6.412,6.3715,0.0,0.0,0.0,0.0,0.0,0.0,0.0,0.0,0.0,0.0,0.0,0.0,0.0,0.0,0.0,0.0,4.6703,4.6262,4.1915,4.44,4.6296,4.5274,5.0499,5.4152,5.4041,5.5602,5.67,5.6899,5.65,5.6964,5.8612,5.873,5.9463,6.1104,6.1627,6.1915,6.1915,6.258,6.2968,6.31,6.31,6.3178,6.3358,6.3358,6.3996,6.5055,6.4534,6.5037,6.6172,6.5954,6.5859,6.5758,6.4876,6.4514,6.4514,6.4514,6.4598,6.4783,6.5225,6.5481,6.5686,6.5944,6.6124,6.6455,6.7374,6.7993,6.8654,6.9962,7.0796,7.1548,7.2771,7.3503,7.415,7.5131,7.5807,7.6319,7.6489,7.5639,7.5102,7.6066,7.5156,7.4218,7.4129,7.4076,7.4957,7.7539,7.8222,0.0,8.0103,8.0556,8.0671,8.0473,8.0331,8.0246,8.0246,7.9586,7.8673,7.7568,7.6717,7.5605,7.4116,7.355,7.2501,7.0888,6.8158,6.6446,0.0,0.0,0.0,0.0,0.0,0.0,0.0,0.0,0.0,0.0,0.0,0.0,0.0,0.0,0.0,0.0,0.0,0.0,0.0,0.0,0.0,0.0,0.0,0.0,3.392,3.7329,3.925,3.6332,4.3484,4.8506,4.8124,4.951,5.0699,5.1327,4.8707,4.9065,5.3641,5.3844,5.5718,5.9797,6.0436,6.0698,6.0698,6.1338,6.1933,6.2432,6.2432,6.2765,6.3358,6.3358,6.3381,6.3455,6.3429,6.3429,6.3573,6.4423,6.4774,6.4467,6.1323,6.0077,6.0077,6.0077,6.0393,6.103,6.2542,6.3517,6.4183,6.5064,6.5801,6.6376,6.6943,6.7178,6.7437,6.8109,6.8686,6.9321,7.0403,7.1146,7.2056,7.3724,7.4499,7.5074,7.5696,7.5301,7.4847,7.4903,7.2427,7.0746,7.1993,7.2192,7.3045,7.5526,7.6973,0.0,7.9582,8.0723,8.1181,8.0531,8.0042,7.9725,7.9725,7.8561,7.7539,7.6859,7.5611,7.4641,7.4062,7.2245,7.0888,7.0234,6.8357,6.6241,6.3844,0.0,0.0,0.0,0.0,0.0,0.0,0.0,0.0,0.0,0.0,0.0,0.0,0.0,0.0,0.0,0.0,0.0,0.0,0.0,0.0,0.0,0.0,0.0,0.0,3.5608,3.7617,3.5233,4.1456,4.5097,4.2884,4.4023,4.5077,4.5545,4.546,4.6324,4.8513,5.0843,5.3073,5.5178,5.8085,5.962,5.962,6.0169,6.0559,6.0741,6.0741,6.0845,6.1075,6.1416,6.1549,6.1575,6.2011,6.1959,6.1598,6.1895,6.1611,6.0848,5.9319,5.8696,5.8696,5.8696,5.9082,5.969,6.0234,6.1005,6.1892,6.2628,6.3008,6.3335,6.4126,6.468,6.5217,6.6091,6.6423,6.6797,6.7946,6.898,7.0072,7.1423,7.2746,7.3614,7.339,7.285,7.2395,7.2395,7.0907,6.932,6.8316,6.9628,7.1065,7.1704,7.3807,7.6225,7.8732,7.9018,7.9246,7.9899,7.9443,7.8874,7.8448,7.72,7.6179,7.5526,7.4357,7.3216,7.2188,7.1481,7.0457,6.9053,6.8403,6.582,6.1163,0.0,0.0,0.0,0.0,0.0,0.0,0.0,0.0,0.0,0.0,0.0,0.0,0.0,0.0,0.0,0.0,0.0,0.0,0.0,0.0,0.0,0.0,0.0,0.0,0.0,0.0,3.3908,3.8617,0.0,3.907,3.8815,3.8905,3.9156,3.9168,4.0237,4.2679,4.504,4.8009,5.1639,5.4725,5.6893,5.8095,5.8896,5.9238,5.9264,5.9494,5.9594,5.962,6.0147,6.0384,6.0384,6.0819,6.0767,6.0306,5.9479,5.851,5.7532,5.7125,5.6948,5.6948,5.6948,5.7441,5.8143,5.8372,5.9026,5.9894,6.0926,6.1023,6.0822,6.1434,6.1408,6.1461,6.2497,6.2946,6.3443,6.495,6.6065,6.7232,6.8916,7.0286,7.1264,7.138,7.1087,7.0447,6.9237,6.8649,6.7809,6.6055,6.7413,6.8893,6.9442,7.1419,7.414,7.7572,7.7852,7.8106,7.8901,7.862,7.8135,7.7454,7.6433,7.5381,7.4275,7.3273,7.2098,7.0566,7.0281,6.9285,6.7407,6.6952,6.4483,0.0,0.0,0.0,0.0,0.0,0.0,0.0,0.0,0.0,0.0,0.0,0.0,0.0,0.0,0.0,0.0,0.0,0.0,0.0,0.0,0.0,0.0,0.0,0.0,0.0,0.0,0.0,3.2007,3.4817,0.0,0.0,0.0,0.0,3.2269,3.0242,3.1186,3.617,3.6887,4.0788,4.8772,5.0248,5.2514,5.5961,5.6942,5.7617,5.7969,5.8431,5.876,5.894,5.9289,5.9462,5.9462,5.9511,5.9485,5.9274,5.7079,5.555,5.466,5.4535,5.4535,5.4535,5.4509,5.5181,5.6214,5.6848,5.7472,5.8255,5.979,5.9627,5.8832,5.8732,5.7519,0.0,0.0,5.8428,5.9396,6.1498,6.2532,6.3669,6.6285,6.7309,6.8152,6.9534,6.9935,6.8958,0.0,6.5553,6.5794,6.4758,0.0,6.638,6.8243,6.9713,7.2068,7.6138,7.726,7.7738,7.7824,7.7795,7.7482,7.6831,7.612,7.4897,7.3127,7.2358,7.1187,6.9412,6.862,6.7345,6.5406,6.4135,0.0,0.0,0.0,0.0,0.0,0.0,0.0,0.0,0.0,0.0,0.0,0.0,0.0,0.0,0.0,0.0,0.0,0.0,0.0,0.0,0.0,0.0,0.0,0.0,0.0,0.0,2.7005,2.9044,2.9607,3.1748,3.2255,0.0,0.0,0.0,0.0,0.0,0.0,2.9475,3.2918,3.6062,3.8681,4.2781,4.6716,5.0409,4.8895,5.0689,5.5643,5.3675,5.4055,5.6426,5.4726,5.3945,5.3969,5.4444,5.4178,5.334,5.3254,5.2803,5.2102,5.0828,5.0576,5.0868,5.049,5.1284,5.2693,5.3245,5.4672,5.6178,5.5711,5.5394,5.4947,5.3694,0.0,0.0,0.0,0.0,5.7012,5.9279,6.0508,6.1677,6.3668,6.5397,6.6344,6.5558,6.6462,6.629,0.0,6.1428,6.0274,5.7611,0.0,0.0,0.0,0.0,7.0277,7.4504,7.6192,7.7596,7.9045,7.8334,7.7482,7.6831,7.4951,7.3383,7.2415,7.0931,6.9674,6.8711,6.6674,6.4888,6.3516,0.0,0.0,0.0,0.0,0.0,0.0,0.0,0.0,0.0,0.0,0.0,0.0,0.0,0.0,0.0,0.0,0.0,0.0,0.0,0.0,0.0,0.0,0.0,0.0,0.0,0.0,0.0,2.6066,2.8647,3.0205,3.0048,2.9555,0.0,0.0,0.0,0.0,0.0,0.0,0.0,0.0,0.0,3.3886,3.6855,4.0457,4.4712,4.3586,4.4984,4.8938,4.7715,4.8864,5.1937,4.9568,5.0056,5.2697,5.1896,4.8604,4.4228,4.8494,4.8922,4.6891,0.0,0.0,0.0,0.0,4.7647,4.8753,4.9343,5.0408,5.1518,5.1596,0.0,0.0,0.0,0.0,0.0,0.0,0.0,0.0,0.0,0.0,5.8819,6.0762,6.2043,6.2904,6.311,6.2257,6.0758,0.0,5.766,5.6634,5.4102,0.0,0.0,0.0,0.0,6.7941,7.2667,7.5074,7.6973,7.8673,7.7682,7.6632,7.598,7.3646,7.1936,7.131,6.9541,6.7908,6.644,6.4689,6.2414,0.0,0.0,0.0,0.0,0.0,0.0,0.0,0.0,0.0,0.0,0.0,0.0,0.0,0.0,0.0,0.0,0.0,0.0,0.0,0.0,0.0,0.0,0.0,0.0,0.0,0.0,0.0,0.0,0.0,2.8265,3.1099,0.0,0.0,0.0,0.0,0.0,0.0,0.0,0.0,0.0,0.0,0.0,0.0,0.0,3.4174,3.894,3.8989,3.9632,4.0911,4.1386,4.3287,4.6299,4.3972,4.6051,5.1339,4.8664,0.0,3.5622,4.3414,0.0,0.0,0.0,0.0,0.0,0.0,0.0,0.0,0.0,0.0,0.0,0.0,0.0,0.0,0.0,0.0,0.0,0.0,0.0,0.0,0.0,0.0,5.5477,5.7388,5.8114,5.8772,0.0,5.7135,5.3966,5.3574,5.3696,0.0,0.0,0.0,0.0,0.0,0.0,0.0,7.0438,7.3757,7.6179,7.7482,7.6461,7.5469,7.4875,7.2509,7.0774,7.0205,6.813,6.5934,6.3701,6.2677,0.0,0.0,0.0,0.0,0.0,0.0,0.0,0.0,0.0,0.0,0.0,0.0,0.0,0.0,0.0,0.0,0.0,0.0,0.0,0.0,0.0,0.0,0.0,0.0,0.0,0.0,0.0,0.0,0.0,0.0,0.0,0.0,0.0,0.0,0.0,0.0,0.0,0.0,0.0,0.0,0.0,0.0,0.0,0.0,0.0,0.0,0.0,0.0,0.0,0.0,3.6386,3.7392,4.0729,3.7884,3.7485,3.8948,3.6633,3.6218,3.7324,3.9403,0.0,0.0,0.0,0.0,0.0,0.0,0.0,0.0,0.0,0.0,0.0,0.0,0.0,0.0,0.0,0.0,0.0,0.0,0.0,0.0,0.0,0.0,0.0,0.0,5.4978,5.5559,5.1689,0.0,0.0,0.0,0.0,0.0,0.0,0.0,0.0,0.0,0.0,0.0,6.704,7.1924,7.55,7.6802,7.5781,7.496,7.4847,7.2086,7.0291,7.0153,6.6554,6.3958,0.0,0.0,0.0,0.0,0.0,0.0,0.0,0.0,0.0,0.0,0.0,0.0,0.0,0.0,0.0,0.0,0.0,0.0,0.0,0.0,0.0,0.0,0.0,0.0,0.0,0.0,0.0,0.0,0.0,0.0,0.0,0.0,0.0,0.0,0.0,0.0,0.0,0.0,0.0,0.0,0.0,0.0,0.0,0.0,0.0,0.0,0.0,0.0,0.0,0.0,0.0,0.0,0.0,0.0,0.0,0.0,0.0,0.0,0.0,3.0527,0.0,0.0,0.0,0.0,0.0,0.0,0.0,0.0,0.0,0.0,0.0,0.0,0.0,0.0,0.0,0.0,0.0,0.0,0.0,0.0,0.0,0.0,0.0,0.0,0.0,0.0,0.0,0.0,0.0,0.0,0.0,0.0,0.0,0.0,0.0,0.0,0.0,0.0,0.0,0.0,6.559,7.0546,7.4428,7.6551,7.5378,7.4439,7.4439,7.1562,6.9177,6.7822,6.427,0.0,0.0,0.0,0.0,0.0,0.0,0.0,0.0,0.0,0.0,0.0,0.0,0.0,0.0,0.0,0.0,0.0,0.0,0.0,0.0,0.0,0.0,0.0,0.0,0.0,0.0,0.0,0.0,0.0,0.0,0.0,0.0,0.0,0.0,0.0,0.0,0.0,0.0,0.0,0.0,0.0,0.0,0.0,0.0,0.0,0.0,0.0,0.0,0.0,0.0,0.0,0.0,0.0,0.0,0.0,0.0,0.0,0.0,0.0,2.9735,0.0,0.0,0.0,0.0,0.0,0.0,0.0,0.0,0.0,0.0,0.0,0.0,0.0,0.0,0.0,0.0,0.0,0.0,0.0,0.0,0.0,0.0,0.0,0.0,0.0,0.0,0.0,0.0,0.0,0.0,0.0,0.0,0.0,0.0,0.0,0.0,0.0,0.0,0.0,0.0,0.0,6.419,6.8966,7.2879,7.543,7.418,7.318,7.3287,7.0587,6.7786,6.527,6.1662,0.0,0.0,0.0,0.0,0.0,0.0,0.0,0.0,0.0,0.0,0.0,0.0,0.0,0.0,0.0,0.0,0.0,0.0,0.0,0.0,0.0,0.0,0.0,0.0,0.0,0.0,0.0,0.0,0.0,0.0,0.0,0.0,0.0,0.0,0.0,0.0,0.0,0.0,0.0,0.0,0.0,0.0,0.0,0.0,0.0,0.0,0.0,0.0,0.0,0.0,0.0,0.0,0.0,0.0,0.0,0.0,0.0,0.0,0.0,0.0,0.0,0.0,0.0,0.0,0.0,0.0,0.0,0.0,0.0,0.0,0.0,0.0,0.0,0.0,0.0,0.0,0.0,0.0,0.0,0.0,0.0,0.0,0.0,0.0,0.0,0.0,0.0,0.0,0.0,0.0,0.0,0.0,0.0,0.0,0.0,0.0,0.0,0.0,0.0,0.0,0.0,6.1424,6.6644,7.0596,7.2031,7.0969,7.0384,7.0839,6.8573,6.616,6.3895,0.0,0.0,0.0,0.0,0.0,0.0,0.0,0.0,0.0,0.0,0.0,0.0,0.0,0.0,0.0,0.0,0.0,0.0,0.0,0.0,0.0,0.0,0.0,0.0,0.0,0.0,0.0,0.0,0.0,0.0,0.0,0.0,0.0,0.0,0.0,0.0,0.0,0.0,0.0,0.0,0.0,0.0,0.0,0.0,0.0,0.0,0.0,0.0,0.0,0.0,0.0,0.0,0.0,0.0,0.0,0.0,0.0,0.0,0.0,0.0,0.0,0.0,0.0,0.0,0.0,0.0,0.0,0.0,0.0,0.0,0.0,0.0,0.0,0.0,0.0,0.0,0.0,0.0,0.0,0.0,0.0,0.0,0.0,0.0,0.0,0.0,0.0,0.0,0.0,0.0,0.0,0.0,0.0,0.0,0.0,0.0,0.0,0.0,0.0,0.0,0.0,0.0,6.0447,6.528,6.9235,7.151,7.0911,7.0162,6.9672,6.7722,6.4775,6.0664,0.0,0.0,0.0,0.0,0.0,0.0,0.0,0.0,0.0,0.0,0.0,0.0,0.0,0.0,0.0,0.0,0.0,0.0,0.0,0.0,0.0,0.0,0.0,0.0,0.0,0.0,0.0,0.0,0.0,0.0,0.0,0.0,0.0,0.0,0.0,0.0,0.0,0.0,0.0,0.0,0.0,0.0,0.0,0.0,0.0,0.0,0.0,0.0,0.0,0.0,0.0,0.0,0.0,0.0,0.0,0.0,0.0,0.0,0.0,0.0,0.0,0.0,0.0,0.0,0.0,0.0,0.0,0.0,0.0,0.0,0.0,0.0,0.0,0.0,0.0,0.0,0.0,0.0,0.0,0.0,0.0,0.0,0.0,0.0,0.0,0.0,0.0,0.0,0.0,0.0,0.0,0.0,0.0,0.0,0.0,0.0,0.0,0.0,0.0,0.0,0.0,0.0,5.935,6.3894,6.7606,6.9956,6.9683,6.8893,6.7836,6.6241,6.2965,5.7523,0.0,0.0,0.0,0.0,0.0,0.0,0.0,0.0,0.0,0.0,0.0,0.0,0.0,0.0,0.0,0.0,0.0,0.0,0.0,0.0,0.0,0.0,0.0,0.0,0.0,0.0,0.0,0.0,0.0,0.0,0.0,0.0,0.0,0.0,0.0,0.0,0.0,0.0,0.0,0.0,0.0,0.0,0.0,0.0,0.0,0.0,0.0,0.0,0.0,0.0,0.0,0.0,0.0,0.0,0.0,0.0,0.0,0.0,0.0,0.0,0.0,0.0,0.0,0.0,0.0,0.0,0.0,0.0,0.0,0.0,0.0,0.0,0.0,0.0,0.0,0.0,0.0,0.0,0.0,0.0,0.0,0.0,0.0,0.0,0.0,0.0,0.0,0.0,0.0,0.0,0.0,0.0,0.0,0.0,0.0,0.0,0.0,0.0,0.0,0.0,0.0,0.0,5.7705,6.2123,6.5418,6.6613,6.6273,6.5624,6.4842,6.3714,6.0567,0.0,0.0,0.0,0.0,0.0,0.0,0.0,0.0,0.0,0.0,0.0,0.0,0.0,0.0,0.0,0.0,0.0,0.0,0.0,0.0,0.0,0.0,0.0,0.0,0.0,0.0,0.0,0.0,0.0,0.0,0.0,0.0,0.0,0.0,0.0,0.0,0.0,0.0,0.0,0.0,0.0,0.0,0.0,0.0,0.0,0.0,0.0,0.0,0.0,0.0,0.0,0.0,0.0,0.0,0.0,0.0,0.0,0.0,0.0,0.0,0.0,0.0,0.0,0.0,0.0,0.0,0.0,0.0,0.0,0.0,0.0,0.0,0.0,0.0,0.0,0.0,0.0,0.0,0.0,0.0,0.0,0.0,0.0,0.0,0.0,0.0,0.0,0.0,0.0,0.0,0.0,0.0,0.0,0.0,0.0,0.0,0.0,0.0,0.0,0.0,0.0,0.0,0.0,5.7052,6.0874,6.4096,0.0,6.6198,6.533,6.3891,6.2324,5.9289,5.4352,0.0,0.0,0.0,0.0,0.0,0.0,0.0,0.0,0.0,0.0,0.0,0.0,0.0,0.0,0.0,0.0,0.0,0.0,0.0,0.0,0.0,0.0,0.0,0.0,0.0,0.0,0.0,0.0,0.0,0.0,0.0,0.0,0.0,0.0,0.0,0.0,0.0,0.0,0.0,0.0,0.0,0.0,0.0,0.0,0.0,0.0,0.0,0.0,0.0,0.0,0.0,0.0,0.0,0.0,0.0,0.0,0.0,0.0,0.0,0.0,0.0,0.0,0.0,0.0,0.0,0.0,0.0,0.0,0.0,0.0,0.0,0.0,0.0,0.0,0.0,0.0,0.0,0.0,0.0,0.0,0.0,0.0,0.0,0.0,0.0,0.0,0.0,0.0,0.0,0.0,0.0,0.0,0.0,0.0,0.0,0.0,0.0,0.0,0.0,0.0,0.0,0.0,0.0,5.9572,6.2847,0.0,6.4769,6.3884,6.219,6.0429,5.7472,5.2889,0.0,0.0,0.0,0.0,0.0,0.0,0.0,0.0,0.0,0.0,0.0,0.0,0.0,0.0,0.0,0.0,0.0,0.0,0.0,0.0,0.0,0.0,0.0,0.0,0.0,0.0,0.0,0.0,0.0,0.0,0.0,0.0,0.0,0.0,0.0,0.0,0.0,0.0,0.0,0.0,0.0,0.0,0.0,0.0,0.0,0.0,0.0,0.0,0.0,0.0,0.0,0.0,0.0,0.0,0.0,0.0,0.0,0.0,0.0,0.0,0.0,0.0,0.0,0.0,0.0,0.0,0.0,0.0,0.0,0.0,0.0,0.0,0.0,0.0,0.0,0.0,0.0,0.0,0.0,0.0,0.0,0.0,0.0,0.0,0.0,0.0,0.0,0.0,0.0,0.0,0.0,0.0,0.0,0.0,0.0,0.0,0.0,0.0,0.0,0.0,0.0,0.0,0.0,5.8273,6.1621,6.2198,6.2276,6.1601,5.9939,5.8247,5.5358,5.0873,4.8322,0.0,0.0,0.0,0.0,0.0,0.0,0.0,0.0,0.0,0.0,0.0,0.0,0.0,0.0,0.0,0.0,0.0,0.0,0.0,0.0,0.0,0.0,0.0,0.0,0.0,0.0,0.0,0.0,0.0,0.0,0.0,0.0,0.0,0.0,0.0,0.0,0.0,0.0,0.0,0.0,0.0,0.0,0.0,0.0,0.0,0.0,0.0,0.0,0.0,0.0,0.0,0.0,0.0,0.0,0.0,0.0,0.0,0.0,0.0,0.0,0.0,0.0,0.0,0.0,0.0,0.0,0.0,0.0,0.0,0.0,0.0,0.0,0.0,0.0,0.0,0.0,0.0,0.0,0.0,0.0,0.0,0.0,0.0,0.0,0.0,0.0,0.0,0.0,0.0,0.0,0.0,0.0,0.0,0.0,0.0,0.0,0.0,0.0,0.0,0.0,0.0,0.0,5.7129,5.9475,6.0906,6.1062,6.0565,5.9382,5.7627,5.5036,5.1362,4.8184,0.0,0.0,0.0,0.0,0.0,0.0,0.0,0.0,0.0,0.0,0.0,0.0,0.0,0.0,0.0,0.0,0.0,0.0,0.0,0.0,0.0,0.0,0.0,0.0,0.0,0.0,0.0,0.0,0.0,0.0,0.0,0.0,0.0,0.0,0.0,0.0,0.0,0.0,0.0,0.0,0.0,0.0,0.0,0.0,0.0,0.0,0.0,0.0,0.0,0.0,0.0,0.0,0.0,0.0,0.0,0.0,0.0,0.0,0.0,0.0,0.0,0.0,0.0,0.0,0.0,0.0,0.0,0.0,0.0,0.0,0.0,0.0,0.0,0.0,0.0,0.0,0.0,0.0,0.0,0.0,0.0,0.0,0.0,0.0,0.0,0.0,0.0,0.0,0.0,0.0,0.0,0.0,0.0,0.0,0.0,0.0,0.0,0.0,0.0,0.0,0.0,0.0,5.2641,5.556,5.9115,5.9479,5.8956,5.7597,5.5607,5.3049,4.9922,4.7248,0.0,0.0,0.0,0.0,0.0,0.0,0.0,0.0,0.0,0.0,0.0,0.0,0.0,0.0,0.0,0.0,0.0,0.0,0.0,0.0,0.0,0.0,0.0,0.0,0.0,0.0,0.0,0.0,0.0,0.0,0.0,0.0,0.0,0.0,0.0,0.0,0.0,0.0,0.0,0.0,0.0,0.0,0.0,0.0,0.0,0.0,0.0,0.0,0.0,0.0,0.0,0.0,0.0,0.0,0.0,0.0,0.0,0.0,0.0,0.0,0.0,0.0,0.0,0.0,0.0,0.0,0.0,0.0,0.0,0.0,0.0,0.0,0.0,0.0,0.0,0.0,0.0,0.0,0.0,0.0,0.0,0.0,0.0,0.0,0.0,0.0,0.0,0.0,0.0,0.0,0.0,0.0,0.0,0.0,0.0,0.0,0.0,0.0,0.0,0.0,0.0,0.0,0.0,5.1479,5.6775,5.7658,5.7216,5.5602,5.3498,5.0967,4.8016,0.0,0.0,0.0,0.0,0.0,0.0,0.0,0.0,0.0,0.0,0.0,0.0,0.0,0.0,0.0,0.0,0.0,0.0,0.0,0.0,0.0,0.0,0.0,0.0,0.0,0.0,0.0,0.0,0.0,0.0,0.0,0.0,0.0,0.0,0.0,0.0,0.0,0.0,0.0,0.0,0.0,0.0,0.0,0.0,0.0,0.0,0.0,0.0,0.0,0.0,0.0,0.0,0.0,0.0,0.0,0.0,0.0,0.0,0.0,0.0,0.0,0.0,0.0,0.0,0.0,0.0,0.0,0.0,0.0,0.0,0.0,0.0,0.0,0.0,0.0,0.0,0.0,0.0,0.0,0.0,0.0,0.0,0.0,0.0,0.0,0.0,0.0,0.0,0.0,0.0,0.0,0.0,0.0,0.0,0.0,0.0,0.0,0.0,0.0,0.0,0.0,0.0,0.0,0.0,0.0,5.3506,5.5529,5.6178,5.5035,5.3688,5.1466,4.8024,0.0,0.0,0.0,0.0,0.0,0.0,0.0,0.0,0.0,0.0,0.0,0.0,0.0,0.0]}]]]